[[{"header":{"parameterUnit":"m.s-1","parameterCategory":1,"la1":30.6,"la2":29.2853,"lo1":-89.7004,"lo2":-87.6739,"dy":0.0162,"dx":0.0183,"nx":112,"ny":82,"refTime":"2023-09-26T00:00:00:Z","depth":0,"parameterNumber":2,"parameterNumberName":"U-component_of_WINDS"},"data":[0.0,0.0,0.0,0.0,0.0,0.0,0.0,0.0,0.0,0.0,0.0,0.0,0.0,0.0,0.0,0.0,0.0,0.0,0.0,0.0,0.0,0.0,0.0,0.0,0.0,0.0,0.0,0.0,0.0,0.0,0.0,0.0,0.0,0.0,0.0,0.0,0.0,0.0,0.0,0.0,0.0,0.0,0.0,0.0,0.0,0.0,0.0,0.0,0.0,0.0,0.0,0.0,0.0,0.0,0.0,0.0,0.0,0.0,0.0,0.0,0.0,0.0,0.0,0.0,0.0,0.0,0.0,0.0,0.0,0.0,0.0,0.0,0.0,0.0,0.0,0.0,0.0,0.0,0.0,0.0,0.0,0.0,0.0,0.0,0.0,0.0,0.0,0.0,0.0,0.0,1.2842,1.4365,1.6306,1.7331,1.6895,1.6154,1.5031,1.3303,0.0,0.0,0.0,0.0,0.0,0.0,0.0,0.0,0.0,0.0,0.0,0.0,0.0,0.0,0.0,0.0,0.0,0.0,0.0,0.0,0.0,0.0,0.0,0.0,0.0,0.0,0.0,0.0,0.0,0.0,0.0,0.0,0.0,0.0,0.0,0.0,0.0,0.0,0.0,0.0,0.0,0.0,0.0,0.0,0.0,0.0,0.0,0.0,0.0,0.0,0.0,0.0,0.0,0.0,0.0,0.0,0.0,0.0,0.0,0.0,0.0,0.0,0.0,0.0,0.0,0.0,0.0,0.0,0.0,0.0,0.0,0.0,0.0,0.0,0.0,0.0,0.0,0.0,0.0,0.0,0.0,0.0,0.0,0.0,0.0,0.0,0.0,0.0,0.0,0.0,0.0,0.0,0.0,0.0,0.0,0.0,0.0,0.0,0.0,0.0,0.0,0.0,0.0,0.0,1.3943,1.6536,1.7705,1.8404,1.8541,1.7445,1.6131,1.4623,0.0,0.0,0.0,0.0,0.0,0.0,0.0,0.0,0.0,0.0,0.0,0.0,0.0,0.0,0.0,0.0,0.0,0.0,0.0,0.0,0.0,0.0,0.0,0.0,0.0,0.0,0.0,0.0,0.0,0.0,0.0,0.0,0.0,0.0,0.0,0.0,0.0,0.0,0.0,0.0,0.0,0.0,0.0,0.0,0.0,0.0,0.0,0.0,0.0,0.0,0.0,0.0,0.0,0.0,0.0,0.0,0.0,0.0,0.0,0.0,0.0,0.0,0.0,0.0,0.0,0.0,0.0,0.0,0.0,0.0,0.0,0.0,0.0,0.0,0.0,0.0,0.0,0.0,0.0,0.0,0.0,0.0,0.0,0.0,0.0,0.0,0.0,0.0,0.0,0.0,0.0,0.0,0.0,0.0,0.0,0.0,0.0,0.0,0.0,0.0,0.0,0.0,0.0,1.4023,1.5484,1.7215,1.8441,1.8988,1.878,1.7825,1.6548,1.482,1.2661,0.0,0.0,0.0,0.0,0.0,0.0,0.0,0.0,0.0,0.0,0.0,0.0,0.0,0.0,0.0,0.0,0.0,0.0,0.0,0.0,0.0,0.0,0.0,0.0,0.0,0.0,0.0,0.0,0.0,0.0,0.0,0.0,0.0,0.0,0.0,0.0,0.0,0.0,0.0,0.0,0.0,0.0,0.0,0.0,0.0,0.0,0.0,0.0,0.0,0.0,0.0,0.0,0.0,0.0,0.0,0.0,0.0,0.0,0.0,0.0,0.0,0.0,0.0,0.0,0.0,0.0,0.0,0.0,0.0,0.0,0.0,0.0,0.0,0.0,0.0,0.0,0.0,0.0,0.0,0.0,0.0,0.0,0.0,0.0,0.0,0.0,0.0,0.0,0.0,0.0,0.0,0.0,0.0,0.0,0.0,0.0,0.0,0.0,0.0,0.0,0.0,0.0,1.5557,1.6895,1.7644,1.8893,1.9459,1.8925,1.8178,1.6956,1.5042,1.3217,0.0,0.0,0.0,0.0,0.0,0.0,0.0,0.0,0.0,0.0,0.0,0.0,0.0,0.0,0.0,0.0,0.0,0.0,0.0,0.0,0.0,0.0,0.0,0.0,0.0,0.0,0.0,0.0,0.0,0.0,0.0,0.0,0.0,0.0,0.0,0.0,0.0,0.0,0.0,0.0,0.0,0.0,0.0,0.0,0.0,0.0,0.0,0.0,0.0,0.0,0.0,0.0,0.0,0.0,0.0,0.0,0.0,0.0,0.0,0.0,0.0,0.0,0.0,0.0,0.0,0.0,0.0,0.0,0.0,0.0,0.0,0.0,0.0,0.0,0.0,0.0,0.0,0.0,0.0,0.0,0.0,0.0,0.0,0.0,0.0,0.0,0.0,0.0,0.0,0.0,0.0,0.0,0.0,0.0,0.0,0.0,0.0,0.0,0.0,0.0,0.0,0.0,1.6292,1.7696,1.8378,1.9304,1.983,1.9645,1.8965,1.7751,1.5906,1.4169,0.0,0.0,0.0,0.0,0.0,0.0,0.0,0.0,0.0,0.0,0.0,0.0,0.0,0.0,0.0,0.0,0.0,0.0,0.0,0.0,0.0,0.0,0.0,0.0,0.0,0.0,0.0,0.0,0.0,0.0,0.0,0.0,0.0,0.0,0.0,0.0,0.0,0.0,0.0,0.0,0.0,0.0,0.0,0.0,0.0,0.0,0.0,0.0,0.0,0.0,0.0,0.0,0.0,0.0,0.0,0.0,0.0,0.0,0.0,0.0,0.0,0.0,0.0,0.0,0.0,0.0,0.0,0.0,0.0,0.0,0.0,0.0,0.0,0.0,0.0,0.0,0.0,0.0,0.0,0.0,0.0,0.0,0.0,0.0,0.0,0.0,0.0,0.0,0.0,0.0,0.0,0.0,0.0,0.0,0.0,0.0,0.0,0.0,0.0,0.0,0.0,0.0,1.6865,1.8243,0.0,1.9512,1.9569,1.9076,1.8117,1.675,1.4945,0.0,0.0,0.0,0.0,0.0,0.0,0.0,0.0,0.0,0.0,0.0,0.0,0.0,0.0,0.0,0.0,0.0,0.0,0.0,0.0,0.0,0.0,0.0,0.0,0.0,0.0,0.0,0.0,0.0,0.0,0.0,0.0,0.0,0.0,0.0,0.0,0.0,0.0,0.0,0.0,0.0,0.0,0.0,0.0,0.0,0.0,0.0,0.0,0.0,0.0,0.0,0.0,0.0,0.0,0.0,0.0,0.0,0.0,0.0,0.0,0.0,0.0,0.0,0.0,0.0,0.0,0.0,0.0,0.0,0.0,0.0,0.0,0.0,0.0,0.0,0.0,0.0,0.0,0.0,0.0,0.0,0.0,0.0,0.0,0.0,0.0,0.0,0.0,0.0,0.0,0.0,0.0,0.0,0.0,0.0,0.0,0.0,0.0,0.0,0.0,0.0,0.0,1.5651,1.7203,1.8433,0.0,1.9306,1.9115,1.8278,1.7288,1.5939,1.4164,0.0,0.0,0.0,0.0,0.0,0.0,0.0,0.0,0.0,0.0,0.0,0.0,0.0,0.0,0.0,0.0,0.0,0.0,0.0,0.0,0.0,0.0,0.0,0.0,0.0,0.0,0.0,0.0,0.0,0.0,0.0,0.0,0.0,0.0,0.0,0.0,0.0,0.0,0.0,0.0,0.0,0.0,0.0,0.0,0.0,0.0,0.0,0.0,0.0,0.0,0.0,0.0,0.0,0.0,0.0,0.0,0.0,0.0,0.0,0.0,0.0,0.0,0.0,0.0,0.0,0.0,0.0,0.0,0.0,0.0,0.0,0.0,0.0,0.0,0.0,0.0,0.0,0.0,0.0,0.0,0.0,0.0,0.0,0.0,0.0,0.0,0.0,0.0,0.0,0.0,0.0,0.0,0.0,0.0,0.0,0.0,0.0,0.0,0.0,0.0,0.0,0.0,1.5841,1.7261,1.8273,1.8473,1.8803,1.8529,1.7482,1.6698,1.554,0.0,0.0,0.0,0.0,0.0,0.0,0.0,0.0,0.0,0.0,0.0,0.0,0.0,0.0,0.0,0.0,0.0,0.0,0.0,0.0,0.0,0.0,0.0,0.0,0.0,0.0,0.0,0.0,0.0,0.0,0.0,0.0,0.0,0.0,0.0,0.0,0.0,0.0,0.0,0.0,0.0,0.0,0.0,0.0,0.0,0.0,0.0,0.0,0.0,0.0,0.0,0.0,0.0,0.0,0.0,0.0,0.0,0.0,0.0,0.0,0.0,0.0,0.0,0.0,0.0,0.0,0.0,0.0,0.0,0.0,0.0,0.0,0.0,0.0,0.0,0.0,0.0,0.0,0.0,0.0,0.0,0.0,0.0,0.0,0.0,0.0,0.0,0.0,0.0,0.0,0.0,0.0,0.0,0.0,0.0,0.0,0.0,0.0,0.0,0.0,0.0,0.0,0.0,1.5458,1.6799,1.7743,1.8048,1.8128,1.7672,1.6492,1.5529,1.4163,1.2353,0.0,0.0,0.0,0.0,0.0,0.0,0.0,0.0,0.0,0.0,0.0,0.0,0.0,0.0,0.0,0.0,0.0,0.0,0.0,0.0,0.0,0.0,0.0,0.0,0.0,0.0,0.0,0.0,0.0,0.0,0.0,0.0,0.0,0.0,0.0,0.0,0.0,0.0,0.0,0.0,0.0,0.0,0.0,0.0,0.0,0.0,0.0,0.0,0.0,0.0,0.0,0.0,0.0,0.0,0.0,0.0,0.0,0.0,0.0,0.0,0.0,0.0,0.0,0.0,0.0,0.0,0.0,0.0,0.0,0.0,0.0,0.0,0.0,0.0,0.0,0.0,0.0,0.0,0.0,0.0,0.0,0.0,0.0,0.0,0.0,0.0,0.0,0.0,0.0,0.0,0.0,0.0,0.0,0.0,0.0,0.0,0.0,0.0,0.0,0.0,0.0,0.0,1.501,1.6079,1.6873,1.709,1.6995,1.6411,1.524,1.4178,1.2879,1.1108,0.0,0.0,0.0,0.0,0.0,0.0,0.0,0.0,0.0,0.0,0.0,0.0,0.0,0.0,0.0,0.0,0.0,0.0,0.0,0.0,0.0,0.0,0.0,0.0,0.0,0.0,0.0,0.0,0.0,0.0,0.0,0.0,0.0,0.0,0.0,0.0,0.0,0.0,0.0,0.0,0.0,0.0,0.0,0.0,0.0,0.0,0.0,0.0,0.0,0.0,0.0,0.0,0.0,0.0,0.0,0.0,0.0,0.0,0.0,0.0,0.0,0.0,0.0,0.0,0.0,0.0,0.0,0.0,0.0,0.0,0.0,0.0,0.0,0.0,0.0,0.0,0.0,0.0,0.0,0.0,0.0,0.0,0.0,0.0,0.0,0.0,0.0,0.0,0.0,0.0,0.0,0.0,0.0,0.0,0.0,0.0,0.0,0.0,0.0,0.0,0.0,0.0,1.4436,1.5238,1.5727,1.5669,1.554,1.4965,1.3747,1.2808,1.1613,1.0072,0.0,0.0,0.0,0.0,0.0,0.0,0.0,0.0,0.0,0.0,0.0,0.0,0.0,0.0,0.0,0.0,0.0,0.0,0.0,0.0,0.0,0.0,0.0,0.0,0.0,0.0,0.0,0.0,0.0,0.0,0.0,0.0,0.0,0.0,0.0,0.0,0.0,0.0,0.0,0.0,0.0,0.0,0.0,0.0,0.0,0.0,0.0,0.0,0.0,0.0,0.0,0.0,0.0,0.0,0.0,0.0,0.0,0.0,0.0,0.0,1.3012,0.0,0.0,0.0,0.0,0.0,0.0,0.0,0.0,0.0,0.0,0.0,0.0,0.0,0.0,0.0,0.0,0.0,0.0,0.0,0.0,0.0,0.0,0.0,0.0,0.0,0.0,0.0,0.0,0.0,0.0,0.0,0.0,0.0,0.0,0.0,0.0,0.0,0.0,0.0,0.0,0.0,1.3047,1.394,1.4399,1.3995,1.4263,1.3907,1.2416,1.163,1.0545,0.9014,0.8186,0.0,0.0,0.0,0.0,0.0,0.0,0.0,0.0,0.0,0.0,0.0,0.0,0.0,0.0,0.0,0.0,0.0,0.0,0.0,0.0,0.0,0.0,0.0,0.0,0.0,0.0,0.0,0.0,0.0,0.0,0.0,0.0,0.0,0.0,0.0,0.0,0.0,0.0,0.0,0.0,0.0,0.0,0.0,0.0,0.0,0.0,0.0,0.0,0.0,0.0,0.0,0.0,0.0,0.0,0.0,0.0,0.0,0.0,0.0,0.0,1.3687,0.0,0.0,0.0,0.0,0.0,0.0,0.0,0.0,0.0,0.0,0.0,0.0,0.0,0.0,0.0,0.0,0.0,0.0,0.0,0.0,0.0,0.0,0.0,0.0,0.0,0.0,0.0,0.0,0.0,0.0,0.0,0.0,0.0,0.0,0.0,0.0,0.0,0.0,0.0,0.0,1.2095,1.2813,1.3203,1.3059,1.2984,1.2487,1.138,1.0406,0.9244,0.7883,0.6948,0.0,0.0,0.0,0.0,0.0,0.0,0.0,0.0,0.0,0.0,0.0,0.0,0.0,0.0,0.0,0.0,0.0,0.0,0.0,0.0,0.0,0.0,0.0,0.0,0.0,0.0,0.0,0.0,0.0,0.0,0.0,0.0,0.0,0.0,0.0,0.0,0.0,0.0,0.0,0.0,0.0,0.0,0.0,0.0,0.0,0.0,0.0,0.0,0.0,0.0,0.0,0.0,0.0,1.7655,1.7636,1.7636,1.7575,1.7311,1.6897,1.5483,1.4787,1.4599,1.4018,0.0,0.0,0.0,0.0,0.0,0.0,0.0,0.0,0.0,0.0,0.0,0.0,0.0,0.0,0.0,0.0,0.0,0.0,0.0,0.0,0.0,0.0,0.0,0.0,1.4192,1.3842,0.0,0.0,0.0,0.0,0.0,0.0,0.0,0.0,0.0,0.0,0.0,0.0,1.1333,1.1674,1.2002,1.2193,1.1714,1.1091,1.0396,0.9238,0.8,0.6816,0.5738,0.4953,0.0,0.0,0.0,0.0,0.0,0.0,0.0,0.0,0.0,0.0,0.0,0.0,0.0,0.0,0.0,0.0,0.0,0.0,0.0,0.0,0.0,0.0,0.0,0.0,0.0,0.0,0.0,0.0,0.0,0.0,0.0,0.0,0.9119,0.9829,0.0,0.0,0.0,0.0,0.0,0.0,0.0,0.0,0.0,0.0,0.0,0.0,0.0,1.8259,1.945,1.866,1.8673,1.9366,1.9171,1.9043,1.9043,1.8684,1.8354,1.7945,1.6857,0.0,1.5223,1.4617,0.0,0.0,0.0,0.0,0.0,0.0,0.0,0.0,0.0,0.0,0.0,0.0,0.0,0.0,0.0,0.0,0.0,0.0,0.0,0.0,0.0,0.0,1.4571,1.478,1.4656,1.4397,0.0,1.3201,1.2382,1.1704,1.12,0.0,0.0,0.0,0.0,0.0,0.0,0.0,1.032,1.0447,1.0542,1.075,1.0542,1.0099,0.9459,0.8413,0.7331,0.612,0.5135,0.4151,0.3207,0.2841,0.0,0.0,0.0,0.0,0.0,0.0,0.0,0.0,0.0,0.0,0.0,0.0,0.0,0.0,0.0,0.0,0.0,0.0,0.0,0.0,0.0,0.0,0.0,0.0,0.0,0.0,0.0,0.0,0.0,0.8781,0.9284,0.9948,1.047,1.0906,0.0,0.0,0.0,0.0,0.0,0.0,0.0,0.0,0.0,1.8667,1.8161,1.8533,1.981,1.9518,1.9809,2.0691,2.068,2.0459,2.0042,1.9717,1.897,1.7869,1.7245,1.6167,1.4906,1.463,1.4366,1.4021,0.0,0.0,0.0,0.0,1.357,1.373,1.3978,1.4155,0.0,1.4514,0.0,0.0,0.0,0.0,0.0,0.0,0.0,0.0,0.0,0.0,1.4023,1.4352,1.4388,1.4274,1.4201,1.3701,1.2999,0.0,1.1647,1.1203,1.0748,0.0,0.0,0.0,0.0,0.9395,0.9416,0.9565,0.975,0.9953,0.9728,0.9277,0.8603,0.7694,0.669,0.5459,0.4469,0.3579,0.2771,0.2283,0.203,0.0,0.0,0.0,0.0,0.0,0.0,0.0,0.0,0.0,0.0,0.0,0.0,0.0,0.0,0.0,0.0,0.0,0.0,0.0,0.0,0.0,0.0,0.0,0.0,0.0,0.0,0.0,0.0,0.9143,0.9453,1.0027,1.051,1.0853,0.0,0.0,0.0,0.0,0.0,0.0,1.6656,1.6742,1.7177,1.8134,1.7781,1.8155,1.9349,1.9374,2.0033,2.1138,2.1236,2.0962,2.0419,1.9865,1.8759,1.728,1.6737,1.5624,1.4241,1.4383,1.4217,1.3831,1.3527,1.3386,1.3308,1.3429,1.3479,1.3554,1.3729,1.3863,1.399,1.4273,1.4157,1.3958,1.4261,0.0,0.0,0.0,0.0,1.2883,1.2831,1.303,1.3364,1.3696,1.3786,1.3786,1.3842,1.3701,1.3343,0.0,1.2114,1.1733,1.1241,0.0,0.0,0.0,0.0,0.8925,0.8792,0.8906,0.9135,0.9357,0.9028,0.8571,0.7933,0.708,0.6049,0.4878,0.3919,0.3044,0.2348,0.1874,0.1683,0.1753,0.0,0.0,0.0,0.0,0.0,0.0,0.0,0.0,0.0,0.0,0.0,0.0,0.0,0.0,0.0,0.0,0.0,0.0,0.0,0.0,0.0,0.0,0.0,0.0,0.0,0.0,0.0,0.0,0.0,1.0042,1.0565,0.0,0.0,0.0,0.0,1.3265,1.3961,1.4769,1.575,1.6113,1.6609,1.7156,1.6774,1.7121,1.8139,1.8025,1.8693,2.0369,2.0131,1.9881,1.9637,1.8472,1.7293,1.6103,1.5044,1.4163,1.359,1.3997,1.3825,1.3418,1.315,1.3126,1.3183,1.3192,1.3217,1.3254,1.3288,1.3518,1.3706,1.3646,1.3507,1.3391,1.3678,1.3346,0.0,0.0,1.2697,1.2509,1.2526,1.2697,1.2916,1.2926,1.2983,1.2983,1.2983,1.2967,1.2909,0.0,1.2572,1.2236,1.1732,0.0,1.0154,0.9812,0.9013,0.8479,0.8575,0.839,0.8411,0.881,0.8492,0.8092,0.7644,0.6611,0.5473,0.4296,0.3487,0.2581,0.1594,0.1477,0.1401,0.1436,0.1534,0.0,0.0,0.0,0.0,0.0,0.0,0.0,0.0,0.0,0.0,0.0,0.0,0.0,0.0,0.0,0.0,0.0,0.0,0.0,0.0,0.0,0.0,0.0,0.0,0.0,0.0,0.0,0.0,1.0057,1.0321,0.0,1.045,1.0926,1.1583,1.2504,1.3265,1.4084,1.5099,1.5255,1.5543,1.5997,1.5759,1.6074,1.6995,1.7359,1.796,1.8805,1.9121,1.8813,1.7926,1.7269,1.6159,1.4775,1.4139,1.3405,1.2528,1.2688,1.2702,1.2536,1.2345,1.238,1.253,1.2653,1.2866,1.3087,1.294,1.2972,1.3013,1.2937,1.2973,1.3095,1.2998,1.2896,1.2653,1.2177,1.2011,1.1822,1.1476,1.1491,1.1518,1.1473,1.1499,1.1499,1.1499,1.1603,1.1721,1.1536,1.2203,1.2566,1.1894,1.1145,1.038,0.9614,0.8879,0.8361,0.8138,0.8094,0.8079,0.8035,0.7895,0.7475,0.6715,0.5926,0.502,0.383,0.2985,0.2258,0.1669,0.1401,0.139,0.1583,0.1646,0.1884,0.0,0.0,0.0,0.0,0.0,0.0,0.0,0.0,0.0,0.0,0.0,0.0,0.0,0.0,0.0,0.0,0.0,0.0,0.0,0.0,0.0,0.0,0.0,0.0,0.0,0.0,1.0012,1.0059,0.9927,0.9789,0.9418,0.9824,1.0397,1.1132,1.1996,1.2816,1.3612,1.3847,1.4113,1.4434,1.432,1.4594,1.5361,1.5974,1.657,1.7153,1.7566,1.7283,1.6286,1.5761,1.4844,1.3672,1.3258,1.2641,1.1884,1.1801,1.17,1.1598,1.169,1.1842,1.2017,1.2004,1.2237,1.2582,1.2456,1.2409,1.2372,1.2288,1.2504,1.2674,1.2519,1.2478,1.234,1.1663,1.142,1.1263,1.0552,1.0291,1.0109,0.9995,0.9794,0.9625,0.9625,0.9855,0.9961,0.9857,1.1308,1.2308,1.158,1.1021,1.0352,0.9478,0.8848,0.8328,0.7938,0.7878,0.7743,0.7494,0.7394,0.6938,0.5963,0.5371,0.457,0.3358,0.2554,0.197,0.1569,0.1344,0.1341,0.1626,0.1784,0.2085,0.2559,0.0,0.0,0.0,0.0,0.0,0.0,0.0,0.0,0.0,0.0,0.0,0.0,0.0,0.0,0.0,0.0,0.0,0.0,0.0,0.0,0.0,0.0,0.0,1.0379,1.0321,1.022,0.9927,0.9363,0.8858,0.8358,0.8542,0.8769,0.9148,1.0105,1.0938,1.1422,1.2049,1.2325,1.2423,1.2439,1.2755,1.3314,1.3807,1.4464,1.5416,1.5416,1.5309,1.4887,1.4045,1.3421,1.2874,1.235,1.1976,1.1796,1.1352,1.0961,1.0665,1.1203,1.1587,1.1648,1.1247,1.138,1.1794,1.1788,1.1767,1.1692,1.1862,1.197,1.2046,1.2042,1.2042,1.1927,1.1347,1.1049,1.0747,0.9772,0.9203,0.8758,0.8484,0.7983,0.7537,0.7537,0.7655,0.7816,0.7889,0.9818,1.1265,1.0819,1.0476,1.0053,0.9442,0.8797,0.0,0.8048,0.7749,0.7497,0.7188,0.6942,0.6396,0.5448,0.4862,0.4051,0.2869,0.2218,0.1731,0.1335,0.1276,0.1332,0.1516,0.1985,0.2458,0.2908,0.0,0.0,0.0,0.0,0.0,0.0,0.0,0.0,0.0,0.0,0.0,0.0,0.0,0.0,0.0,0.0,0.0,0.0,0.0,0.0,0.0,0.0,1.0483,1.0361,1.0236,0.9958,0.9333,0.8366,0.758,0.7052,0.7057,0.7223,0.7776,0.8741,0.951,1.0001,1.0688,1.0857,1.0549,1.0969,1.1114,1.0979,1.2063,1.2831,1.3095,1.3822,1.3975,1.3583,1.3355,1.2961,1.2429,1.2203,1.1976,1.1733,1.1186,1.0706,1.0241,1.0203,1.0216,1.018,0.9782,1.0182,1.0853,1.1232,1.1463,1.1563,1.1756,1.1718,1.1491,1.1252,1.1013,1.0688,1.0152,0.9771,0.9283,0.8492,0.7971,0.7429,0.671,0.6262,0.5926,0.5708,0.5682,0.5813,0.5987,0.6996,0.8117,0.9236,0.9262,0.9104,0.8902,0.8302,0.0,0.7909,0.7483,0.7041,0.6645,0.6187,0.5584,0.4677,0.4244,0.3582,0.2592,0.2312,0.2038,0.173,0.1774,0.1846,0.2021,0.2335,0.2753,0.0,0.0,0.0,0.0,0.0,0.0,0.0,0.0,0.0,0.0,0.0,0.0,0.0,0.0,0.0,0.0,0.0,0.0,0.0,0.0,0.0,0.0,1.038,1.0665,1.0341,1.0075,0.9541,0.8447,0.7265,0.626,0.563,0.5554,0.5732,0.6042,0.7089,0.7911,0.8243,0.9008,0.9259,0.8806,0.9366,0.9478,0.9304,1.0348,1.0973,1.1171,1.2084,1.2417,1.2347,1.2501,1.2534,1.2369,1.2002,1.1712,1.1385,1.0463,0.9757,0.0,0.0,0.0,0.0,0.0,0.9002,0.9514,1.0222,1.0647,1.0996,1.1018,1.0852,1.0607,1.0243,0.9937,0.9556,0.9049,0.8628,0.814,0.7143,0.6574,0.6034,0.5212,0.4758,0.4367,0.4201,0.412,0.4148,0.4192,0.4694,0.0,0.6521,0.7371,0.7942,0.7948,0.7677,0.7491,0.7664,0.7181,0.6621,0.6097,0.5386,0.4598,0.388,0.348,0.0,0.0,0.0,0.2408,0.2115,0.2159,0.0,0.0,0.0,0.2942,0.3585,0.0,0.0,0.0,0.5931,0.6019,0.0,0.0,0.0,0.0,0.0,0.0,0.0,0.0,0.0,0.0,0.0,0.0,0.0,0.0,0.0,0.0,1.0529,1.0592,1.025,0.9813,0.8925,0.739,0.6043,0.4962,0.4252,0.43,0.4331,0.4337,0.563,0.6377,0.6519,0.0,0.0,0.0,0.0,0.7807,0.7718,0.856,0.912,0.9403,1.0269,1.0858,1.1104,1.1572,1.196,1.2175,1.1586,1.1089,1.0607,0.9416,0.8411,0.7597,0.8171,0.8132,0.7643,0.7712,0.7848,0.8107,0.891,0.0,0.0,0.9847,0.9698,0.9518,0.9089,0.872,0.8349,0.7744,0.7417,0.6946,0.5789,0.5178,0.464,0.4002,0.3426,0.2977,0.297,0.2879,0.2749,0.2563,0.2874,0.319,0.334,0.5182,0.6609,0.6772,0.6902,0.7056,0.7297,0.6815,0.6197,0.5564,0.0,0.0,0.3056,0.2755,0.254,0.2492,0.2779,0.2817,0.2561,0.2566,0.2443,0.2228,0.2558,0.3131,0.3819,0.4673,0.5388,0.6011,0.6355,0.6307,0.0,0.0,0.0,0.0,0.0,0.0,0.0,0.0,0.0,0.0,0.0,0.0,0.0,0.0,0.0,0.9946,1.0543,1.0606,0.9648,0.8995,0.8096,0.6732,0.5416,0.4308,0.3488,0.3738,0.3998,0.4036,0.5315,0.6101,0.6114,0.6669,0.6543,0.5801,0.6221,0.6135,0.5379,0.6622,0.7374,0.7629,0.0,0.0,0.9778,1.0483,1.0719,1.0472,1.0527,1.0113,0.9409,0.8554,0.7106,0.5503,0.5902,0.5792,0.5441,0.578,0.6449,0.7305,0.7923,0.8525,0.8976,0.883,0.8579,0.8113,0.725,0.67,0.0,0.5661,0.5236,0.4811,0.4377,0.391,0.3442,0.3045,0.2689,0.2395,0.2138,0.1846,0.1613,0.1596,0.1662,0.178,0.2036,0.3429,0.4897,0.5839,0.5881,0.5998,0.6601,0.5997,0.5286,0.4856,0.3763,0.297,0.2563,0.2416,0.2414,0.2594,0.3397,0.374,0.3522,0.3532,0.3489,0.3434,0.3701,0.4026,0.4487,0.5226,0.5678,0.593,0.631,0.6251,0.0,0.0,0.0,0.0,0.0,0.0,0.0,0.0,0.0,0.0,0.0,0.7638,0.8133,0.0,0.8923,0.9853,1.0291,1.0285,0.9782,0.9134,0.8053,0.6304,0.5086,0.4209,0.3594,0.4037,0.4319,0.4263,0.5548,0.625,0.6084,0.6451,0.6305,0.5468,0.5635,0.5383,0.471,0.5766,0.6214,0.6145,0.7444,0.8072,0.8212,0.8949,0.9392,0.9382,0.9155,0.8605,0.7829,0.6526,0.5152,0.3879,0.3965,0.4061,0.4101,0.4641,0.5312,0.5973,0.666,0.714,0.7387,0.7197,0.6763,0.6274,0.56,0.517,0.4803,0.4313,0.4046,0.3774,0.308,0.2697,0.2429,0.1908,0.1725,0.1545,0.1407,0.1234,0.1063,0.0887,0.0836,0.0895,0.1054,0.1672,0.2687,0.4196,0.4756,0.5172,0.5791,0.5458,0.492,0.4264,0.3205,0.2297,0.1846,0.2094,0.2539,0.2999,0.3759,0.4177,0.4176,0.4221,0.4223,0.4272,0.4317,0.4526,0.4848,0.5168,0.5378,0.5572,0.5558,0.5456,0.0,0.0,0.0,0.0,0.0,0.0,0.0,0.7756,0.7572,0.7386,0.7067,0.7068,0.7695,0.7947,0.8398,0.9574,0.9911,1.009,1.0188,0.9644,0.852,0.6677,0.5569,0.4786,0.4407,0.4891,0.52,0.5387,0.6435,0.697,0.6638,0.6804,0.6555,0.5719,0.5635,0.5383,0.4877,0.5581,0.5716,0.5209,0.6164,0.6652,0.6539,0.7344,0.7928,0.8132,0.7557,0.6929,0.6209,0.449,0.3403,0.2799,0.2626,0.2794,0.3095,0.3769,0.4238,0.4705,0.5309,0.5608,0.5731,0.5406,0.4984,0.4559,0.4129,0.3821,0.3575,0.3208,0.3086,0.2893,0.1946,0.1698,0.1565,0.1052,0.0929,0.0867,0.0795,0.0793,0.068,0.0396,0.034,0.034,0.034,0.034,0.0904,0.258,0.3529,0.4234,0.4722,0.4773,0.4472,0.3593,0.2569,0.1701,0.115,0.1777,0.2493,0.3243,0.3783,0.4236,0.4532,0.4611,0.4699,0.4747,0.468,0.4718,0.4908,0.476,0.4712,0.4716,0.43,0.4335,0.5626,0.6893,0.8251,0.8665,0.867,0.8518,0.0,0.7931,0.75,0.7076,0.6577,0.6423,0.6756,0.7083,0.7604,0.8562,0.955,1.0188,1.0201,1.0117,0.9756,0.9025,0.7531,0.6492,0.6225,0.666,0.7135,0.7692,0.8217,0.8476,0.8393,0.8144,0.7558,0.6553,0.6551,0.6132,0.5294,0.5792,0.5762,0.5293,0.5362,0.5378,0.535,0.6138,0.6338,0.5955,0.5431,0.5082,0.4823,0.3525,0.2908,0.273,0.2418,0.2249,0.2357,0.2761,0.3298,0.3902,0.4037,0.416,0.4254,0.3931,0.3728,0.3516,0.2899,0.2714,0.2529,0.1914,0.1729,0.1605,0.1232,0.1109,0.1042,0.0904,0.09,0.0837,0.0529,0.0469,0.0352,0.0117,0.0059,0.0059,0.0059,0.0059,0.0464,0.1746,0.2243,0.2689,0.324,0.3352,0.311,0.2458,0.1799,0.1245,0.0851,0.1375,0.1953,0.2588,0.3318,0.3893,0.421,0.466,0.4875,0.4977,0.4847,0.4658,0.446,0.4203,0.3751,0.3052,0.251,0.2984,0.6071,0.7342,0.8472,0.9154,0.9153,0.8879,0.8762,0.7987,0.7263,0.6812,0.611,0.5789,0.6477,0.6773,0.736,0.0,0.9596,1.0255,1.08,1.0736,1.0589,1.0306,0.9619,0.882,0.7848,0.8286,0.8736,0.9045,0.947,0.9582,0.9147,0.8731,0.806,0.7141,0.6808,0.6556,0.6137,0.6053,0.5703,0.4927,0.4894,0.451,0.4034,0.4808,0.52,0.507,0.4486,0.4105,0.3934,0.2949,0.2485,0.2451,0.2281,0.2181,0.2222,0.2559,0.2895,0.3161,0.3401,0.3346,0.322,0.3065,0.2825,0.2593,0.2284,0.2099,0.1851,0.1606,0.1359,0.1111,0.0803,0.0679,0.0677,0.0424,0.0362,0.036,0.0177,0.0177,0.0118,0.0,0.0,0.0,0.0,0.0,0.0176,0.0694,0.1269,0.1845,0.2306,0.2479,0.2293,0.1523,0.0893,0.0551,0.0542,0.0911,0.1385,0.1918,0.261,0.3195,0.3672,0.4016,0.4292,0.4451,0.4111,0.387,0.3679,0.282,0.2216,0.1864,0.0857,0.0702,0.658,0.7808,0.8722,0.965,0.9773,0.9527,0.9271,0.84,0.7508,0.7035,0.6123,0.5698,0.6485,0.6786,0.7473,0.8937,0.9815,1.0523,1.1333,1.1379,1.1362,1.1321,1.1227,1.0694,0.9619,0.9798,1.0164,1.0446,1.068,1.0511,0.9772,0.9214,0.8395,0.7396,0.7061,0.6811,0.6558,0.6221,0.5632,0.4709,0.4241,0.3781,0.325,0.3911,0.4362,0.4618,0.3997,0.3564,0.3262,0.2586,0.2268,0.2231,0.2208,0.2181,0.2222,0.2492,0.2553,0.2541,0.2779,0.267,0.2432,0.2406,0.225,0.1977,0.1915,0.1667,0.1482,0.1297,0.105,0.0803,0.0432,0.037,0.0308,0.0061,0.0,0.0,0.0,0.0,0.0,0.0,0.0,0.0,0.0,0.0,0.0,0.0,0.0537,0.1069,0.1355,0.1648,0.1582,0.0985,0.0458,0.0226,0.0392,0.0495,0.0762,0.1252,0.1788,0.2323,0.2862,0.3118,0.3348,0.3597,0.3011,0.2617,0.2417,0.1159,0.0454,0.0302,-0.0907,-0.1511,0.7123,0.8263,0.9309,1.0379,1.0644,1.0483,1.0172,0.9372,0.8532,0.7828,0.6895,0.6404,0.6847,0.7286,0.7896,0.882,1.014,1.1183,1.1785,1.2073,1.2233,1.2088,1.2064,1.2006,0.0,1.134,1.1407,1.2022,1.1879,1.1373,1.0478,0.9755,0.881,0.7478,0.7394,0.6975,0.6137,0.6051,0.5548,0.4709,0.3409,0.296,0.333,0.3608,0.3907,0.4312,0.3814,0.3372,0.2862,0.2505,0.2256,0.2202,0.22,0.2181,0.2222,0.2222,0.2203,0.211,0.211,0.207,0.202,0.2019,0.2,0.1915,0.1606,0.1482,0.1359,0.0741,0.0494,0.0432,0.0123,0.0,0.0,0.0,0.0,0.0,0.0,0.0,0.0,0.0,0.0,0.0,0.0,0.0,0.0,0.0,0.0,0.0122,0.0414,0.0707,0.0942,0.0883,0.0647,0.047,0.047,0.0232,0.0115,0.0401,0.0734,0.1232,0.1848,0.204,0.2166,0.2232,0.162,0.1027,0.0504,-0.0605,-0.1412,-0.1916,-0.272,-0.3274,0.7646,0.8793,0.983,1.104,1.118,1.0925,1.0556,0.988,0.9113,0.8417,0.7704,0.7334,0.7491,0.8009,0.8779,0.9888,1.103,1.196,1.2491,1.2619,1.2529,1.2152,1.1972,0.0,0.0,0.0,0.0,1.1937,1.0937,0.9978,0.9228,0.8173,0.7138,0.6134,0.5797,0.546,0.5208,0.4537,0.3937,0.3327,0.2286,0.2179,0.2811,0.289,0.3141,0.3482,0.2989,0.2563,0.2071,0.1701,0.1467,0.1442,0.1497,0.1487,0.1481,0.1481,0.1401,0.1448,0.1955,0.2065,0.2042,0.2003,0.186,0.1667,0.1544,0.1173,0.0803,0.0556,0.037,0.0123,0.0,0.0,0.0,0.0,0.0,0.0,0.0,0.0,0.0,0.0,0.0,0.0,0.0,0.0,0.0,0.0,0.0,0.0062,0.0122,0.0425,0.0605,0.0659,0.0539,0.0477,0.0472,0.0176,0.0058,0.0117,0.0403,0.0684,0.0855,0.0954,0.0882,0.0758,0.0,-0.0575,-0.0975,-0.218,-0.2871,-0.3074,-0.4079,-0.4583,0.8621,0.9628,1.054,1.1576,1.174,1.1485,1.1169,1.0497,0.9826,0.9185,0.861,0.8192,0.8175,0.8651,0.9417,1.0564,1.1541,1.2303,1.2855,1.297,1.28,1.2381,1.2118,1.1811,0.0,0.0,0.0,1.1259,1.0196,0.9118,0.8032,0.6829,0.5797,0.4707,0.4203,0.3866,0.3698,0.3194,0.2587,0.1973,0.1533,0.1592,0.2129,0.2242,0.236,0.2631,0.2289,0.1883,0.1489,0.119,0.1105,0.109,0.1081,0.1077,0.1077,0.1077,0.1071,0.1126,0.1568,0.1679,0.1723,0.1629,0.1489,0.1297,0.1173,0.0864,0.0494,0.037,0.0185,0.0,0.0,0.0,0.0,0.0,0.0,0.0,0.0,0.0,0.0,0.0,0.0,0.0,0.0,0.0,0.0,0.0,0.0,0.0,0.0,0.037,0.0677,0.067,0.0669,0.0666,0.066,0.0238,0.0,0.0,0.0176,0.0231,0.0115,-0.0114,-0.0392,-0.0765,-0.1675,-0.2282,-0.2592,-0.3685,-0.421,-0.4182,-0.5087,-0.5491,0.9863,1.0687,1.1395,1.2127,1.2196,1.204,1.1776,1.1215,1.0626,1.0109,0.9422,0.8904,0.8883,0.9271,0.9836,1.0852,1.1699,1.2459,1.3009,1.312,1.3035,0.0,0.0,0.0,0.0,0.0,0.0,1.0144,0.0,0.8756,0.6987,0.5811,0.4623,0.3366,0.2859,0.2354,0.1933,0.1931,0.1495,0.065,0.1044,0.1263,0.1311,0.1599,0.173,0.1707,0.1663,0.1419,0.1051,0.1037,0.1023,0.1077,0.1077,0.1077,0.1077,0.1077,0.1077,0.1008,0.0994,0.0972,0.1013,0.1012,0.1001,0.0927,0.0618,0.0494,0.0432,0.0062,0.0,0.0,0.0,0.0,0.0,0.0,0.0,0.0,0.0,0.0,0.0,0.0,0.0,0.0,0.0,0.0,0.0,0.0,0.0,0.0,0.0,0.0556,0.0988,0.0988,0.0988,0.0988,0.0988,0.0365,0.0,0.0,0.0,-0.0176,-0.0461,-0.1035,-0.1643,-0.2246,-0.3331,-0.4027,-0.421,-0.5035,-0.5348,-0.5205,-0.5758,-0.6007,1.0975,1.1648,1.2252,1.2481,1.2505,1.2284,1.1734,1.1352,1.0916,1.0133,0.9699,0.9321,0.8938,0.9493,1.0169,1.0809,1.2,1.2907,1.3155,1.3542,0.0,1.2804,1.2664,1.2261,1.1454,1.1041,0.0,0.0,0.8034,0.6859,0.5256,0.4004,0.2943,0.1851,0.1419,0.1164,0.0998,0.0654,0.0404,0.0161,0.0317,0.047,0.0771,0.0838,0.0903,0.0891,0.0868,0.0639,0.028,0.0276,0.0273,0.0269,0.0269,0.0269,0.0269,0.0269,0.0269,0.0269,0.0268,0.0596,0.0976,0.103,0.0826,0.0628,0.0502,0.0312,0.0123,0.0,0.0,0.0,0.0,0.0,0.0,0.0,0.0,0.0,0.0,0.0,0.0,0.0,0.0,0.0,0.0,0.0,0.0,0.0,0.0,0.0,0.0,0.037,0.0617,0.0617,0.0617,0.0617,0.0617,0.0246,0.0,0.0,-0.0242,-0.0595,-0.1053,-0.1676,-0.2446,-0.3232,-0.3845,-0.4348,-0.4634,-0.5214,-0.5433,-0.5461,-0.6036,-0.6251,1.2007,1.2467,1.2817,1.2905,1.2613,1.2169,1.164,1.108,1.05,0.9883,0.9415,0.9094,0.8951,0.9391,1.0091,1.1073,1.2212,1.3086,1.3368,1.3893,1.3938,1.3189,1.2878,0.0,1.1468,1.075,0.9549,0.0,0.6965,0.6027,0.4293,0.3092,0.2015,0.1086,0.0581,0.0413,0.0411,0.0161,0.0,0.0,0.0,0.0156,0.0306,0.0304,0.0374,0.0365,0.0,0.0211,0.0,0.0,0.0,0.0,0.0,0.0,0.0,0.0,0.0,0.0,0.0,0.0268,0.0531,0.0589,0.0452,0.0255,0.0255,0.0126,0.0,0.0,0.0,0.0,0.0,0.0,0.0,0.0,0.0,0.0,0.0,0.0,0.0,0.0,0.0,0.0,0.0,0.0,0.0,0.0,0.0,0.0,0.0,0.0311,0.0494,0.0494,0.0494,0.0494,0.0494,0.0185,0.0,0.0,-0.0306,-0.0726,-0.1309,-0.2225,-0.2996,-0.3628,-0.4399,-0.4782,-0.4749,-0.5299,-0.5521,-0.5532,-0.6119,-0.635,1.3148,1.3284,1.3299,1.3322,1.2674,1.1995,1.1392,1.0592,0.9822,0.9334,0.8842,0.8553,0.8768,0.9147,0.9898,1.1269,1.223,1.2955,1.348,1.4012,1.4077,1.3563,1.3124,1.2415,1.1357,1.0247,0.8697,0.662,0.6206,0.538,0.3728,0.2506,0.1419,0.066,0.0247,0.0,0.0,0.0,0.0,0.0,0.0,0.0,0.0,0.0,0.0,0.0,0.0,0.0,0.0,0.0,0.0,0.0,0.0,0.0,0.0,0.0,0.0,0.0,0.0,0.0,0.0,0.0,0.0,0.0,0.0,0.0,0.0,0.0,0.0,0.0,0.0,0.0,0.0,0.0,0.0,0.0,0.0,0.0,0.0,0.0,0.0,0.0,0.0,0.0,0.0,0.0,0.0,0.0,0.0,0.0253,0.0435,0.0435,0.0434,0.0434,0.0434,0.0185,0.0,0.0,-0.037,-0.0858,-0.1448,-0.2559,-0.3337,-0.368,-0.4641,-0.4958,-0.4602,-0.5202,-0.5433,-0.5459,-0.6105,-0.6369,1.433,1.434,1.4033,1.3728,1.2831,1.1886,1.0863,1.0053,0.93,0.8604,0.8383,0.8283,0.8332,0.9101,0.9973,1.066,1.1717,1.2523,1.2763,1.3318,1.3503,1.2902,1.2636,1.1951,1.0551,0.9251,0.0,0.0,0.4776,0.3436,0.2348,0.1416,0.0658,0.0161,0.008,0.0,0.0,0.0,0.0,0.0,0.0,0.0,0.0,0.0,0.0,0.0,0.0,0.0,0.0,0.0,0.0,0.0,0.0,0.0,0.0,0.0,0.0,0.0,0.0,0.0,0.0,0.0,0.0,0.0,0.0,0.0,0.0,0.0,0.0,0.0,0.0,0.0,0.0,0.0,0.0,0.0,0.0,0.0,0.0,0.0,0.0,0.0,0.0,0.0,0.0,0.0,0.0,0.0,0.0,0.0064,0.0064,0.0064,0.0063,0.0063,0.0063,0.0062,0.0,0.0,-0.0556,-0.1165,-0.1689,-0.2464,-0.3079,-0.3623,-0.3838,-0.3972,-0.4131,-0.4517,-0.4788,-0.5052,-0.5886,-0.6282,1.4827,1.47,1.4385,1.3913,1.2884,1.1667,1.0619,0.9744,0.896,0.8289,0.8108,0.8083,0.8226,0.9011,0.9834,1.0355,1.1194,1.185,1.2252,1.2802,1.3056,1.2774,1.2131,1.1149,0.9806,0.813,0.6456,0.4794,0.3447,0.2517,0.2002,0.0903,0.0243,0.0,0.0,0.0,0.0,0.0,0.0,0.0,0.0,0.0,0.0,0.0,0.0,0.0,0.0,0.0,0.0,0.0,0.0,0.0,0.0,0.0,0.0,0.0,0.0,0.0,0.0202,0.0269,0.0269,0.0471,0.0335,0.0,0.0,0.0,0.0,0.0,0.0,0.0,0.0,0.0,0.0,0.0,0.0,0.0,0.0,0.0,0.0,0.0,0.0,0.0,0.0,0.0,0.0,0.0,0.0,0.0,0.0,0.0,0.0,0.0,0.0,0.0,0.0,0.0,0.0,0.0,-0.0496,-0.0923,-0.1343,-0.1937,-0.2393,-0.2711,-0.298,-0.3175,-0.335,-0.3972,-0.4518,-0.4931,-0.5882,-0.6357,1.5232,1.5164,1.4707,1.4141,1.2964,1.1528,1.0382,0.9439,0.8625,0.8021,0.7875,0.7969,0.8234,0.8825,0.9486,0.9954,1.0427,1.0933,1.1388,1.1878,1.2164,1.2049,1.121,0.0,0.8725,0.6863,0.0,0.3353,0.2336,0.166,0.1566,0.0566,0.0,0.0,0.0,0.0,0.0,0.0,0.0,0.0,0.0,0.0,0.0,0.0,0.0,0.0,0.0,0.0,0.0,0.0,0.0,0.0,0.0,0.0067,0.0135,0.0135,0.0202,0.0404,0.0673,0.0808,0.1009,0.1346,0.0875,0.0269,0.0269,0.02,0.0132,0.0132,0.0066,0.0,0.0,0.0,0.0,0.0,0.0,0.0,0.0,0.0,0.0,0.0,0.0,0.0,0.0,0.0,0.0,0.0,0.0,0.0,0.0,0.0,0.0,0.0,0.0,0.0,0.0,0.0,0.0,0.0,-0.0312,-0.062,-0.0865,-0.1341,-0.1632,-0.1687,-0.2143,-0.2524,-0.2713,-0.3692,-0.4472,-0.5094,-0.6055,-0.6551,1.5937,1.5829,1.5294,1.4543,1.3179,1.1674,1.0002,0.8977,0.816,0.7603,0.7708,0.7945,0.8098,0.8463,0.8852,0.9169,0.9286,0.9399,0.9503,1.0007,1.0251,0.9951,0.0,0.0,0.727,0.5472,0.3898,0.2821,0.1545,0.0645,0.0244,0.0081,0.0,0.0,0.0,0.0,0.0,0.0,0.0,0.0,0.0,0.0,0.0,0.0,0.0,0.0,0.0,0.0,0.0,0.0,0.0,0.0,0.0,0.0202,0.0471,0.0471,0.0875,0.1481,0.1481,0.1951,0.2488,0.2555,0.1816,0.101,0.101,0.074,0.047,0.047,0.0201,0.0,0.0,0.0,0.0,0.0,0.0,0.0,0.0,0.0,0.0,0.0,0.0,0.0,0.0,0.0,0.0,0.0,0.0,0.0,0.0,0.0,0.0,0.0,0.0,0.0,0.0,0.0,0.0,0.0,-0.0315,-0.0501,-0.0556,-0.0863,-0.1041,-0.0965,-0.1325,-0.1911,-0.2818,-0.3815,-0.475,-0.562,-0.6609,-0.6962,1.5357,1.5337,1.4779,1.4094,1.2706,1.1212,0.9804,0.8849,0.8149,0.7542,0.7524,0.7657,0.7722,0.7947,0.8135,0.808,0.8053,0.8003,0.8066,0.8439,0.8579,0.8264,0.7756,0.6852,0.0,0.0,0.2756,0.1573,0.0729,0.016,0.0,0.0,0.0,0.0,0.0,0.0,0.0,0.0,0.0,0.0,0.0,0.0,0.0,0.0,0.0,0.0,0.0,0.0,0.0,0.0,0.0,0.0,0.0202,0.0538,0.0942,0.1345,0.1816,0.2354,0.2759,0.3228,0.3697,0.3899,0.3697,0.3161,0.2287,0.1816,0.1412,0.101,0.0606,0.0269,0.0067,0.0,0.0,0.0,0.0,0.0,0.0,0.0,-0.0067,-0.0269,-0.0269,-0.0404,-0.0606,-0.0673,-0.0606,-0.0337,-0.0269,-0.0202,0.0,0.0,0.0,0.0,0.0,0.0,0.0,0.0,0.0,0.0,-0.0128,-0.0189,-0.0188,-0.031,-0.0369,-0.0367,-0.0857,-0.1517,-0.2268,-0.3401,-0.457,-0.5645,-0.6462,-0.693,1.4608,1.4563,1.414,1.3492,1.2264,1.0806,0.9562,0.8672,0.7977,0.7417,0.7403,0.7507,0.7507,0.7544,0.7488,0.7127,0.6901,0.6688,0.6522,0.6772,0.6857,0.6546,0.0,0.5166,0.3932,0.2765,0.1641,0.0576,0.0161,0.0,0.0,0.0,0.0,0.0,0.0,0.0,0.0,0.0,0.0,0.0,0.0,0.0,0.0,0.0,0.0,0.0,0.0,0.0,0.0,0.0,0.0,0.0,0.0337,0.0875,0.148,0.2219,0.2891,0.3564,0.4237,0.4705,0.5106,0.5376,0.5443,0.5242,0.4033,0.3025,0.2218,0.1481,0.0808,0.0269,0.0067,0.0,0.0,0.0,0.0,0.0,0.0,-0.0067,-0.0269,-0.0606,-0.0875,-0.1144,-0.148,-0.1548,-0.148,-0.1211,-0.0942,-0.074,-0.0471,-0.0269,-0.0135,-0.0135,-0.0067,0.0,0.0,0.0,0.0,0.0,0.0,0.0,0.0,0.0,0.0,0.0,-0.0556,-0.1228,-0.1941,-0.3213,-0.44,-0.5544,-0.6437,-0.7011,1.3721,1.3885,1.3695,1.299,1.1816,1.0535,0.9204,0.836,0.7689,0.7189,0.7326,0.7507,0.7507,0.7279,0.6927,0.6415,0.6037,0.5516,0.4652,0.48,0.4945,0.4632,0.4078,0.3592,0.3212,0.1667,0.0482,0.0081,0.0,0.0,0.0,0.0,0.0,0.0,0.0,0.0,0.0,0.0,0.0,0.0,0.0,0.0,0.0,0.0,0.0,0.0,0.0,0.0,0.0,0.0,0.0,0.0,0.0337,0.1211,0.2286,0.2959,0.4102,0.5446,0.578,0.638,0.6985,0.6985,0.6985,0.6851,0.6113,0.4367,0.2555,0.1817,0.0808,0.0,0.0,0.0,0.0,0.0,0.0,0.0,0.0,-0.0269,-0.0606,-0.101,-0.1682,-0.2286,-0.2622,-0.269,-0.269,-0.269,-0.2086,-0.1616,-0.1616,-0.0942,-0.0471,-0.0471,-0.0202,0.0,0.0,0.0,0.0,0.0,0.0,0.0,0.0,0.0,0.0,0.0,-0.0309,-0.0987,-0.1973,-0.3266,-0.4435,-0.5418,-0.6768,-0.7444,1.2175,1.2208,1.1992,1.1512,1.0514,0.9496,0.8692,0.8058,0.7567,0.7169,0.7187,0.7231,0.7231,0.6874,0.6427,0.5897,0.5312,0.4634,0.3923,0.358,0.3306,0.2873,0.2062,0.152,0.0,0.0,0.0159,0.0,0.0,0.0,0.0,0.0,0.0,0.0,0.0,0.0,0.0,0.0,0.0,0.0,0.0,0.0,0.0,0.0,0.0,0.0,0.0,0.0,0.0,0.0,0.0,0.0067,0.0673,0.1413,0.2355,0.3497,0.4705,0.5847,0.6447,0.7118,0.7722,0.7457,0.7187,0.6851,0.5847,0.4572,0.3094,0.1346,0.0471,0.0,0.0,0.0,0.0,0.0,-0.0202,-0.0404,-0.0673,-0.1211,-0.1816,-0.2422,-0.316,-0.3763,-0.41,-0.4167,-0.4033,-0.383,-0.3161,-0.2556,-0.2085,-0.1346,-0.0808,-0.0538,-0.0202,0.0,0.0,0.0,0.0,0.0,0.0,0.0,0.0,0.0,0.0,0.0,-0.0315,-0.0752,-0.1315,-0.2665,-0.4252,-0.6094,-0.688,-0.737,1.0638,1.0739,1.0519,1.0236,0.9465,0.8746,0.8208,0.7794,0.7444,0.7146,0.7095,0.7095,0.7095,0.6694,0.6203,0.5709,0.4879,0.4123,0.3407,0.2739,0.2133,0.153,0.0933,0.0,0.0,0.0158,0.0,0.0,0.0,0.0,0.0,0.0,0.0,0.0,0.0,0.0,0.0,0.0,0.0,0.0,0.0,0.0,0.0,0.0,0.0,0.0,0.0,0.0,0.0,0.0,0.0,0.0067,0.0673,0.1413,0.2355,0.3629,0.4838,0.5979,0.6717,0.7388,0.7791,0.7457,0.6717,0.5776,0.457,0.3631,0.2624,0.0942,0.0135,-0.0202,-0.0202,-0.0269,-0.0471,-0.0606,-0.074,-0.1077,-0.1615,-0.2152,-0.2824,-0.3631,-0.4368,-0.5039,-0.5577,-0.5512,-0.5377,-0.5175,-0.4235,-0.3431,-0.2891,-0.1884,-0.1144,-0.074,-0.0269,0.0,0.0,0.0,0.0,0.0,0.0,0.0,0.0,0.0,-0.0065,-0.0194,-0.0384,-0.0698,-0.1198,-0.2608,-0.4375,-0.6403,-0.6887,-0.7282,0.0,0.9338,0.9356,0.9162,0.8685,0.813,0.7845,0.756,0.0,0.7125,0.7095,0.7095,0.7095,0.6707,0.6259,0.5712,0.4747,0.3835,0.3084,0.2293,0.1434,0.0,0.0443,0.0,0.0,0.0,0.0,0.0,0.0,0.0,0.0,0.0,0.0,0.0,0.0,0.0,0.0,0.0,0.0,0.0,0.0,0.0,0.0,0.0,0.0,0.0,0.0,0.0,0.0,0.0,0.0,0.0,0.0337,0.1144,0.2218,0.3359,0.4567,0.5845,0.6583,0.7054,0.7257,0.6918,0.5575,0.3897,0.2554,0.1884,0.1414,0.0673,-0.0067,-0.0539,-0.0607,-0.0944,-0.1281,-0.1618,-0.1751,-0.1951,-0.269,-0.316,-0.3698,-0.4772,-0.5577,-0.6246,-0.6918,-0.6786,-0.6587,-0.652,-0.5247,-0.4172,-0.3835,-0.249,-0.1481,-0.1077,-0.0404,0.0,0.0,0.0,0.0,0.0,0.0,0.0,0.0,0.0,-0.0194,-0.0518,-0.0582,-0.0961,-0.1702,-0.3229,-0.4803,-0.6403,-0.6714,-0.7208,0.728,0.0,0.8322,0.8153,0.7849,0.761,0.0,0.7329,0.7139,0.7102,0.7095,0.7095,0.7095,0.6786,0.6365,0.5722,0.4903,0.3998,0.3148,0.1905,0.0,0.0213,0.0146,0.0075,0.0,0.0,0.0,0.0,0.0,0.0,0.0,0.0,0.0,0.0,0.0,0.0,0.0,0.0,0.0,0.0,0.0,0.0,0.0,0.0,0.0,0.0,0.0,0.0,0.0,0.0,0.0,0.0,0.0337,0.0875,0.148,0.2555,0.3495,0.4366,0.5106,0.5577,0.5774,0.4835,0.3897,0.2891,0.1682,0.1279,0.101,0.0,-0.0611,-0.1163,-0.1708,-0.2118,-0.2528,-0.2868,-0.3117,-0.3498,-0.4168,-0.4838,-0.551,-0.6313,-0.7051,-0.7522,-0.739,-0.7323,-0.7125,-0.6587,-0.5446,-0.4371,-0.343,-0.2355,-0.1346,-0.074,-0.0269,0.0,0.0,0.0,0.0,0.0,0.0,0.0,0.0,-0.0267,-0.0533,-0.0933,-0.1695,-0.2559,-0.3468,-0.4036,-0.4989,-0.6403,-0.6714,-0.7208,0.6681,0.7076,0.749,0.7387,0.7336,0.7265,0.7265,0.7156,0.7095,0.7095,0.7095,0.7074,0.7055,0.6814,0.6441,0.6061,0.5196,0.4095,0.2634,0.157,0.0677,0.0071,0.0,0.0,0.0,0.0,0.0,0.0,0.0,0.0,0.0,0.0,0.0,0.0,0.0,0.0,0.0,0.0,0.0,0.0,0.0,0.0,0.0,0.0,0.0,0.0,0.0,0.0,0.0,0.0,0.0,0.0,0.0202,0.0471,0.0942,0.1682,0.242,0.3158,0.363,0.3964,0.4031,0.3292,0.2554,0.1816,0.1077,0.0473,-0.0068,-0.068,-0.1366,-0.2132,-0.2904,-0.3464,-0.401,-0.4534,-0.4775,-0.5014,-0.5653,-0.6113,-0.6648,-0.7388,-0.7856,-0.8058,-0.7791,-0.7524,-0.7054,-0.6317,-0.5176,-0.4035,-0.3094,-0.2019,-0.1144,-0.0538,-0.0202,0.0,0.0,0.0,0.0,0.0,0.0,0.0,0.0,-0.0471,-0.1278,-0.2286,-0.3137,-0.3913,-0.4772,-0.4981,-0.5604,-0.6646,-0.6957,-0.7355,0.6624,0.6776,0.6862,0.6906,0.7007,0.7095,0.7095,0.7095,0.7095,0.7095,0.7098,0.7057,0.7028,0.6768,0.6493,0.636,0.5401,0.3975,0.2089,0.132,0.0764,0.0072,0.0,0.0,0.0,0.0,0.0,0.0,0.0,0.0,0.0,0.0,0.0,0.0,0.0,0.0,0.0,0.0,0.0,0.0,0.0,0.0,0.0,0.0,0.0,0.0,0.0,0.0,0.0,0.0,0.0,0.0,0.0,0.0202,0.0471,0.0875,0.1413,0.2017,0.2354,0.2488,0.2421,0.2085,0.1547,0.0942,0.0471,-0.0408,-0.1307,-0.1516,-0.2277,-0.3254,-0.413,-0.4914,-0.5665,-0.6212,-0.632,-0.6491,-0.7074,-0.7185,-0.7452,-0.8123,-0.8325,-0.8259,-0.8125,-0.7522,-0.6782,-0.5845,-0.464,-0.3498,-0.2622,-0.1682,-0.0942,-0.0471,-0.0202,0.0,-0.0067,-0.0067,-0.0135,-0.0135,-0.0135,-0.0202,-0.0404,-0.1144,-0.2354,-0.4097,-0.4648,-0.5224,-0.5853,-0.6008,-0.6414,-0.7011,-0.7261,-0.7566,0.6508,0.662,0.6797,0.7001,0.7082,0.7095,0.7095,0.7095,0.7095,0.7095,0.6969,0.6882,0.6985,0.6593,0.6247,0.6146,0.4843,0.3442,0.0,0.0,0.0767,0.0072,0.0,0.0,0.0,0.0,0.0,0.0,0.0,0.0,0.0,0.0,0.0,0.0,0.0,0.0,0.0,0.0,0.0,0.0,0.0,0.0,0.0,0.0,0.0,0.0,0.0,0.0,0.0,0.0,0.0,0.0,0.0,0.0,0.0135,0.0471,0.0673,0.0807,0.1211,0.1346,0.1279,0.0875,0.0673,0.0471,-0.0135,-0.0952,-0.186,-0.2856,-0.3731,-0.4684,-0.576,-0.6544,-0.7158,-0.7485,-0.7465,-0.7512,-0.788,-0.8123,-0.8454,-0.8851,-0.9189,-0.9195,-0.8259,-0.772,-0.6846,-0.5242,-0.4304,-0.3296,-0.1952,-0.1346,-0.0808,-0.0135,0.0,-0.0135,-0.0404,-0.0404,-0.0538,-0.0942,-0.0606,-0.1009,-0.2219,-0.3293,-0.4367,-0.5577,-0.6211,-0.671,-0.6949,-0.6958,-0.7041,-0.7324,-0.7385,-0.7566,0.6474,0.6583,0.6753,0.6927,0.7041,0.7119,0.7248,0.7265,0.7243,0.7184,0.7063,0.6971,0.6832,0.654,0.6187,0.5608,0.4399,0.3163,0.2099,0.1224,0.0561,0.0,0.0,0.0,0.0,0.0,0.0,0.0,0.0,0.0,0.0,0.0,0.0,0.0,0.0,0.0,0.0,0.0,0.0,0.0,0.0,0.0,0.0,0.0,0.0,0.0,0.0,0.0,0.0,0.0,0.0,0.0,0.0,0.0,0.0,0.0202,0.0202,0.0269,0.0471,0.0538,0.0471,0.0269,0.0202,0.0067,-0.0606,-0.1495,-0.2617,-0.4047,-0.4807,-0.5506,-0.648,-0.7284,-0.7748,-0.7802,-0.7795,-0.7785,-0.8027,-0.8192,-0.8454,-0.8787,-0.8987,-0.8792,-0.7925,-0.7321,-0.638,-0.4771,-0.3765,-0.2825,-0.175,-0.1144,-0.074,-0.0606,-0.0404,-0.0404,-0.0808,-0.101,-0.1144,-0.1346,-0.1413,-0.2085,-0.3495,-0.4434,-0.5506,-0.6713,-0.7217,-0.7601,-0.7878,-0.7701,-0.7713,-0.7784,-0.772,-0.7627,0.6474,0.6583,0.6736,0.6849,0.7018,0.7234,0.739,0.7451,0.7469,0.7333,0.7263,0.7116,0.6767,0.6454,0.5914,0.49,0.389,0.2882,0.1868,0.1034,0.0354,0.0071,0.0,0.0,0.0,0.0,0.0,0.0,0.0,0.0,0.0,0.0,0.0,0.0,0.0,0.0,0.0,0.0,0.0,0.0,0.0,0.0,0.0,0.0,0.0,0.0,0.0,0.0,0.0,0.0,0.0,0.0,0.0,0.0,0.0,0.0,0.0,0.0,0.0,0.0,0.0,0.0,0.0,-0.0135,-0.0942,-0.197,-0.3166,-0.481,-0.5724,-0.6372,-0.7181,-0.7842,-0.8138,-0.8016,-0.7814,-0.7679,-0.7831,-0.7856,-0.7922,-0.8187,-0.8318,-0.812,-0.7388,-0.6719,-0.578,-0.4368,-0.3429,-0.2489,-0.1683,-0.1077,-0.0875,-0.1077,-0.0808,-0.0808,-0.1346,-0.1884,-0.2288,-0.2489,-0.2689,-0.3426,-0.4905,-0.5707,-0.6711,-0.7848,-0.8167,-0.844,-0.8677,-0.8483,-0.836,-0.8239,-0.8018,-0.7777,0.6474,0.6583,0.6736,0.6849,0.7143,0.7394,0.755,0.7685,0.7727,0.7585,0.736,0.715,0.6986,0.6129,0.5153,0.417,0.3257,0.2302,0.1322,0.0,0.0357,0.0072,0.0,0.0,0.0,0.0,0.0,0.0,0.0,0.0,0.0,0.0,0.0,0.0,0.0,0.0,0.0,0.0,0.0,0.0,0.0,0.0,0.0,0.0,0.0,0.0,0.0,0.0,0.0,0.0,0.0,0.0,0.0,0.0,0.0,0.0,0.0,0.0,0.0,0.0,0.0,0.0,0.0,-0.0202,-0.1279,-0.2174,-0.3166,-0.5091,-0.6428,-0.7511,-0.8338,-0.8578,-0.854,-0.8415,-0.7757,-0.7183,-0.7074,-0.7051,-0.7118,-0.7118,-0.7383,-0.7314,-0.6577,-0.618,-0.5443,-0.4035,-0.3431,-0.2758,-0.175,-0.1548,-0.1414,-0.1144,-0.1077,-0.1346,-0.2087,-0.3362,-0.4367,-0.5104,-0.4833,-0.5302,-0.6717,-0.7784,-0.8584,-0.8984,-0.938,-0.9519,-0.9391,-0.9438,-0.9105,-0.8551,-0.823,-0.7857,0.6364,0.6519,0.6715,0.6773,0.7087,0.7495,0.7789,0.7909,0.7914,0.7968,0.7539,0.6977,0.6265,0.5458,0.4546,0.3489,0.2605,0.1659,0.0831,0.0424,0.0143,0.0,0.0,0.0,0.0,0.0,0.0,0.0,0.0,0.0,0.0,0.0,0.0,0.0,0.0,0.0,0.0,0.0,0.0,0.0,0.0,0.0,0.0,0.0,0.0,0.0,0.0,0.0,0.0,0.0,0.0,0.0,0.0,0.0,0.0,0.0,0.0,0.0,0.0,0.0,0.0,0.0,0.0,-0.0202,-0.1279,-0.2296,-0.3467,-0.5371,-0.6867,-0.7992,-0.8232,-0.8427,-0.8316,-0.7576,-0.7134,-0.67,-0.6134,-0.5982,-0.5981,-0.5977,-0.6109,-0.6042,-0.5508,-0.5106,-0.457,-0.3565,-0.3096,-0.2692,-0.202,-0.175,-0.1616,-0.175,-0.1953,-0.2423,-0.3163,-0.4034,-0.524,-0.6644,-0.6376,-0.6713,-0.792,-0.8587,-0.912,-0.9458,-0.9594,-0.9703,-0.9651,-0.9565,-0.9275,-0.8788,-0.8328,-0.7762,0.63,0.6515,0.667,0.6631,0.7024,0.7501,0.788,0.801,0.8102,0.813,0.7597,0.6759,0.568,0.4779,0.3855,0.0,0.1887,0.1042,0.0413,0.014,0.0,0.0,0.0,0.0,0.0,0.0,0.0,0.0,0.0,0.0,0.0,0.0,0.0,0.0,0.0,0.0,0.0,0.0,0.0,0.0,0.0,0.0,0.0,0.0,0.0,0.0,0.0,0.0,0.0,0.0,0.0,0.0,0.0,0.0,0.0,0.0,0.0,0.0,0.0,0.0,0.0,0.0,0.0,-0.0202,-0.1279,-0.2288,-0.3439,-0.5398,-0.6857,-0.7944,-0.8128,-0.8396,-0.8363,-0.7313,-0.6746,-0.6188,-0.5389,-0.5044,-0.4842,-0.4704,-0.4702,-0.4637,-0.437,-0.41,-0.3764,-0.3162,-0.2828,-0.2559,-0.2222,-0.1953,-0.1885,-0.2155,-0.2626,-0.3097,-0.3768,-0.4841,-0.6111,-0.7579,-0.7851,-0.832,-0.9056,-0.9452,-0.9721,-0.9994,-0.9994,-0.9994,-0.9994,-0.9896,-0.963,-0.9065,-0.8523,-0.7691,0.63,0.6474,0.6652,0.6541,0.6962,0.7483,0.7721,0.8001,0.8157,0.8129,0.7375,0.6442,0.5375,0.4189,0.0,0.2128,0.1137,0.0412,0.0069,0.0,0.0,0.0,0.0,0.0,0.0,0.0,0.0,0.0,0.0,0.0,0.0,0.0,0.0,0.0,0.0,0.0,0.0,0.0,0.0,0.0,0.0,0.0,0.0,0.0,0.0,0.0,0.0,0.0,0.0,0.0,0.0,0.0,0.0,0.0,0.0,0.0,0.0,0.0,0.0,0.0,0.0,0.0,0.0,-0.0202,-0.1279,-0.2085,-0.3102,-0.5054,-0.6377,-0.7358,-0.8149,-0.8578,-0.8633,-0.7878,-0.6783,-0.5711,-0.4973,-0.4237,-0.3701,-0.3295,-0.3161,-0.3161,-0.3161,-0.3161,-0.3095,-0.2761,-0.2694,-0.2559,-0.2222,-0.2222,-0.2222,-0.2222,-0.2826,-0.3363,-0.3768,-0.578,-0.7316,-0.7977,-0.9383,-1.0193,-1.0193,-1.0522,-1.0721,-1.0721,-1.0721,-1.0721,-1.0721,-1.0721,-1.0313,-0.9525,-0.8802,-0.7829,0.5831,0.5993,0.6257,0.6409,0.6765,0.721,0.7622,0.7936,0.7943,0.7355,0.6624,0.5653,0.4243,0.3258,0.0,0.1438,0.0875,0.0411,0.0068,0.0,0.0,0.0,0.0,0.0,0.0,0.0,0.0,0.0,0.0,0.0,0.0,0.0,0.0,0.0,0.0,0.0,0.0,0.0,0.0,0.0,0.0,0.0,0.0,0.0,0.0,0.0,0.0,0.0,0.0,0.0,0.0,0.0,0.0,0.0,0.0,0.0,0.0,0.0,0.0,0.0,0.0,0.0,0.0,-0.0135,-0.101,-0.1749,-0.2691,-0.4254,-0.5609,-0.6694,-0.6929,-0.7453,-0.7716,-0.7111,-0.6377,-0.551,-0.3967,-0.3498,-0.3229,-0.2625,-0.249,-0.249,-0.249,-0.249,-0.2491,-0.2357,-0.2357,-0.2289,-0.2222,-0.2222,-0.2222,-0.2222,-0.2826,-0.343,-0.41,-0.5912,-0.7383,-0.8384,-0.9522,-1.0323,-1.0522,-1.0654,-1.0721,-1.0721,-1.0721,-1.0721,-1.0721,-1.0721,-1.0432,-0.9996,-0.926,-0.8313,0.5737,0.5868,0.6151,0.6343,0.6729,0.7177,0.7541,0.7809,0.7747,0.6658,0.588,0.4946,0.3364,0.2408,0.0,0.0922,0.0535,0.0202,0.0,0.0,0.0,0.0,0.0,0.0,0.0,0.0,0.0,0.0,0.0,0.0,0.0,0.0,0.0,0.0,0.0,0.0,0.0,0.0,0.0,0.0,0.0,0.0,0.0,0.0,0.0,0.0,0.0,0.0,0.0,0.0,0.0,0.0,0.0,0.0,0.0,0.0,-0.0067,-0.0202,-0.0202,-0.0337,-0.0404,-0.0404,-0.0404,-0.0538,-0.1144,-0.175,-0.2489,-0.3765,-0.4905,-0.5843,-0.6115,-0.6449,-0.6596,-0.6379,-0.6017,-0.531,-0.3767,-0.3295,-0.3027,-0.2357,-0.2222,-0.2222,-0.2222,-0.2222,-0.2222,-0.2222,-0.2222,-0.2222,-0.2222,-0.2222,-0.2222,-0.2357,-0.3028,-0.3765,-0.4638,-0.6378,-0.7781,-0.872,-0.9788,-1.0522,-1.0721,-1.0721,-1.0721,-1.0721,-1.0721,-1.0721,-1.0721,-1.0721,-1.0522,-1.019,-0.9585,-0.8784,0.5793,0.5945,0.6168,0.6354,0.6825,0.7334,0.7465,0.7678,0.7442,0.6062,0.52,0.421,0.2669,0.1654,0.0938,0.0528,0.0198,0.0,0.0,0.0,0.0,0.0,0.0,0.0,0.0,0.0,0.0,0.0,0.0,0.0,0.0,0.0,0.0,0.0,0.0,0.0,0.0,0.0,0.0,0.0,0.0,0.0,0.0,0.0,0.0,0.0,0.0,0.0,0.0,0.0,0.0,0.0,0.0,0.0,0.0,-0.0067,-0.0269,-0.0538,-0.0538,-0.0808,-0.1077,-0.1077,-0.1077,-0.1144,-0.1481,-0.1885,-0.2357,-0.3432,-0.417,-0.4841,-0.551,-0.5512,-0.5379,-0.5644,-0.5444,-0.4978,-0.3902,-0.3431,-0.296,-0.2357,-0.2222,-0.2222,-0.2222,-0.2222,-0.2222,-0.2222,-0.2222,-0.2222,-0.2222,-0.2222,-0.2357,-0.2694,-0.3366,-0.4238,-0.5314,-0.6978,-0.8312,-0.9047,-1.0117,-1.0721,-1.0721,-1.0721,-1.0721,-1.0721,-1.0721,-1.0721,-1.0721,-1.0721,-1.0522,-1.0256,-0.9918,-0.9186,0.5599,0.5616,0.5769,0.6273,0.7133,0.7795,0.7372,0.7206,0.6887,0.5756,0.4535,0.3333,0.2007,0.114,0.0536,0.0132,0.0066,0.0,0.0,0.0,0.0,0.0,0.0,0.0,0.0,0.0,0.0,0.0,0.0,0.0,0.0,0.0,0.0,0.0,0.0,0.0,0.0,0.0,0.0,0.0,0.0,0.0,0.0,0.0,0.0,0.0,0.0,0.0,0.0,0.0,0.0,0.0,0.0,0.0,0.0,-0.0269,-0.0471,-0.0538,-0.0875,-0.101,-0.1077,-0.1077,-0.1077,-0.1144,-0.1481,-0.1683,-0.1885,-0.2693,-0.3432,-0.4037,-0.4237,-0.4572,-0.4841,-0.4371,-0.4171,-0.3902,-0.3097,-0.2895,-0.2693,-0.2289,-0.2222,-0.2222,-0.2222,-0.2222,-0.2222,-0.2222,-0.2222,-0.2222,-0.2222,-0.2222,-0.2357,-0.2694,-0.3366,-0.4238,-0.5314,-0.6978,-0.8312,-0.9047,-1.0117,-1.0721,-1.0721,-1.0721,-1.0721,-1.0721,-1.0721,-1.0721,-1.0721,-1.0721,-1.0654,-1.0588,-1.0256,-0.9851,0.5635,0.5664,0.591,0.6586,0.7336,0.7809,0.7416,0.7064,0.652,0.5469,0.4065,0.2687,0.1601,0.0729,0.0197,0.0,0.0,0.0,0.0,0.0,0.0,0.0,0.0,0.0,0.0,0.0,0.0,0.0,0.0,0.0,0.0,0.0,0.0,0.0,0.0,0.0,0.0,0.0,0.0,0.0,0.0,-0.0058,-0.0175,-0.0239,-0.0242,-0.0244,-0.0434,-0.0502,-0.0506,-0.0449,-0.0456,-0.0462,-0.0465,-0.0468,-0.0538,-0.074,-0.0875,-0.1077,-0.1279,-0.1481,-0.1616,-0.1616,-0.1616,-0.1683,-0.1818,-0.1885,-0.202,-0.2559,-0.3096,-0.3565,-0.3768,-0.4035,-0.417,-0.3632,-0.3632,-0.3566,-0.2828,-0.2694,-0.2627,-0.2289,-0.2222,-0.2222,-0.2222,-0.2222,-0.2222,-0.2222,-0.2222,-0.2222,-0.2222,-0.2222,-0.2357,-0.2894,-0.3632,-0.4571,-0.5783,-0.7383,-0.8584,-0.9322,-1.0187,-1.0721,-1.0721,-1.0721,-1.0721,-1.0721,-1.0721,-1.0721,-1.0721,-1.0721,-1.0721,-1.0721,-1.0522,-1.0256,0.5732,0.5878,0.6211,0.6933,0.7399,0.7637,0.748,0.7061,0.6441,0.5411,0.3836,0.2362,0.1378,0.0521,0.0,0.0,0.0,0.0,0.0,0.0,0.0,0.0,0.0,0.0,0.0,0.0,0.0,0.0,0.0,0.0,0.0,0.0,0.0,0.0,0.0,0.0,0.0,0.0,0.0,0.0,-0.0056,-0.0225,-0.0513,-0.059,-0.06,-0.0604,-0.0856,-0.0993,-0.1007,-0.101,-0.1025,-0.0982,-0.0986,-0.1062,-0.1073,-0.1143,-0.1346,-0.1616,-0.1683,-0.1953,-0.2222,-0.2222,-0.2222,-0.2223,-0.2228,-0.2226,-0.2291,-0.2567,-0.2899,-0.3295,-0.3701,-0.3902,-0.3902,-0.3498,-0.3632,-0.3566,-0.2761,-0.2627,-0.2559,-0.2222,-0.2222,-0.2222,-0.2222,-0.2222,-0.2222,-0.2222,-0.2222,-0.2222,-0.2222,-0.2222,-0.2423,-0.3027,-0.3765,-0.4772,-0.6116,-0.7653,-0.8853,-0.9525,-1.0323,-1.0721,-1.0721,-1.0721,-1.0721,-1.0721,-1.0721,-1.0721,-1.0721,-1.0721,-1.0721,-1.0721,-1.0721,-1.0522,0.5814,0.6001,0.635,0.6738,0.7279,0.7616,0.738,0.7007,0.6507,0.567,0.3999,0.239,0.1616,0.0646,0.0,0.0,0.0,0.0,0.0,0.0,0.0,0.0,0.0,0.0,0.0,0.0,0.0,0.0,0.0,0.0,0.0,0.0,0.0,0.0,0.0,0.0,0.0,0.0,0.0,0.0,-0.0218,-0.0495,-0.0826,-0.114,-0.1117,-0.0845,-0.0907,-0.0916,-0.0992,-0.1005,-0.1013,-0.1019,-0.0979,-0.0989,-0.1059,-0.1407,-0.1548,-0.1683,-0.202,-0.2155,-0.2222,-0.2222,-0.2222,-0.2227,-0.2186,-0.2176,-0.2228,-0.2255,-0.2717,-0.3295,-0.3701,-0.4237,-0.4572,-0.4239,-0.3969,-0.3499,-0.2491,-0.2289,-0.2222,-0.2222,-0.2222,-0.2222,-0.2222,-0.2222,-0.2222,-0.2222,-0.2222,-0.2222,-0.2222,-0.2222,-0.2357,-0.2694,-0.3432,-0.4305,-0.5448,-0.7181,-0.8448,-0.9117,-1.0117,-1.0721,-1.0721,-1.0721,-1.0721,-1.0721,-1.0721,-1.0721,-1.0721,-1.0721,-1.0721,-1.0721,-1.0721,-1.0654,0.5969,0.6066,0.6295,0.6507,0.695,0.729,0.7296,0.705,0.6677,0.6002,0.4624,0.3182,0.1968,0.095,0.0189,0.0,0.0,0.0,0.0,0.0,0.0,0.0,0.0,0.0,0.0,0.0,0.0,0.0,0.0,0.0,0.0,0.0,0.0,0.0,0.0,0.0,0.0,-0.016,-0.032,-0.0427,-0.076,-0.0984,-0.1149,-0.1458,-0.1436,-0.1176,-0.1377,-0.1454,-0.1526,-0.155,-0.1567,-0.158,-0.1536,-0.1559,-0.1649,-0.1792,-0.1872,-0.1953,-0.2155,-0.2222,-0.2222,-0.2222,-0.2222,-0.2228,-0.2191,-0.2178,-0.2228,-0.2191,-0.2653,-0.3295,-0.3701,-0.4304,-0.4707,-0.4374,-0.4038,-0.3566,-0.2693,-0.2357,-0.2222,-0.2222,-0.2222,-0.2222,-0.2222,-0.2222,-0.2222,-0.2222,-0.2222,-0.2222,-0.2222,-0.2222,-0.2357,-0.2694,-0.3366,-0.4171,-0.4977,-0.6713,-0.7982,-0.852,-0.9525,-1.0127,-1.0127,-1.0127,-1.0256,-1.0389,-1.0588,-1.0721,-1.0721,-1.0721,-1.0721,-1.0721,-1.0721,-1.0721,0.6,0.6015,0.6085,0.6259,0.6554,0.6872,0.7138,0.7036,0.6802,0.0,0.5324,0.4099,0.2777,0.1484,0.0493,0.0184,0.0061,0.0,0.0,0.0,0.0,0.0,0.0,0.0,0.0,0.0,0.0,0.0,0.0,0.0,0.0,0.0,0.0,0.0,-0.0053,-0.0105,-0.0105,-0.0368,-0.0631,-0.0895,-0.1183,-0.1358,-0.1413,-0.1666,-0.1694,-0.1488,-0.1767,-0.1857,-0.1933,-0.1956,-0.1981,-0.2009,-0.2016,-0.2046,-0.2087,-0.2095,-0.2112,-0.2199,-0.2207,-0.2143,-0.2144,-0.2219,-0.2222,-0.2229,-0.22,-0.2185,-0.223,-0.2201,-0.266,-0.3295,-0.3834,-0.4438,-0.4908,-0.4642,-0.4238,-0.3701,-0.276,-0.2357,-0.2222,-0.2222,-0.2222,-0.2222,-0.2222,-0.2222,-0.2222,-0.2222,-0.2222,-0.2222,-0.2222,-0.2222,-0.2289,-0.2559,-0.3164,-0.3768,-0.4505,-0.6044,-0.7181,-0.7789,-0.8723,-0.9325,-0.9395,-0.9525,-0.9724,-1.0054,-1.0389,-1.0588,-1.0721,-1.0721,-1.0721,-1.0721,-1.0721,-1.0721,0.5842,0.575,0.5744,0.5887,0.6119,0.6399,0.6749,0.6793,0.6707,0.6757,0.5876,0.4886,0.4189,0.236,0.086,0.0545,0.0181,0.0,0.0,0.0,0.0,0.0,0.0,0.0,0.0,0.0,0.0,0.0,0.0,0.0,0.0,0.0,0.0,0.0,-0.0253,-0.0355,-0.0355,-0.0659,-0.0912,-0.1166,-0.1259,-0.144,-0.1709,-0.1768,-0.1795,-0.1799,-0.1774,-0.1819,-0.1871,-0.1933,-0.1952,-0.1981,-0.2008,-0.202,-0.2026,-0.2056,-0.2132,-0.2138,-0.2101,-0.2112,-0.2116,-0.2212,-0.2222,-0.2233,-0.2225,-0.2202,-0.2167,-0.2226,-0.268,-0.3362,-0.41,-0.4839,-0.5381,-0.5381,-0.4774,-0.3899,-0.249,-0.2222,-0.2222,-0.2222,-0.2222,-0.2222,-0.2222,-0.2222,-0.2222,-0.2222,-0.2222,-0.2222,-0.2222,-0.2222,-0.2222,-0.2222,-0.2559,-0.3029,-0.3768,-0.4838,-0.5975,-0.6985,-0.7715,-0.8246,-0.8653,-0.8984,-0.9316,-0.9715,-1.0054,-1.0389,-1.0721,-1.0721,-1.0721,-1.0721,-1.0721,-1.0721,0.5924,0.5799,0.5756,0.5769,0.5836,0.5999,0.6279,0.6419,0.6437,0.6417,0.5832,0.5107,0.437,0.2751,0.1375,0.0832,0.0353,0.0,0.0,0.0,0.0,0.0,0.0,0.0,0.0,0.0,0.0,0.0,0.0,0.0,0.0,0.0,-0.0101,-0.0253,-0.0354,-0.0556,-0.0909,-0.101,-0.1212,-0.1466,-0.1519,-0.1598,-0.1706,-0.1767,-0.1795,-0.1795,-0.1806,-0.1835,-0.1817,-0.1855,-0.1937,-0.195,-0.198,-0.2003,-0.202,-0.2031,-0.2059,-0.2095,-0.2106,-0.2122,-0.214,-0.2218,-0.2222,-0.2166,-0.2227,-0.2203,-0.2167,-0.2228,-0.2545,-0.3028,-0.3767,-0.4305,-0.4642,-0.444,-0.3967,-0.3362,-0.2423,-0.2222,-0.2222,-0.2222,-0.2222,-0.2222,-0.2222,-0.2222,-0.2222,-0.2222,-0.2222,-0.2222,-0.2222,-0.2222,-0.2222,-0.2222,-0.2492,-0.2828,-0.3097,-0.4303,-0.5173,-0.5577,-0.6447,-0.7051,-0.7187,-0.7784,-0.8382,-0.8984,-0.9591,-1.0127,-1.0721,-1.0721,-1.0721,-1.0721,-1.0721,-1.0721,0.598,0.5813,0.5719,0.565,0.56,0.5613,0.5852,0.6032,0.6155,0.6153,0.5828,0.5305,0.4619,0.3183,0.1832,0.1165,0.0463,0.0,0.0,0.0,0.0,0.0,0.0,0.0,0.0,0.0,0.0,0.0,0.0,0.0,-0.0152,-0.0152,-0.0303,-0.0657,-0.0657,-0.0859,-0.1314,-0.1314,-0.1419,-0.1633,-0.1681,-0.171,-0.1721,-0.1772,-0.1795,-0.1795,-0.1795,-0.1812,-0.1786,-0.1895,-0.1922,-0.1934,-0.1964,-0.1988,-0.2005,-0.2005,-0.203,-0.2067,-0.2087,-0.2107,-0.2194,-0.2215,-0.2222,-0.2232,-0.2215,-0.2202,-0.2181,-0.2231,-0.2424,-0.2935,-0.3616,-0.4148,-0.4399,-0.3906,-0.3498,-0.3027,-0.2357,-0.2222,-0.2222,-0.2222,-0.2222,-0.2222,-0.2222,-0.2222,-0.2222,-0.2222,-0.2222,-0.2222,-0.2222,-0.2222,-0.2222,-0.2222,-0.2424,-0.2559,-0.2694,-0.3566,-0.417,-0.4438,-0.5245,-0.5783,-0.6049,-0.6849,-0.7717,-0.8587,-0.9325,-1.006,-1.0721,-1.0721,-1.0721,-1.0721,-1.0721,-1.0721,0.0,0.0,0.0,0.5519,0.5345,0.5243,0.5443,0.5672,0.5918,0.6048,0.5906,0.5621,0.5012,0.3617,0.2322,0.1536,0.0631,0.0,0.0,0.0,0.0,0.0,0.0,0.0,0.0,0.0,0.0,0.0,0.0,-0.0152,-0.0404,-0.0404,-0.0657,-0.1162,-0.1212,-0.1314,-0.1617,-0.1617,-0.1633,-0.1714,-0.1691,-0.172,-0.1805,-0.1781,-0.1795,-0.1795,-0.1795,-0.1812,-0.1784,-0.1873,-0.1903,-0.1933,-0.1964,-0.1977,-0.1977,-0.1977,-0.1977,-0.1986,-0.2108,-0.2129,-0.214,-0.2202,-0.2222,-0.2228,-0.2191,-0.22,-0.2206,-0.2167,-0.2454,-0.2944,-0.3644,-0.437,-0.4652,-0.3915,-0.3498,-0.3027,-0.2357,-0.2222,-0.2222,-0.2222,-0.2222,-0.2222,-0.2222,-0.2222,-0.2222,-0.2222,-0.2222,-0.2222,-0.2222,-0.2222,-0.2222,-0.2222,-0.2222,-0.2357,-0.2627,-0.2694,-0.3029,-0.3701,-0.4105,-0.4642,-0.5314,-0.6449,-0.7519,-0.8587,-0.9325,-1.006,-1.0721,-1.0721,-1.0721,-1.0721,-1.0721,-1.0721,0.6296,0.0,0.0,0.0,0.0,0.0,0.0,0.0,0.5469,0.5768,0.5491,0.5108,0.4837,0.3447,0.2188,0.1644,0.0486,-0.0272,-0.0271,-0.0431,-0.0588,-0.0581,-0.0575,-0.0568,-0.0561,-0.0557,-0.0556,0.0,-0.0556,-0.0606,-0.0707,-0.0859,-0.1061,-0.1212,-0.1364,-0.1516,-0.1617,-0.1617,-0.1633,-0.1714,-0.1691,-0.172,-0.1805,-0.1781,-0.1795,-0.1795,-0.1795,-0.18,-0.1812,-0.1864,-0.1891,-0.1904,-0.1956,-0.1977,-0.1977,-0.1977,-0.199,-0.2012,-0.205,-0.2078,-0.2103,-0.2209,-0.2222,-0.2228,-0.2191,-0.22,-0.2206,-0.2167,-0.2245,-0.245,-0.2912,-0.3376,-0.3627,-0.3106,-0.2895,-0.2693,-0.2289,-0.2222,-0.2222,-0.2222,-0.2222,-0.2222,-0.2222,-0.2222,-0.2222,-0.2222,-0.2222,-0.2222,-0.2222,-0.2222,-0.2222,-0.2222,-0.2222,-0.2222,-0.2357,-0.2559,-0.2761,-0.2962,-0.3567,-0.4172,-0.4575,-0.6115,-0.7383,-0.8179,-0.9389,-1.0259,-1.0721,-1.0721,-1.0721,-1.0721,-1.0721,-1.0721,0.6412,0.5951,0.5559,0.0,0.0,0.0,0.5099,0.5151,0.5246,0.0,0.519,0.4884,0.4684,0.3518,0.2417,0.1943,0.086,0.0,-0.0212,-0.0371,-0.0473,-0.0468,-0.0567,-0.0613,-0.0657,-0.0758,-0.0808,-0.0808,-0.0808,-0.0859,-0.096,-0.1212,-0.1364,-0.1364,-0.1516,-0.1617,-0.1617,-0.1617,-0.1633,-0.1714,-0.1691,-0.172,-0.1805,-0.1781,-0.1795,-0.1795,-0.1795,-0.1795,-0.1799,-0.1847,-0.1874,-0.1892,-0.1953,-0.1977,-0.1977,-0.1977,-0.1987,-0.2007,-0.2049,-0.2076,-0.2097,-0.2208,-0.2222,-0.2225,-0.2176,-0.219,-0.2206,-0.2167,-0.2325,-0.2535,-0.2695,-0.3024,-0.3217,-0.277,-0.2694,-0.2627,-0.2289,-0.2222,-0.2222,-0.2222,-0.2222,-0.2222,-0.2222,-0.2222,-0.2222,-0.2222,-0.2222,-0.2222,-0.2222,-0.2222,-0.2222,-0.2222,-0.2222,-0.2222,-0.2222,-0.2357,-0.2492,-0.2492,-0.3163,-0.3835,-0.4507,-0.6115,-0.745,-0.8446,-0.9585,-1.0389,-1.0721,-1.0721,-1.0721,-1.0721,-1.0721,-1.0721,0.6412,0.5909,0.0,0.0,0.0,0.0,0.5018,0.5094,0.517,0.0,0.4986,0.4772,0.4608,0.3659,0.2763,0.2303,0.1418,0.0632,0.0104,0.0,0.0,-0.0052,-0.0254,-0.0403,-0.0505,-0.0707,-0.0859,-0.0909,-0.0859,-0.096,-0.1162,-0.1364,-0.1516,-0.1516,-0.1516,-0.1516,-0.1516,-0.1566,-0.1581,-0.1662,-0.1687,-0.1717,-0.1805,-0.1778,-0.1792,-0.1795,-0.1795,-0.1795,-0.1797,-0.1827,-0.1858,-0.1892,-0.1949,-0.1973,-0.1977,-0.1977,-0.1977,-0.1985,-0.2039,-0.2126,-0.2138,-0.2197,-0.2219,-0.2222,-0.2222,-0.2176,-0.2206,-0.2167,-0.2476,-0.2767,-0.2699,-0.2887,-0.3081,-0.2702,-0.2627,-0.2559,-0.2289,-0.2222,-0.2155,-0.2155,-0.2155,-0.2222,-0.2222,-0.2222,-0.2222,-0.2222,-0.2222,-0.2222,-0.2222,-0.2222,-0.2222,-0.2222,-0.2222,-0.2222,-0.2222,-0.2222,-0.2222,-0.2222,-0.2826,-0.3698,-0.4772,-0.6246,-0.7717,-0.905,-0.9854,-1.0389,-1.0721,-1.0721,-1.0721,-1.0721,-1.0721,-1.0721,0.0,0.0,0.0,0.0,0.0,0.0,0.5018,0.5034,0.5075,0.0,0.4984,0.4722,0.4404,0.3755,0.3019,0.2382,0.1841,0.1201,0.0339,0.0049,-0.0146,-0.0297,-0.0346,-0.0546,-0.1009,-0.1111,-0.1212,-0.1415,-0.1263,-0.1061,-0.0909,-0.0909,-0.096,-0.096,-0.096,-0.096,-0.096,-0.1162,-0.1326,-0.1402,-0.1616,-0.1751,-0.1804,-0.1811,-0.1828,-0.1795,-0.1795,-0.1795,-0.1797,-0.1827,-0.1858,-0.1889,-0.1926,-0.1955,-0.1977,-0.1977,-0.1977,-0.1981,-0.2016,-0.2044,-0.207,-0.2106,-0.2135,-0.2222,-0.2222,-0.2176,-0.2206,-0.2167,-0.2249,-0.2315,-0.2279,-0.2337,-0.2398,-0.2296,-0.2289,-0.2289,-0.2222,-0.2222,-0.2087,-0.175,-0.1953,-0.2222,-0.2222,-0.2222,-0.2222,-0.2222,-0.2222,-0.2222,-0.2222,-0.2222,-0.2222,-0.2222,-0.2222,-0.2222,-0.2222,-0.2222,-0.2222,-0.2222,-0.2826,-0.3698,-0.4772,-0.6445,-0.7915,-0.905,-1.012,-1.0654,-1.0721,-1.0721,-1.0721,-1.0721,-1.0721,-1.0721,0.0,0.0,0.0,0.5142,0.0,0.0,0.0,0.5059,0.5031,0.5091,0.4904,0.4659,0.4437,0.3963,0.3413,0.2895,0.2482,0.2002,0.1408,0.0936,0.0622,0.0532,0.029,0.0,-0.0392,-0.0644,-0.085,-0.101,-0.0859,-0.0707,-0.0404,-0.0404,-0.0404,-0.0404,-0.0404,-0.0404,-0.0404,-0.0657,-0.0863,-0.1076,-0.1344,-0.1573,-0.176,-0.179,-0.1813,-0.1774,-0.1789,-0.1795,-0.1796,-0.1811,-0.1836,-0.1868,-0.1913,-0.1949,-0.1977,-0.1977,-0.1977,-0.1981,-0.2009,-0.2029,-0.2046,-0.2077,-0.2107,-0.2132,-0.2132,-0.2163,-0.22,-0.22,-0.2211,-0.2216,-0.2185,-0.2177,-0.2174,-0.2225,-0.202,-0.1885,-0.1885,-0.175,-0.1548,-0.1144,-0.1346,-0.1683,-0.1885,-0.1885,-0.1953,-0.2155,-0.2222,-0.2222,-0.2222,-0.2222,-0.2222,-0.2222,-0.2222,-0.2222,-0.2222,-0.2222,-0.2222,-0.2222,-0.2826,-0.3698,-0.4772,-0.6512,-0.8248,-0.9851,-1.0452,-1.0721,-1.0721,-1.0721,-1.0721,-1.0721,-1.0721,-1.0721,0.0,0.0,0.0,0.0,0.0,0.5216,0.0,0.0,0.0,0.5021,0.4859,0.0,0.0,0.0,0.0,0.0,0.0,0.0,0.0,0.2117,0.0,0.1515,0.1138,0.076,0.0429,0.0,-0.0246,-0.02,-0.015,0.0,0.0251,0.0302,0.0303,0.0303,0.0303,0.0303,0.0303,0.0,-0.0303,-0.0556,-0.0974,-0.1346,-0.1612,-0.1711,-0.1793,-0.1806,-0.1776,-0.1789,-0.1795,-0.1795,-0.1812,-0.1788,-0.1835,-0.1936,-0.1968,-0.1968,-0.1972,-0.1979,-0.2003,-0.2014,-0.2022,-0.2047,-0.208,-0.211,-0.2116,-0.2152,-0.2186,-0.2229,-0.2172,-0.2186,-0.2228,-0.2222,-0.2155,-0.2087,-0.1818,-0.148,-0.1409,-0.1073,-0.067,-0.0268,-0.0469,-0.0872,-0.1278,-0.1481,-0.1683,-0.202,-0.2155,-0.2222,-0.2222,-0.2222,-0.2222,-0.2222,-0.2222,-0.2222,-0.2222,-0.2222,-0.2222,-0.2222,-0.2826,-0.3698,-0.4772,-0.6711,-0.8715,-1.0651,-1.0721,-1.0721,-1.0721,-1.0721,-1.0721,-1.0721,-1.0721,-1.0721,0.0,0.0,0.0,0.0,0.5391,0.0,0.0,0.0,0.5137,0.5037,0.0,0.0,0.0,0.0,0.0,0.0,0.0,0.0,0.3156,0.3104,0.2745,0.1845,0.1718,0.1403,0.0714,0.0382,0.0335,0.0576,0.0781,0.1034,0.133,0.14,0.1412,0.1412,0.1412,0.1412,0.1412,0.0908,0.0505,0.0253,-0.0506,-0.1022,-0.1351,-0.1617,-0.1754,-0.1804,-0.1808,-0.1825,-0.1795,-0.1795,-0.1812,-0.1784,-0.179,-0.1826,-0.1937,-0.1937,-0.1954,-0.1977,-0.198,-0.1997,-0.2019,-0.2022,-0.2063,-0.2114,-0.2142,-0.2222,-0.2227,-0.2223,-0.2225,-0.2226,-0.2223,-0.2222,-0.2087,-0.175,-0.1414,-0.1073,-0.0795,-0.0198,0.033,0.0726,0.0793,0.0464,-0.047,-0.1144,-0.1616,-0.1683,-0.1953,-0.2222,-0.2222,-0.2222,-0.2222,-0.2222,-0.2222,-0.2222,-0.2222,-0.2222,-0.2222,-0.2222,-0.2826,-0.3698,-0.4772,-0.7445,-0.9449,-1.0654,-1.0721,-1.0721,-1.0721,-1.0721,-1.0721,-1.0721,-1.0721,-1.0721,0.0,0.0,0.0,0.0,0.0,0.0,0.5367,0.0,0.532,0.0,0.0,0.0,0.0,0.0,0.0,0.0,0.3639,0.0,0.0,0.0,0.3098,0.0,0.0,0.0,0.1331,0.1059,0.1023,0.1332,0.1442,0.1649,0.1961,0.1976,0.2044,0.2067,0.2068,0.2068,0.2068,0.1665,0.1262,0.0859,0.0202,-0.0406,-0.1023,-0.1344,-0.1579,-0.1724,-0.1796,-0.1822,-0.1795,-0.1795,-0.1803,-0.1814,-0.1814,-0.1862,-0.1871,-0.1871,-0.195,-0.1977,-0.1977,-0.1984,-0.1996,-0.2013,-0.2048,-0.2089,-0.2119,-0.2141,-0.2222,-0.2222,-0.2222,-0.2222,-0.2222,-0.202,-0.175,-0.1414,-0.074,-0.0067,0.0264,0.0857,0.1515,0.1845,0.1582,0.1191,0.0806,-0.0202,-0.1077,-0.1548,-0.1953,-0.2222,-0.2222,-0.2222,-0.2222,-0.2222,-0.2357,-0.2492,-0.2492,-0.2692,-0.2759,-0.2759,-0.3834,-0.5108,-0.6577,-0.8248,-0.9585,-1.0654,-1.0721,-1.0721,-1.0721,-1.0721,-1.0721,-1.0721,-1.0721,-1.0721,0.532,0.0,0.0,0.0,0.0,0.0,0.0,0.0,0.0,0.0,0.0,0.0,0.0,0.0,0.0,0.0,0.0,0.3738,0.0,0.359,0.0,0.0,0.0,0.0,0.0,0.1675,0.1696,0.1934,0.2052,0.2219,0.2441,0.2479,0.2566,0.2602,0.2616,0.2623,0.2623,0.2371,0.1968,0.1414,0.0808,0.0101,-0.0707,-0.1076,-0.1405,-0.1695,-0.1778,-0.1809,-0.1783,-0.1791,-0.1795,-0.1795,-0.1795,-0.184,-0.1848,-0.1916,-0.1938,-0.1965,-0.1974,-0.1977,-0.1981,-0.2009,-0.2033,-0.2059,-0.2097,-0.2125,-0.2144,-0.2219,-0.2222,-0.2155,-0.2087,-0.175,-0.1346,-0.0808,0.0067,0.0939,0.1322,0.2043,0.2636,0.2833,0.2438,0.2052,0.1813,0.0538,-0.074,-0.1346,-0.1885,-0.2222,-0.2222,-0.2222,-0.2222,-0.2222,-0.2492,-0.2761,-0.2828,-0.3229,-0.363,-0.39,-0.5109,-0.6514,-0.8112,-0.8848,-0.9718,-1.0654,-1.0721,-1.0721,-1.0721,-1.0721,-1.0721,-1.0721,-1.0721,-1.0721,0.0,0.0,0.0,0.5653,0.0,0.0,0.0,0.0,0.547,0.0,0.0,0.0,0.0,0.0,0.0,0.4622,0.0,0.0,0.0,0.0,0.0,0.0,0.0,0.0,0.0,0.2275,0.2277,0.228,0.2637,0.288,0.2883,0.2999,0.3091,0.3093,0.3149,0.318,0.318,0.2927,0.2522,0.1967,0.1161,0.0354,-0.0455,-0.0961,-0.1379,-0.1717,-0.1693,-0.1723,-0.1808,-0.1782,-0.1795,-0.1795,-0.1795,-0.1814,-0.179,-0.1877,-0.1907,-0.1937,-0.1967,-0.1977,-0.1981,-0.2009,-0.2019,-0.2031,-0.2091,-0.211,-0.2117,-0.2213,-0.2222,-0.2087,-0.175,-0.1346,-0.0875,0.0202,0.101,0.1744,0.2381,0.3097,0.3622,0.3688,0.3622,0.3308,0.2351,0.0673,-0.0673,-0.1077,-0.175,-0.2222,-0.2222,-0.2222,-0.2222,-0.2222,-0.2492,-0.2828,-0.3162,-0.3831,-0.4704,-0.5778,-0.6514,-0.7452,-0.852,-0.9316,-0.9981,-1.0721,-1.0721,-1.0721,-1.0721,-1.0721,-1.0721,-1.0721,-1.0721,-1.0721,0.0,0.0,0.5637,0.568,0.0,0.0,0.0,0.0,0.0,0.0,0.0,0.0,0.0,0.0,0.5333,0.5094,0.4917,0.0,0.0,0.0,0.0,0.0,0.0,0.0,0.0,0.0,0.0,0.2564,0.2688,0.2789,0.2914,0.2932,0.3018,0.3087,0.311,0.314,0.318,0.313,0.2876,0.2522,0.1715,0.0908,0.0101,-0.0606,-0.1225,-0.1715,-0.1725,-0.1757,-0.1805,-0.1816,-0.1777,-0.1795,-0.1795,-0.1802,-0.1817,-0.1867,-0.1905,-0.1935,-0.1966,-0.1977,-0.1978,-0.1988,-0.2003,-0.2022,-0.2043,-0.2078,-0.2111,-0.2122,-0.2005,-0.175,-0.1346,-0.0673,0.0202,0.101,0.1951,0.2815,0.3238,0.3689,0.4018,0.4018,0.3821,0.3375,0.2351,0.1077,-0.0135,-0.0942,-0.175,-0.2222,-0.2222,-0.2222,-0.2222,-0.2222,-0.2692,-0.3296,-0.3899,-0.524,-0.6445,-0.7245,-0.7784,-0.8454,-0.9316,-0.9785,-1.0253,-1.0721,-1.0721,-1.0721,-1.0721,-1.0721,-1.0721,-1.0721,-1.0721,-1.0721,0.5572,0.5629,0.0,0.5688,0.5688,0.0,0.5688,0.0,0.0,0.0,0.0,0.0,0.0,0.0,0.0,0.5738,0.5539,0.5315,0.0,0.4387,0.0,0.0,0.0,0.0,0.0,0.0,0.2585,0.2624,0.2647,0.2703,0.0,0.2895,0.2936,0.3071,0.3069,0.3109,0.3148,0.3169,0.3079,0.2775,0.2068,0.1312,0.0505,-0.0303,-0.0966,-0.1543,-0.1658,-0.1743,-0.1788,-0.1799,-0.1823,-0.1795,-0.1795,-0.1795,-0.1802,-0.1864,-0.1912,-0.195,-0.197,-0.1977,-0.1977,-0.1977,-0.1989,-0.2005,-0.2016,-0.2053,-0.2095,-0.1974,-0.1665,-0.1279,-0.0673,0.0202,0.1077,0.1951,0.2826,0.3489,0.3857,0.4116,0.4248,0.4248,0.4049,0.3528,0.242,0.1346,0.0269,-0.0942,-0.175,-0.2222,-0.2222,-0.2222,-0.2222,-0.2357,-0.3028,-0.39,-0.5173,-0.6581,-0.7653,-0.8182,-0.872,-0.9189,-0.9652,-1.0123,-1.0455,-1.0721,-1.0721,-1.0721,-1.0721,-1.0721,-1.0721,-1.0721,-1.0721,-1.0721]},{"header":{"parameterUnit":"m.s-1","parameterCategory":1,"la1":30.6,"la2":29.2853,"lo1":-89.7004,"lo2":-87.6739,"dy":0.0162,"dx":0.0183,"nx":112,"ny":82,"refTime":"2023-09-26T00:00:00:Z","depth":0,"parameterNumber":3,"parameterNumberName":"V-component_of_WINDS"},"data":[0.0,0.0,0.0,0.0,0.0,0.0,0.0,0.0,0.0,0.0,0.0,0.0,0.0,0.0,0.0,0.0,0.0,0.0,0.0,0.0,0.0,0.0,0.0,0.0,0.0,0.0,0.0,0.0,0.0,0.0,0.0,0.0,0.0,0.0,0.0,0.0,0.0,0.0,0.0,0.0,0.0,0.0,0.0,0.0,0.0,0.0,0.0,0.0,0.0,0.0,0.0,0.0,0.0,0.0,0.0,0.0,0.0,0.0,0.0,0.0,0.0,0.0,0.0,0.0,0.0,0.0,0.0,0.0,0.0,0.0,0.0,0.0,0.0,0.0,0.0,0.0,0.0,0.0,0.0,0.0,0.0,0.0,0.0,0.0,0.0,0.0,0.0,0.0,0.0,0.0,3.5045,3.7666,4.0871,4.2627,4.2213,3.9732,3.7321,3.5228,0.0,0.0,0.0,0.0,0.0,0.0,0.0,0.0,0.0,0.0,0.0,0.0,0.0,0.0,0.0,0.0,0.0,0.0,0.0,0.0,0.0,0.0,0.0,0.0,0.0,0.0,0.0,0.0,0.0,0.0,0.0,0.0,0.0,0.0,0.0,0.0,0.0,0.0,0.0,0.0,0.0,0.0,0.0,0.0,0.0,0.0,0.0,0.0,0.0,0.0,0.0,0.0,0.0,0.0,0.0,0.0,0.0,0.0,0.0,0.0,0.0,0.0,0.0,0.0,0.0,0.0,0.0,0.0,0.0,0.0,0.0,0.0,0.0,0.0,0.0,0.0,0.0,0.0,0.0,0.0,0.0,0.0,0.0,0.0,0.0,0.0,0.0,0.0,0.0,0.0,0.0,0.0,0.0,0.0,0.0,0.0,0.0,0.0,0.0,0.0,0.0,0.0,0.0,0.0,3.6322,4.042,4.1837,4.2707,4.3286,4.0483,3.7774,3.5632,0.0,0.0,0.0,0.0,0.0,0.0,0.0,0.0,0.0,0.0,0.0,0.0,0.0,0.0,0.0,0.0,0.0,0.0,0.0,0.0,0.0,0.0,0.0,0.0,0.0,0.0,0.0,0.0,0.0,0.0,0.0,0.0,0.0,0.0,0.0,0.0,0.0,0.0,0.0,0.0,0.0,0.0,0.0,0.0,0.0,0.0,0.0,0.0,0.0,0.0,0.0,0.0,0.0,0.0,0.0,0.0,0.0,0.0,0.0,0.0,0.0,0.0,0.0,0.0,0.0,0.0,0.0,0.0,0.0,0.0,0.0,0.0,0.0,0.0,0.0,0.0,0.0,0.0,0.0,0.0,0.0,0.0,0.0,0.0,0.0,0.0,0.0,0.0,0.0,0.0,0.0,0.0,0.0,0.0,0.0,0.0,0.0,0.0,0.0,0.0,0.0,0.0,0.0,3.6061,3.8086,4.0433,4.154,4.2151,4.218,3.9569,3.7059,3.502,3.0948,0.0,0.0,0.0,0.0,0.0,0.0,0.0,0.0,0.0,0.0,0.0,0.0,0.0,0.0,0.0,0.0,0.0,0.0,0.0,0.0,0.0,0.0,0.0,0.0,0.0,0.0,0.0,0.0,0.0,0.0,0.0,0.0,0.0,0.0,0.0,0.0,0.0,0.0,0.0,0.0,0.0,0.0,0.0,0.0,0.0,0.0,0.0,0.0,0.0,0.0,0.0,0.0,0.0,0.0,0.0,0.0,0.0,0.0,0.0,0.0,0.0,0.0,0.0,0.0,0.0,0.0,0.0,0.0,0.0,0.0,0.0,0.0,0.0,0.0,0.0,0.0,0.0,0.0,0.0,0.0,0.0,0.0,0.0,0.0,0.0,0.0,0.0,0.0,0.0,0.0,0.0,0.0,0.0,0.0,0.0,0.0,0.0,0.0,0.0,0.0,0.0,0.0,3.7908,3.9444,3.9863,4.11,4.1612,4.0934,3.8762,3.6465,3.4287,3.0672,0.0,0.0,0.0,0.0,0.0,0.0,0.0,0.0,0.0,0.0,0.0,0.0,0.0,0.0,0.0,0.0,0.0,0.0,0.0,0.0,0.0,0.0,0.0,0.0,0.0,0.0,0.0,0.0,0.0,0.0,0.0,0.0,0.0,0.0,0.0,0.0,0.0,0.0,0.0,0.0,0.0,0.0,0.0,0.0,0.0,0.0,0.0,0.0,0.0,0.0,0.0,0.0,0.0,0.0,0.0,0.0,0.0,0.0,0.0,0.0,0.0,0.0,0.0,0.0,0.0,0.0,0.0,0.0,0.0,0.0,0.0,0.0,0.0,0.0,0.0,0.0,0.0,0.0,0.0,0.0,0.0,0.0,0.0,0.0,0.0,0.0,0.0,0.0,0.0,0.0,0.0,0.0,0.0,0.0,0.0,0.0,0.0,0.0,0.0,0.0,0.0,0.0,3.8151,3.9862,3.9638,4.093,4.1458,4.0615,3.8992,3.6802,3.3916,3.0911,0.0,0.0,0.0,0.0,0.0,0.0,0.0,0.0,0.0,0.0,0.0,0.0,0.0,0.0,0.0,0.0,0.0,0.0,0.0,0.0,0.0,0.0,0.0,0.0,0.0,0.0,0.0,0.0,0.0,0.0,0.0,0.0,0.0,0.0,0.0,0.0,0.0,0.0,0.0,0.0,0.0,0.0,0.0,0.0,0.0,0.0,0.0,0.0,0.0,0.0,0.0,0.0,0.0,0.0,0.0,0.0,0.0,0.0,0.0,0.0,0.0,0.0,0.0,0.0,0.0,0.0,0.0,0.0,0.0,0.0,0.0,0.0,0.0,0.0,0.0,0.0,0.0,0.0,0.0,0.0,0.0,0.0,0.0,0.0,0.0,0.0,0.0,0.0,0.0,0.0,0.0,0.0,0.0,0.0,0.0,0.0,0.0,0.0,0.0,0.0,0.0,0.0,3.8329,3.9915,0.0,4.068,4.0457,3.9111,3.7145,3.4726,3.1778,0.0,0.0,0.0,0.0,0.0,0.0,0.0,0.0,0.0,0.0,0.0,0.0,0.0,0.0,0.0,0.0,0.0,0.0,0.0,0.0,0.0,0.0,0.0,0.0,0.0,0.0,0.0,0.0,0.0,0.0,0.0,0.0,0.0,0.0,0.0,0.0,0.0,0.0,0.0,0.0,0.0,0.0,0.0,0.0,0.0,0.0,0.0,0.0,0.0,0.0,0.0,0.0,0.0,0.0,0.0,0.0,0.0,0.0,0.0,0.0,0.0,0.0,0.0,0.0,0.0,0.0,0.0,0.0,0.0,0.0,0.0,0.0,0.0,0.0,0.0,0.0,0.0,0.0,0.0,0.0,0.0,0.0,0.0,0.0,0.0,0.0,0.0,0.0,0.0,0.0,0.0,0.0,0.0,0.0,0.0,0.0,0.0,0.0,0.0,0.0,0.0,0.0,3.6429,3.8413,3.9871,0.0,4.0475,3.9852,3.8,3.5941,3.3512,3.0548,0.0,0.0,0.0,0.0,0.0,0.0,0.0,0.0,0.0,0.0,0.0,0.0,0.0,0.0,0.0,0.0,0.0,0.0,0.0,0.0,0.0,0.0,0.0,0.0,0.0,0.0,0.0,0.0,0.0,0.0,0.0,0.0,0.0,0.0,0.0,0.0,0.0,0.0,0.0,0.0,0.0,0.0,0.0,0.0,0.0,0.0,0.0,0.0,0.0,0.0,0.0,0.0,0.0,0.0,0.0,0.0,0.0,0.0,0.0,0.0,0.0,0.0,0.0,0.0,0.0,0.0,0.0,0.0,0.0,0.0,0.0,0.0,0.0,0.0,0.0,0.0,0.0,0.0,0.0,0.0,0.0,0.0,0.0,0.0,0.0,0.0,0.0,0.0,0.0,0.0,0.0,0.0,0.0,0.0,0.0,0.0,0.0,0.0,0.0,0.0,0.0,0.0,3.6432,3.843,3.9751,3.9615,4.0324,3.9848,3.7491,3.581,3.3613,0.0,0.0,0.0,0.0,0.0,0.0,0.0,0.0,0.0,0.0,0.0,0.0,0.0,0.0,0.0,0.0,0.0,0.0,0.0,0.0,0.0,0.0,0.0,0.0,0.0,0.0,0.0,0.0,0.0,0.0,0.0,0.0,0.0,0.0,0.0,0.0,0.0,0.0,0.0,0.0,0.0,0.0,0.0,0.0,0.0,0.0,0.0,0.0,0.0,0.0,0.0,0.0,0.0,0.0,0.0,0.0,0.0,0.0,0.0,0.0,0.0,0.0,0.0,0.0,0.0,0.0,0.0,0.0,0.0,0.0,0.0,0.0,0.0,0.0,0.0,0.0,0.0,0.0,0.0,0.0,0.0,0.0,0.0,0.0,0.0,0.0,0.0,0.0,0.0,0.0,0.0,0.0,0.0,0.0,0.0,0.0,0.0,0.0,0.0,0.0,0.0,0.0,0.0,3.6638,3.8635,3.9969,3.9832,4.001,3.9231,3.6934,3.4776,3.2284,2.9278,0.0,0.0,0.0,0.0,0.0,0.0,0.0,0.0,0.0,0.0,0.0,0.0,0.0,0.0,0.0,0.0,0.0,0.0,0.0,0.0,0.0,0.0,0.0,0.0,0.0,0.0,0.0,0.0,0.0,0.0,0.0,0.0,0.0,0.0,0.0,0.0,0.0,0.0,0.0,0.0,0.0,0.0,0.0,0.0,0.0,0.0,0.0,0.0,0.0,0.0,0.0,0.0,0.0,0.0,0.0,0.0,0.0,0.0,0.0,0.0,0.0,0.0,0.0,0.0,0.0,0.0,0.0,0.0,0.0,0.0,0.0,0.0,0.0,0.0,0.0,0.0,0.0,0.0,0.0,0.0,0.0,0.0,0.0,0.0,0.0,0.0,0.0,0.0,0.0,0.0,0.0,0.0,0.0,0.0,0.0,0.0,0.0,0.0,0.0,0.0,0.0,0.0,3.6803,3.858,3.9751,3.9658,3.9677,3.878,3.6454,3.4442,3.1976,2.8937,0.0,0.0,0.0,0.0,0.0,0.0,0.0,0.0,0.0,0.0,0.0,0.0,0.0,0.0,0.0,0.0,0.0,0.0,0.0,0.0,0.0,0.0,0.0,0.0,0.0,0.0,0.0,0.0,0.0,0.0,0.0,0.0,0.0,0.0,0.0,0.0,0.0,0.0,0.0,0.0,0.0,0.0,0.0,0.0,0.0,0.0,0.0,0.0,0.0,0.0,0.0,0.0,0.0,0.0,0.0,0.0,0.0,0.0,0.0,0.0,0.0,0.0,0.0,0.0,0.0,0.0,0.0,0.0,0.0,0.0,0.0,0.0,0.0,0.0,0.0,0.0,0.0,0.0,0.0,0.0,0.0,0.0,0.0,0.0,0.0,0.0,0.0,0.0,0.0,0.0,0.0,0.0,0.0,0.0,0.0,0.0,0.0,0.0,0.0,0.0,0.0,0.0,3.6885,3.8437,3.942,3.9275,3.9452,3.8607,3.6167,3.46,3.2457,2.9459,0.0,0.0,0.0,0.0,0.0,0.0,0.0,0.0,0.0,0.0,0.0,0.0,0.0,0.0,0.0,0.0,0.0,0.0,0.0,0.0,0.0,0.0,0.0,0.0,0.0,0.0,0.0,0.0,0.0,0.0,0.0,0.0,0.0,0.0,0.0,0.0,0.0,0.0,0.0,0.0,0.0,0.0,0.0,0.0,0.0,0.0,0.0,0.0,0.0,0.0,0.0,0.0,0.0,0.0,0.0,0.0,0.0,0.0,0.0,0.0,3.5628,0.0,0.0,0.0,0.0,0.0,0.0,0.0,0.0,0.0,0.0,0.0,0.0,0.0,0.0,0.0,0.0,0.0,0.0,0.0,0.0,0.0,0.0,0.0,0.0,0.0,0.0,0.0,0.0,0.0,0.0,0.0,0.0,0.0,0.0,0.0,0.0,0.0,0.0,0.0,0.0,0.0,3.6591,3.9093,4.0381,3.9114,4.0139,3.9684,3.6707,3.5013,3.3066,3.0676,2.9024,0.0,0.0,0.0,0.0,0.0,0.0,0.0,0.0,0.0,0.0,0.0,0.0,0.0,0.0,0.0,0.0,0.0,0.0,0.0,0.0,0.0,0.0,0.0,0.0,0.0,0.0,0.0,0.0,0.0,0.0,0.0,0.0,0.0,0.0,0.0,0.0,0.0,0.0,0.0,0.0,0.0,0.0,0.0,0.0,0.0,0.0,0.0,0.0,0.0,0.0,0.0,0.0,0.0,0.0,0.0,0.0,0.0,0.0,0.0,0.0,3.7606,0.0,0.0,0.0,0.0,0.0,0.0,0.0,0.0,0.0,0.0,0.0,0.0,0.0,0.0,0.0,0.0,0.0,0.0,0.0,0.0,0.0,0.0,0.0,0.0,0.0,0.0,0.0,0.0,0.0,0.0,0.0,0.0,0.0,0.0,0.0,0.0,0.0,0.0,0.0,0.0,3.7225,3.9435,4.0787,4.0341,4.0714,4.0215,3.8265,3.6291,3.4202,3.1912,3.0247,0.0,0.0,0.0,0.0,0.0,0.0,0.0,0.0,0.0,0.0,0.0,0.0,0.0,0.0,0.0,0.0,0.0,0.0,0.0,0.0,0.0,0.0,0.0,0.0,0.0,0.0,0.0,0.0,0.0,0.0,0.0,0.0,0.0,0.0,0.0,0.0,0.0,0.0,0.0,0.0,0.0,0.0,0.0,0.0,0.0,0.0,0.0,0.0,0.0,0.0,0.0,0.0,0.0,4.9857,4.9802,4.9802,4.9802,4.9398,4.8384,4.4182,4.1756,4.0662,3.9044,0.0,0.0,0.0,0.0,0.0,0.0,0.0,0.0,0.0,0.0,0.0,0.0,0.0,0.0,0.0,0.0,0.0,0.0,0.0,0.0,0.0,0.0,0.0,0.0,3.8211,3.7903,0.0,0.0,0.0,0.0,0.0,0.0,0.0,0.0,0.0,0.0,0.0,0.0,3.8259,3.9889,4.1177,4.1833,4.1361,4.0683,3.9838,3.7753,3.5536,3.3314,3.1533,3.0202,0.0,0.0,0.0,0.0,0.0,0.0,0.0,0.0,0.0,0.0,0.0,0.0,0.0,0.0,0.0,0.0,0.0,0.0,0.0,0.0,0.0,0.0,0.0,0.0,0.0,0.0,0.0,0.0,0.0,0.0,0.0,0.0,3.7621,3.835,0.0,0.0,0.0,0.0,0.0,0.0,0.0,0.0,0.0,0.0,0.0,0.0,0.0,5.1031,5.4173,5.381,5.4425,5.6045,5.5286,5.4917,5.4917,5.504,5.4657,5.3826,5.2661,0.0,4.421,4.2601,0.0,0.0,0.0,0.0,0.0,0.0,0.0,0.0,0.0,0.0,0.0,0.0,0.0,0.0,0.0,0.0,0.0,0.0,0.0,0.0,0.0,0.0,4.1873,4.1738,4.1823,4.1665,0.0,3.8338,3.6347,3.6427,3.5932,0.0,0.0,0.0,0.0,0.0,0.0,0.0,3.9373,4.1135,4.228,4.2328,4.228,4.1665,4.0171,3.8546,3.6856,3.5155,3.2883,3.1269,3.0515,2.9845,0.0,0.0,0.0,0.0,0.0,0.0,0.0,0.0,0.0,0.0,0.0,0.0,0.0,0.0,0.0,0.0,0.0,0.0,0.0,0.0,0.0,0.0,0.0,0.0,0.0,0.0,0.0,0.0,0.0,3.8223,3.9429,4.0656,4.0666,4.0349,0.0,0.0,0.0,0.0,0.0,0.0,0.0,0.0,0.0,5.2897,5.4083,5.6203,5.9421,5.9189,5.9854,6.1392,6.0488,5.9841,5.9467,5.9576,5.9039,5.7993,5.7754,5.5465,5.156,4.7852,4.5562,4.4299,0.0,0.0,0.0,0.0,4.3703,4.439,4.4844,4.5239,0.0,4.5003,0.0,0.0,0.0,0.0,0.0,0.0,0.0,0.0,0.0,0.0,4.3642,4.4008,4.4119,4.4095,4.3708,4.2166,4.0155,0.0,3.7224,3.6932,3.6578,0.0,0.0,0.0,0.0,3.9323,4.0582,4.2271,4.3531,4.3986,4.3656,4.2955,4.1819,4.0287,3.8683,3.7081,3.5127,3.3697,3.2911,3.1656,3.0969,0.0,0.0,0.0,0.0,0.0,0.0,0.0,0.0,0.0,0.0,0.0,0.0,0.0,0.0,0.0,0.0,0.0,0.0,0.0,0.0,0.0,0.0,0.0,0.0,0.0,0.0,0.0,0.0,4.0404,4.1776,4.3648,4.3776,4.3531,0.0,0.0,0.0,0.0,0.0,0.0,5.1453,5.2697,5.4895,5.8402,5.955,6.1538,6.4545,6.4374,6.4765,6.5789,6.4874,6.4039,6.3312,6.3488,6.2825,6.1526,6.1655,6.0415,5.7923,5.2985,4.999,4.8435,4.7567,4.6876,4.6411,4.7026,4.7398,4.7661,4.8078,4.8345,4.8389,4.7614,4.6486,4.5301,4.455,0.0,0.0,0.0,0.0,4.2974,4.3844,4.4702,4.5479,4.6053,4.6169,4.6169,4.6173,4.5522,4.3814,0.0,3.9165,3.8832,3.8103,0.0,0.0,0.0,0.0,4.0893,4.204,4.3292,4.4402,4.5234,4.4623,4.3838,4.3064,4.1748,4.0172,3.8343,3.6902,3.5691,3.4667,3.2994,3.2104,3.2101,0.0,0.0,0.0,0.0,0.0,0.0,0.0,0.0,0.0,0.0,0.0,0.0,0.0,0.0,0.0,0.0,0.0,0.0,0.0,0.0,0.0,0.0,0.0,0.0,0.0,0.0,0.0,0.0,0.0,4.7245,4.7411,0.0,0.0,0.0,0.0,4.9079,4.992,5.2148,5.6315,5.81,6.0921,6.5162,6.635,6.8035,7.0456,6.9699,6.9159,6.8765,6.796,6.7117,6.6293,6.6607,6.5974,6.4585,6.484,6.3558,6.0985,5.7199,5.4686,5.3076,5.2257,5.1921,5.1907,5.1945,5.2523,5.3158,5.2323,5.2506,5.276,5.027,4.7694,4.5573,4.5447,4.4874,0.0,0.0,4.5589,4.5884,4.6749,4.7593,4.8202,4.824,4.8244,4.8244,4.8244,4.7561,4.6158,0.0,4.2272,4.1475,4.0747,0.0,3.9981,4.087,4.1293,4.2144,4.3857,4.4191,4.4565,4.5323,4.4728,4.3929,4.3077,4.2338,4.0885,3.8452,3.7494,3.6334,3.4768,3.3014,3.2098,3.2097,3.1232,0.0,0.0,0.0,0.0,0.0,0.0,0.0,0.0,0.0,0.0,0.0,0.0,0.0,0.0,0.0,0.0,0.0,0.0,0.0,0.0,0.0,0.0,0.0,0.0,0.0,0.0,0.0,0.0,5.0851,5.1595,0.0,5.3142,5.2528,5.3067,5.5543,5.6892,5.8946,6.1996,6.3847,6.6007,6.8609,6.9645,7.1036,7.2888,7.1959,7.1369,7.111,7.0135,6.9005,6.7787,6.7997,6.7306,6.5963,6.6162,6.5159,6.3343,6.2016,5.9439,5.6257,5.5399,5.471,5.4275,5.4808,5.518,5.5309,5.442,5.4292,5.4202,5.213,5.0388,4.9084,4.915,4.8551,4.7847,4.7729,4.7731,4.7858,4.8264,4.8561,4.8916,4.9448,4.9562,4.9562,4.9562,4.9277,4.8587,4.7144,4.5542,4.4185,4.344,4.271,4.242,4.2921,4.3159,4.352,4.4178,4.4762,4.5241,4.5566,4.5353,4.4672,4.3311,4.2499,4.1258,3.9326,3.793,3.6923,3.6407,3.4698,3.3506,3.295,3.2087,3.1369,0.0,0.0,0.0,0.0,0.0,0.0,0.0,0.0,0.0,0.0,0.0,0.0,0.0,0.0,0.0,0.0,0.0,0.0,0.0,0.0,0.0,0.0,0.0,0.0,0.0,0.0,5.2113,5.5284,5.5942,5.6601,5.7832,5.7546,5.8219,6.0428,6.2074,6.4063,6.6532,6.8059,6.9758,7.1746,7.2406,7.3367,7.4667,7.3959,7.3227,7.249,7.1788,7.0631,6.9163,6.9304,6.8728,6.7576,6.742,6.6584,6.5314,6.4456,6.2369,5.9664,5.877,5.7883,5.7149,5.771,5.7881,5.7647,5.6475,5.5685,5.4953,5.3489,5.2335,5.1551,5.1649,5.1237,5.0667,5.0266,4.9961,4.9777,4.9912,4.9747,4.9685,5.0246,5.0385,5.0398,5.0398,5.0114,4.9795,4.9556,4.8022,4.6544,4.5805,4.5038,4.4616,4.4829,4.4739,4.466,4.4731,4.5257,4.5657,4.5698,4.5714,4.5075,4.346,4.2592,4.131,3.9369,3.7706,3.6822,3.6861,3.5189,3.4134,3.3848,3.2686,3.1807,3.1204,0.0,0.0,0.0,0.0,0.0,0.0,0.0,0.0,0.0,0.0,0.0,0.0,0.0,0.0,0.0,0.0,0.0,0.0,0.0,0.0,0.0,0.0,0.0,5.1882,5.3406,5.6167,6.0539,6.0392,6.0626,6.2431,6.1756,6.1901,6.3583,6.5178,6.7162,6.9655,7.058,7.2198,7.4736,7.4832,7.5215,7.5991,7.5883,7.4846,7.2919,7.2919,7.2024,7.0416,7.0609,7.0273,6.9461,6.8723,6.7917,6.6898,6.4378,6.3375,6.3307,6.2341,6.1396,6.0629,6.0685,6.066,6.0323,5.8592,5.6882,5.5301,5.4345,5.3441,5.2703,5.2684,5.2684,5.271,5.2818,5.2263,5.1667,5.1781,5.1211,5.0635,5.0701,5.0763,5.0811,5.0811,5.0102,4.9702,5.052,4.9644,4.8554,4.7815,4.7011,4.6544,4.6671,4.6062,0.0,4.5643,4.5695,4.5717,4.5708,4.5765,4.5155,4.3586,4.2673,4.1129,3.8604,3.6926,3.6033,3.5991,3.439,3.39,3.4713,3.3046,3.2133,3.2036,0.0,0.0,0.0,0.0,0.0,0.0,0.0,0.0,0.0,0.0,0.0,0.0,0.0,0.0,0.0,0.0,0.0,0.0,0.0,0.0,0.0,0.0,5.6218,5.5566,5.805,6.1147,6.4366,6.4636,6.5264,6.7091,6.6443,6.6621,6.825,6.9314,7.0455,7.1728,7.3149,7.4309,7.5063,7.5654,7.6067,7.6304,7.616,7.5163,7.3332,7.3238,7.2314,7.0699,7.0762,7.0359,6.9602,6.8769,6.7917,6.6968,6.51,6.3974,6.3318,6.18,6.1046,6.0834,6.0899,6.0437,5.9646,5.8462,5.7302,5.6206,5.5307,5.4836,5.4645,5.4694,5.4743,5.4668,5.4114,5.3371,5.2645,5.2145,5.1417,5.0847,5.0966,5.1004,5.1024,5.1088,5.0855,5.0526,5.0112,5.0179,5.0188,4.9835,4.9075,4.8528,4.8625,4.7998,0.0,4.6639,4.659,4.6422,4.5829,4.5834,4.5479,4.4501,4.3092,4.1467,3.9544,3.78,3.6603,3.6013,3.6109,3.5968,3.5587,3.4472,3.3579,0.0,0.0,0.0,0.0,0.0,0.0,0.0,0.0,0.0,0.0,0.0,0.0,0.0,0.0,0.0,0.0,0.0,0.0,0.0,0.0,0.0,0.0,5.8123,6.1266,6.2213,6.3166,6.4809,6.7579,6.7697,6.8131,6.9597,6.9603,6.9902,7.0836,7.1976,7.2971,7.3779,7.4713,7.541,7.5818,7.6282,7.6505,7.6467,7.6037,7.5101,7.365,7.3189,7.2261,7.0925,7.0898,7.0635,7.0148,6.8943,6.8161,6.7583,6.5596,6.4323,0.0,0.0,0.0,0.0,0.0,6.0684,6.0071,5.9103,5.8154,5.7234,5.6355,5.583,5.5539,5.5607,5.5643,5.5611,5.5181,5.4477,5.3663,5.2918,5.2126,5.1464,5.12,5.1166,5.1201,5.1234,5.0927,5.0592,5.0451,5.0485,0.0,5.0814,5.0066,4.9444,4.9483,4.8814,4.7973,4.7056,4.6994,4.674,4.5925,4.5935,4.5667,4.4911,4.3611,0.0,0.0,0.0,3.7364,3.654,3.7301,0.0,0.0,0.0,3.5405,3.4836,0.0,0.0,0.0,3.5445,3.5727,0.0,0.0,0.0,0.0,0.0,0.0,0.0,0.0,0.0,0.0,0.0,0.0,0.0,0.0,0.0,0.0,6.2498,6.6407,6.962,6.8204,6.7794,7.0316,6.9954,6.9863,7.079,7.159,7.2096,7.2194,7.3593,7.4767,7.5461,0.0,0.0,0.0,0.0,7.6693,7.6643,7.5866,7.4955,7.3916,7.3071,7.2117,7.1111,7.1056,7.0992,7.0856,6.9232,6.8562,6.8421,6.5952,6.4434,6.3591,6.2594,6.1772,6.1145,6.1156,6.1159,6.1066,6.0065,0.0,0.0,5.7305,5.6438,5.5756,5.5808,5.5847,5.5864,5.599,5.5404,5.4599,5.3948,5.3166,5.2373,5.1564,5.1409,5.1437,5.132,5.0699,5.0355,5.1029,5.0621,5.0348,5.0965,5.0359,4.9778,4.9756,4.9107,4.8296,4.741,4.7364,4.7074,4.615,0.0,0.0,4.5111,4.425,4.307,4.1488,3.9747,3.8471,3.7804,3.8508,3.8555,3.7786,3.7765,3.7683,3.7521,3.7385,3.7742,3.8498,3.7473,3.7441,0.0,0.0,0.0,0.0,0.0,0.0,0.0,0.0,0.0,0.0,0.0,0.0,0.0,0.0,0.0,6.1921,6.6098,6.9409,7.0889,7.1329,7.1752,7.2402,7.1827,7.1726,7.2611,7.2853,7.3231,7.3933,7.4831,7.5418,7.5573,7.6232,7.6713,7.693,7.6897,7.6884,7.6921,7.6648,7.5716,7.414,0.0,0.0,7.1266,7.1205,7.119,7.1128,6.9401,6.8693,6.8576,6.6089,6.4237,6.2904,6.2005,6.1564,6.1419,6.1428,6.1361,6.1147,6.0184,5.9253,5.8317,5.7371,5.656,5.5958,5.6017,5.6085,0.0,5.6219,5.5653,5.4985,5.4845,5.4215,5.3405,5.2607,5.2411,5.223,5.1538,5.1256,5.097,5.0443,5.0754,5.0965,5.0408,5.0626,5.0858,5.0759,5.0636,5.0209,4.9306,4.9285,4.8757,4.7192,4.7155,4.6879,4.6022,4.515,4.4211,4.3184,4.1423,4.0707,4.1295,4.1412,4.1435,4.1322,4.126,4.0876,4.016,4.0031,4.0404,4.1216,3.9558,3.8915,0.0,0.0,0.0,0.0,0.0,0.0,0.0,0.0,0.0,0.0,0.0,5.3086,5.6093,0.0,6.2017,6.496,6.8351,7.0938,7.1876,7.2434,7.2798,7.297,7.2732,7.273,7.3154,7.3952,7.4621,7.5074,7.5774,7.6228,7.6242,7.6623,7.689,7.6993,7.6962,7.698,7.7004,7.6462,7.5781,7.4944,7.3923,7.2973,7.2073,7.1591,7.1337,7.126,6.9537,6.8839,6.8715,6.6261,6.456,6.3417,6.2589,6.1957,6.1543,6.1544,6.149,6.1331,6.0808,5.977,5.8579,5.8091,5.714,5.6154,5.6226,5.6267,5.6319,5.6378,5.6104,5.5712,5.5305,5.4895,5.4281,5.2993,5.2706,5.2458,5.1582,5.1391,5.1278,5.0832,5.1106,5.1262,5.0829,5.1066,5.1277,5.1176,5.1146,5.0812,4.986,4.9839,4.9404,4.8132,4.8096,4.7816,4.6975,4.5675,4.4713,4.4273,4.2961,4.2412,4.2883,4.2859,4.2878,4.2893,4.2869,4.2612,4.2144,4.2086,4.2276,4.2685,4.2214,4.1794,0.0,0.0,0.0,0.0,0.0,0.0,0.0,5.0758,5.3036,5.3398,5.5548,5.8087,6.0489,6.3016,6.544,6.7587,6.9965,7.1794,7.2491,7.2644,7.2666,7.2662,7.2795,7.3027,7.3364,7.4625,7.5544,7.5844,7.6429,7.6774,7.6843,7.6808,7.685,7.6956,7.6962,7.698,7.6974,7.6222,7.58,7.568,7.4178,7.3273,7.291,7.2147,7.1672,7.1374,6.9709,6.8812,6.839,6.6293,6.493,6.4118,6.3305,6.2437,6.1621,6.1623,6.1573,6.15,6.1451,6.0306,5.8843,5.8834,5.7695,5.6359,5.6392,5.6414,5.643,5.6491,5.6517,5.6371,5.5728,5.556,5.5153,5.3583,5.3214,5.2962,5.2084,5.1908,5.1909,5.1912,5.1913,5.1913,5.1913,5.1913,5.1769,5.138,5.1265,5.0957,5.0188,5.0144,4.9858,4.9068,4.9015,4.872,4.7896,4.6509,4.5655,4.5666,4.4939,4.4506,4.4516,4.4331,4.4243,4.4238,4.4068,4.3966,4.3926,4.3903,4.3908,4.3947,4.4657,4.4516,4.5414,4.7175,4.8978,4.9779,5.0789,5.1943,0.0,5.4701,5.6024,5.7633,6.0051,6.2424,6.4275,6.6695,6.8741,6.973,7.1336,7.2491,7.2587,7.256,7.2274,7.1562,7.1656,7.2385,7.3937,7.4253,7.4954,7.6391,7.6572,7.6622,7.6631,7.6678,7.6738,7.683,7.6811,7.6845,7.6908,7.6813,7.6404,7.5694,7.5493,7.4572,7.3066,7.2906,7.2438,7.1667,6.9985,6.8385,6.6877,6.5882,6.4974,6.4121,6.3313,6.2459,6.1693,6.1696,6.165,6.1595,6.1586,6.0443,5.8987,5.899,5.7849,5.6473,5.6488,5.6497,5.6506,5.6569,5.6595,5.6579,5.6471,5.6454,5.6201,5.5246,5.5012,5.4779,5.3904,5.3709,5.371,5.3711,5.3711,5.3711,5.3711,5.3711,5.3181,5.1611,5.1377,5.1316,5.1147,5.114,5.0842,5.0037,4.9948,4.9594,4.8742,4.8476,4.8359,4.8368,4.8206,4.8124,4.8117,4.731,4.6876,4.6865,4.6113,4.576,4.5799,4.5745,4.5745,4.5797,4.5967,4.5527,4.7721,4.9497,5.1317,5.2588,5.4332,5.6059,5.7342,5.917,6.0798,6.1577,6.3456,6.5349,6.6502,6.8003,6.9298,0.0,7.1093,7.183,7.173,7.1305,7.0854,7.054,7.0105,7.0564,7.2388,7.344,7.4509,7.5711,7.5758,7.598,7.6565,7.6633,7.6687,7.6797,7.6847,7.6869,7.6904,7.691,7.6741,7.6443,7.5936,7.5079,7.3894,7.3358,7.2098,7.0306,6.9602,6.8334,6.67,6.5891,6.505,6.4172,6.3338,6.2462,6.1698,6.1705,6.167,6.1598,6.1077,6.0083,5.8975,5.8474,5.7509,5.6562,5.6555,5.6563,5.6552,5.6598,5.6605,5.6591,5.6596,5.6597,5.6383,5.5506,5.5292,5.5057,5.4199,5.4003,5.4004,5.4004,5.4004,5.4004,5.4004,5.4004,5.375,5.3023,5.2875,5.2839,5.2821,5.2813,5.2508,5.1696,5.1164,5.0524,4.9684,4.9113,4.8808,4.881,4.8778,4.8743,4.869,4.8329,4.7855,4.731,4.6988,4.6578,4.6103,4.6105,4.6138,4.6154,4.6183,4.5991,4.9979,5.1857,5.3928,5.5793,5.8011,6.0149,6.1571,6.3273,6.4643,6.4893,6.5849,6.6808,6.7345,6.8139,6.8932,6.9644,7.0393,7.0942,7.1055,7.0355,6.9764,6.9514,6.8935,6.898,7.0105,7.1992,7.348,7.4328,7.4808,7.5384,7.6153,7.6419,7.6651,7.6813,7.6844,7.6886,7.6889,7.6897,7.6923,7.6985,7.6151,7.5296,7.4441,7.3098,7.1312,6.9299,6.9064,6.8012,6.6404,6.5828,6.4941,6.3887,6.3243,6.2462,6.1698,6.1707,6.1549,6.1256,6.062,5.9667,5.8641,5.8016,5.726,5.6606,5.6608,5.6596,5.6602,5.6606,5.6592,5.6596,5.66,5.66,5.6444,5.5801,5.5664,5.5488,5.4844,5.4726,5.4726,5.4726,5.4726,5.4726,5.4726,5.4726,5.4726,5.4726,5.4685,5.4462,5.3987,5.394,5.3707,5.3116,5.2498,5.1874,5.1307,5.0408,4.9877,4.9887,4.9655,4.9496,4.9448,4.9218,4.8635,4.7696,4.7522,4.6997,4.6128,4.6177,4.6209,4.619,4.6182,4.6167,5.1916,5.4474,5.7553,6.0007,6.1944,6.3931,6.6571,6.6688,6.6486,6.7398,6.7009,6.6509,6.6543,6.7204,6.798,6.8733,6.94,7.011,7.0902,7.0259,6.9379,6.8552,6.8417,6.809,0.0,6.9629,7.1518,7.2328,7.3954,7.4982,7.5152,7.6017,7.6585,7.6785,7.6793,7.6832,7.6904,7.6891,7.6929,7.6985,7.6174,7.5332,7.4418,7.1843,7.0165,6.926,6.8487,6.7142,6.5543,6.5577,6.4589,6.3047,6.3008,6.2462,6.1698,6.1698,6.1171,6.0432,6.0412,5.928,5.7836,5.7816,5.727,5.6608,5.6598,5.6602,5.6605,5.6597,5.6599,5.66,5.6601,5.6601,5.6582,5.6562,5.6562,5.6543,5.6523,5.6523,5.6523,5.6523,5.6523,5.6523,5.6523,5.6523,5.6523,5.6523,5.6523,5.5918,5.4217,5.3999,5.3996,5.3957,5.3941,5.3904,5.3885,5.3085,5.2578,5.2576,5.1792,5.1313,5.1314,5.0506,4.9621,4.8679,4.7883,4.7079,4.6208,4.6207,4.6209,4.6191,4.6131,4.6095,5.5728,5.797,6.0357,6.3421,6.5062,6.6174,6.7124,6.7622,6.7513,6.6166,6.5702,6.4998,6.3289,6.4072,6.5035,6.5192,6.7266,6.9149,6.9948,6.9786,6.9286,6.8481,6.7898,0.0,0.0,0.0,0.0,7.1332,7.2638,7.3919,7.5158,7.6164,7.6759,7.6865,7.6871,7.6876,7.6894,7.6936,7.6715,7.6197,7.4809,7.3952,7.3579,7.1563,7.0183,6.9327,6.847,6.7099,6.5455,6.4958,6.4046,6.2933,6.2365,6.1955,6.1701,6.1701,6.1156,6.0315,5.9733,5.9143,5.848,5.7367,5.6825,5.6596,5.66,5.6609,5.6596,5.6599,5.66,5.6601,5.6601,5.6601,5.6601,5.6601,5.6601,5.6601,5.6601,5.6601,5.6601,5.6601,5.6601,5.6601,5.6601,5.6601,5.6601,5.6601,5.6601,5.6387,5.5801,5.5721,5.5504,5.4918,5.4861,5.4627,5.4041,5.373,5.3555,5.3554,5.2733,5.2261,5.2259,5.1436,5.0539,4.9643,4.8808,4.7926,4.706,4.6433,4.6122,4.6128,4.605,4.6022,5.9002,6.122,6.3407,6.65,6.7443,6.7724,6.8114,6.7707,6.6741,6.4841,6.3264,6.1705,6.0071,6.0596,6.1628,6.271,6.5455,6.8037,6.9783,6.998,6.9912,6.9769,6.8725,6.7847,0.0,0.0,0.0,7.0097,7.1977,7.3597,7.4844,7.614,7.6871,7.6965,7.6975,7.6973,7.6981,7.7004,7.648,7.5345,7.3968,7.2951,7.2254,7.0863,6.9765,6.8875,6.7676,6.6379,6.5002,6.4188,6.3311,6.2471,6.1924,6.1709,6.1709,6.1709,6.1358,6.0732,5.9862,5.9175,5.849,5.7418,5.6855,5.6606,5.6609,5.6595,5.6599,5.66,5.6601,5.6601,5.6601,5.6601,5.6601,5.6601,5.6601,5.6601,5.6601,5.6601,5.6601,5.6601,5.6601,5.6601,5.6601,5.6601,5.6601,5.6601,5.6601,5.6601,5.6601,5.66,5.6383,5.5816,5.5758,5.5543,5.4976,5.4648,5.4453,5.4453,5.3652,5.3027,5.2715,5.2168,5.1307,5.0111,4.9503,4.8618,4.7468,4.6828,4.6372,4.606,4.5989,4.5962,6.1835,6.4293,6.6749,6.9219,6.9167,6.8719,6.9438,6.7017,6.4363,6.3378,5.9908,5.7024,5.6889,5.6926,5.8,6.1154,6.3899,6.6817,7.0191,7.0787,7.1199,0.0,0.0,0.0,0.0,0.0,0.0,6.8906,0.0,7.3976,7.4262,7.595,7.697,7.7094,7.7056,7.7034,7.7046,7.6948,7.6118,7.4528,7.3645,7.2333,7.0671,6.9806,6.8923,6.8006,6.6268,6.5043,6.423,6.3351,6.2491,6.169,6.169,6.169,6.169,6.169,6.169,6.1574,6.0753,5.9406,5.8018,5.7979,5.7374,5.6672,5.6676,5.6638,5.66,5.6601,5.6601,5.6601,5.6601,5.6601,5.6601,5.6601,5.6601,5.6601,5.6601,5.6601,5.6601,5.666,5.668,5.668,5.668,5.6621,5.6601,5.6601,5.6601,5.6601,5.6601,5.6599,5.6593,5.6593,5.6593,5.6593,5.6593,5.5839,5.5371,5.5371,5.4551,5.3671,5.2791,5.2724,5.1907,5.0184,4.9987,4.9112,4.7529,4.7409,4.6942,4.6133,4.6067,4.6016,6.6027,6.8232,6.9931,7.1239,7.0918,6.9667,6.7404,6.5211,6.2709,5.9356,5.6815,5.4601,5.2704,5.3837,5.5542,5.6932,6.1377,6.5637,6.8474,7.0488,0.0,7.2154,7.1822,7.1356,7.0818,7.1219,0.0,0.0,7.2623,7.3764,7.5168,7.6399,7.7053,7.7107,7.653,7.6202,7.6204,7.4919,7.4042,7.3613,7.2753,7.1756,7.0679,6.98,6.8959,6.808,6.6322,6.5094,6.4238,6.3359,6.2499,6.1698,6.1698,6.1698,6.1698,6.1698,6.1698,6.1679,6.1445,6.0661,5.966,5.9014,5.8236,5.7575,5.7576,5.7128,5.6601,5.6601,5.6601,5.6601,5.6601,5.6601,5.6601,5.6601,5.6601,5.6601,5.6601,5.6601,5.6797,5.7441,5.7578,5.7578,5.7578,5.7031,5.6601,5.6601,5.6601,5.6601,5.6601,5.66,5.6598,5.6598,5.6598,5.6598,5.6598,5.6406,5.6269,5.6269,5.5449,5.4567,5.3622,5.2962,5.211,5.1011,5.0263,4.9693,4.9255,4.8588,4.8151,4.7932,4.7863,4.7481,6.9874,7.1618,7.2687,7.3187,7.1533,6.9013,6.6013,6.2839,5.955,5.6049,5.3395,5.125,4.9808,5.1296,5.347,5.5667,6.0359,6.5044,6.8771,7.1475,7.3415,7.4327,7.4461,0.0,7.3446,7.3574,7.3779,0.0,7.4028,7.4503,7.5601,7.6578,7.6946,7.6574,7.613,7.5721,7.5331,7.3984,7.3301,7.3281,7.2422,7.1347,7.0116,6.9628,6.8534,6.6972,0.0,6.4531,6.3652,6.2793,6.2148,6.1699,6.1699,6.1699,6.1699,6.1699,6.1699,6.1699,6.1699,6.1386,6.0837,5.9958,5.9139,5.8476,5.8476,5.7851,5.7168,5.7168,5.6894,5.6601,5.6601,5.6601,5.6601,5.6601,5.6601,5.6699,5.709,5.7168,5.7422,5.8301,5.8476,5.8476,5.8476,5.8066,5.7734,5.7734,5.7734,5.7734,5.7734,5.7069,5.6599,5.6599,5.6599,5.6599,5.6599,5.6601,5.6601,5.6601,5.6132,5.5464,5.4554,5.3645,5.2766,5.1885,5.0923,5.0242,4.9892,4.9384,4.8928,4.8553,4.8522,4.8236,7.3164,7.4389,7.4942,7.4601,7.1423,6.7596,6.4609,6.0069,5.5703,5.2933,4.9827,4.7597,4.7597,4.9057,5.1519,5.5389,5.9777,6.4393,6.9346,7.2506,7.5039,7.6919,7.7391,7.729,7.6564,7.5913,7.5595,7.5668,7.5683,7.5747,7.5885,7.656,7.651,7.5583,7.5546,7.5137,7.4258,7.3515,7.3125,7.3125,7.2246,7.0976,6.9414,6.9297,6.791,6.5547,6.4687,6.3808,6.293,6.2051,6.1699,6.1699,6.1699,6.1699,6.1699,6.1699,6.1699,6.1699,6.1699,6.1699,6.1582,6.082,6.0019,5.9355,5.9355,5.8769,5.8066,5.8066,5.7539,5.6953,5.6953,5.6953,5.6953,5.6953,5.6953,5.7148,5.791,5.8164,5.8457,5.9219,5.9355,5.9355,5.9355,5.9277,5.9199,5.9199,5.9199,5.9199,5.9199,5.787,5.6951,5.6951,5.6834,5.6776,5.6776,5.6679,5.6601,5.6601,5.66,5.6204,5.5313,5.451,5.3607,5.2625,5.1745,5.0911,5.0082,5.0023,4.9606,4.8856,4.8839,4.8785,7.503,7.5983,7.6179,7.407,7.0958,6.6981,6.1608,5.7011,5.2741,4.8798,4.6357,4.4966,4.4957,4.6819,4.9294,5.2104,5.7271,6.2249,6.6044,7.057,7.4211,7.6082,7.7591,7.8213,7.7527,7.7437,0.0,0.0,7.6707,7.6778,7.6858,7.6373,7.5388,7.3808,7.375,7.332,7.2461,7.2305,7.2226,7.2207,7.1347,7.043,6.9453,6.873,6.7383,6.5547,6.4687,0.0,6.293,6.2051,6.1699,6.1699,6.1699,6.1699,6.1699,6.1699,6.1699,6.1699,6.1699,6.1699,6.168,6.1523,6.0898,6.0195,6.0195,5.9629,5.8965,5.8965,5.8867,5.875,5.875,5.875,5.875,5.875,5.875,5.8789,5.8945,5.9492,6.0019,6.0156,6.0195,6.0195,6.0195,5.9648,5.9199,5.9199,5.9199,5.9199,5.9199,5.8945,5.875,5.875,5.8105,5.7676,5.7676,5.7012,5.6601,5.6601,5.6599,5.6179,5.5267,5.5062,5.4229,5.2629,5.2418,5.1918,5.1064,5.0992,5.0888,5.0725,5.0675,5.0253,7.6725,7.7425,7.7147,7.4612,7.081,6.6167,6.0223,5.5261,5.0818,4.7009,4.4839,4.3613,4.3586,4.5563,4.8067,5.0612,5.5643,6.061,6.4531,6.9495,7.3577,7.5826,7.7691,7.8706,7.8452,7.8172,7.7701,7.6999,7.7013,7.6873,7.6458,7.5229,7.416,7.332,7.2851,7.2422,7.1992,7.1992,7.1992,7.1992,7.1113,7.0273,6.9472,6.8594,6.6992,6.4902,6.4473,0.0,6.2285,6.1875,6.1699,6.1699,6.1699,6.1699,6.1699,6.1699,6.1699,6.1699,6.1699,6.1698,6.1698,6.1697,6.1425,6.1074,6.1074,6.0488,5.9824,5.9824,5.9512,5.9199,5.9199,5.9199,5.9199,5.9199,5.9512,5.9824,5.9824,6.0488,6.1074,6.1074,6.1074,6.1074,6.1074,6.0762,6.0508,6.0508,6.0508,6.0508,6.0508,6.0508,6.0176,5.9297,5.8828,5.8574,5.8574,5.7773,5.7285,5.7285,5.6853,5.6399,5.5941,5.5454,5.4811,5.3975,5.3511,5.2854,5.1982,5.1918,5.1639,5.1208,5.1128,5.0854,7.7462,7.8012,7.7464,7.4927,7.0378,6.4962,5.8877,5.353,4.8913,4.549,4.3551,4.2482,4.261,4.4365,4.6623,4.9198,5.3644,5.828,6.2586,6.7795,7.2205,7.5015,7.7316,0.0,7.8874,7.845,0.0,7.6802,7.6468,7.6075,7.557,7.4119,7.3203,7.3027,7.2187,7.1816,7.1992,7.164,7.1543,7.1719,7.0664,6.9824,6.9199,6.832,6.6601,6.4297,6.4297,0.0,0.0,6.1699,6.1699,6.1699,6.1699,6.1699,6.1699,6.1699,6.1699,6.1698,6.1695,6.1694,6.1671,6.1684,6.1693,6.1698,6.1698,6.121,6.0683,6.0683,6.0215,5.9746,5.9746,5.9746,5.9746,5.9746,6.0215,6.0683,6.0683,6.1211,6.1699,6.1699,6.1699,6.1699,6.1699,6.1699,6.1699,6.1699,6.1699,6.1699,6.1699,6.1699,6.1191,5.9883,5.957,5.9453,5.9453,5.8672,5.8105,5.791,5.7265,5.6793,5.6614,5.5882,5.5406,5.5228,5.4548,5.3769,5.288,5.2801,5.2427,5.1722,5.1638,5.1499,7.6203,7.6943,7.6454,7.3955,6.9006,6.299,5.6365,5.0914,4.6278,4.2846,4.1338,4.0875,4.1662,4.2545,4.4001,4.6626,5.0104,5.3993,5.8352,6.4087,6.9107,7.2523,0.0,0.0,7.8178,7.8246,7.7617,7.6022,7.4515,7.3962,7.4667,7.3808,7.2949,7.2148,7.1269,7.1191,7.1992,7.0488,7.0097,7.0801,6.9199,6.8398,6.8281,6.7422,6.6015,6.4297,6.4297,0.0,0.0,6.1699,6.1699,6.1699,6.1699,6.1699,6.1697,6.1697,6.1693,6.1701,6.1701,6.1668,6.161,6.1607,6.1653,6.1691,6.1691,6.1636,6.158,6.158,6.1523,6.1465,6.1465,6.1465,6.1465,6.1465,6.1523,6.1582,6.1582,6.164,6.1699,6.1699,6.1699,6.1699,6.1699,6.1699,6.1699,6.1699,6.1699,6.1699,6.1699,6.1699,6.164,6.1484,6.0762,6.0293,6.0293,5.9551,5.873,5.7949,5.7812,5.7439,5.6638,5.6517,5.6104,5.5304,5.5218,5.4713,5.3774,5.3712,5.3618,5.3475,5.3342,5.2883,7.3032,7.4552,7.4724,7.1674,6.7327,6.2002,5.525,5.0183,4.5923,4.25,4.1094,4.0573,4.0918,4.1611,4.2848,4.4963,4.7803,5.1254,5.5629,6.0528,6.516,6.9176,7.228,7.4569,0.0,0.0,7.6532,7.5901,7.4274,7.3457,7.3808,7.2988,7.2129,7.125,7.0879,7.0605,7.0449,6.9765,6.9609,6.9902,6.875,6.8203,6.8144,6.6758,6.5449,6.4277,6.375,0.0,0.0,6.1699,6.1699,6.1699,6.1699,6.1697,6.1692,6.1645,6.1633,6.1635,6.1637,6.1595,6.1549,6.1537,6.1549,6.1598,6.1637,6.1633,6.1644,6.1691,6.1696,6.1698,6.1699,6.1699,6.1699,6.1699,6.1699,6.1699,6.1699,6.1699,6.1699,6.1698,6.1698,6.1698,6.1696,6.1695,6.1696,6.1698,6.1698,6.1699,6.1699,6.1699,6.1699,6.1699,6.1387,6.1172,6.1172,6.041,5.9765,5.9433,5.8457,5.7734,5.7402,5.6874,5.6444,5.6092,5.6087,5.5624,5.4679,5.4621,5.428,5.3708,5.3596,5.3085,6.9097,7.1182,7.1904,6.9006,6.4985,6.013,5.3885,4.9183,4.524,4.2066,4.0938,4.0502,4.0502,4.0952,4.1934,4.3759,4.5831,4.8742,5.3117,5.7218,6.1376,6.5729,0.0,7.163,7.3488,7.4519,7.5197,7.5486,7.3906,7.293,7.293,7.2324,7.1601,7.0722,7.0449,7.0019,6.9414,6.8906,6.8789,6.9043,6.8203,6.7812,6.7773,6.6289,6.5117,6.4258,6.3379,0.0,0.0,6.1699,6.1699,6.1699,6.1698,6.1693,6.1662,6.162,6.1592,6.1576,6.1553,6.15,6.1448,6.1445,6.1439,6.1456,6.1528,6.1566,6.1601,6.1681,6.1694,6.1698,6.1699,6.1699,6.1699,6.1699,6.1699,6.1699,6.1699,6.1699,6.1698,6.1696,6.1673,6.1669,6.1662,6.168,6.1662,6.1668,6.1692,6.1695,6.1697,6.1698,6.1699,6.1699,6.1699,6.1699,6.1699,6.1133,6.0664,6.043,5.9062,5.8164,5.791,5.7051,5.6601,5.6601,5.6599,5.6256,5.5571,5.5512,5.5137,5.4464,5.4386,5.3704,6.4554,6.6755,6.7691,6.6059,6.187,5.6844,5.1865,4.7413,4.3605,4.1035,4.0515,4.0502,4.0502,4.0503,4.112,4.2922,4.4002,4.6175,5.0626,5.4182,5.7973,6.2328,6.6672,7.0005,7.1764,7.2774,7.369,7.4551,7.3008,0.0,7.2012,7.1992,7.1601,7.0722,6.9863,6.9414,6.9394,6.7754,6.7363,6.8203,6.7324,6.6914,6.6875,6.5996,6.5117,0.0,0.0,0.0,0.0,6.1699,6.1699,6.1699,6.1698,6.1668,6.1598,6.1609,6.1563,6.1478,6.1428,6.1349,6.1302,6.1302,6.1302,6.1318,6.1376,6.1486,6.1607,6.1672,6.1694,6.1699,6.1699,6.1699,6.1699,6.1699,6.1699,6.1699,6.1699,6.1698,6.1696,6.1691,6.1657,6.1598,6.1604,6.1601,6.1601,6.1601,6.1664,6.1697,6.1697,6.1692,6.1697,6.1697,6.1699,6.1699,6.1699,6.1699,6.1328,6.0449,5.9648,5.8808,5.7949,5.7051,5.6601,5.6601,5.6601,5.6554,5.6489,5.6429,5.6349,5.6263,5.6136,5.5144,5.8532,6.034,6.098,5.992,5.6729,5.2845,4.8981,4.5701,4.2912,4.092,4.05,4.0492,4.0492,4.0534,4.1161,4.2976,4.4056,4.6017,4.9846,5.2848,5.6055,5.9814,6.5163,6.9671,0.0,0.0,7.2773,7.3652,7.2656,7.1738,7.1133,7.1113,7.0703,6.9844,6.9531,6.8847,6.7695,6.7168,6.7031,6.7305,6.7031,6.6582,6.5976,6.5117,6.4238,0.0,0.0,0.0,0.0,6.1699,6.1699,6.1699,6.1695,6.1683,6.1654,6.158,6.15,6.1421,6.1342,6.1287,6.1234,6.1286,6.1299,6.1318,6.1421,6.1529,6.1602,6.1684,6.1697,6.1699,6.1699,6.1699,6.1699,6.1699,6.1699,6.1698,6.1695,6.1668,6.1633,6.1632,6.1579,6.1526,6.1524,6.1519,6.1528,6.1521,6.1598,6.1627,6.1625,6.1665,6.1694,6.1697,6.1699,6.1699,6.1699,6.1699,6.1582,6.1308,6.0488,5.9902,5.9629,5.8828,5.8379,5.8379,5.7792,5.7456,5.7387,5.6773,5.6383,5.6213,5.5532,5.4602,5.2288,5.43,5.5079,5.4238,5.2017,4.9288,4.6547,4.4201,4.222,4.0785,4.0496,4.0496,4.0496,4.0545,4.1196,4.3001,4.4106,4.5968,4.9492,5.2272,5.5838,6.0957,6.5755,0.0,0.0,7.2519,7.2226,7.2773,7.1992,7.1133,7.0254,7.0215,6.9824,6.8965,6.8945,6.8281,6.6914,6.6894,6.6894,6.6894,6.6562,6.6133,6.5566,6.4355,6.3515,0.0,0.0,0.0,0.0,6.1699,6.1699,6.1699,6.1695,6.1683,6.1654,6.1534,6.147,6.1389,6.1332,6.1275,6.1245,6.1286,6.1332,6.1389,6.149,6.1573,6.1643,6.1692,6.1699,6.1699,6.1699,6.1698,6.1697,6.1696,6.1695,6.169,6.1678,6.1622,6.1595,6.1573,6.1505,6.1454,6.1427,6.1452,6.1464,6.1462,6.1534,6.1604,6.1592,6.167,6.1708,6.1695,6.1698,6.1699,6.1699,6.1699,6.1699,6.1699,6.0879,6.039,6.039,5.9629,5.9199,5.9199,5.867,5.8199,5.78,5.6893,5.6373,5.6199,5.559,5.4851,0.0,4.8603,4.9872,4.9133,4.7732,4.6105,4.4489,4.2874,0.0,4.0669,4.0496,4.0496,4.0496,4.0622,4.1266,4.3021,4.4238,4.6149,4.9533,5.2528,5.715,0.0,6.7733,0.0,7.2851,7.2324,7.1816,7.1816,7.1074,7.0234,6.9355,6.9316,6.8945,6.8125,6.8047,6.7637,6.6816,6.6816,6.6777,6.6719,6.5898,6.5488,6.5351,6.373,6.2969,0.0,0.0,0.0,0.0,6.1699,6.1699,6.1699,6.1698,6.1669,6.1601,6.1529,6.1452,6.1402,6.1347,6.1314,6.131,6.131,6.1407,6.1517,6.1588,6.1651,6.1702,6.1695,6.1738,6.1794,6.1794,6.179,6.1783,6.1776,6.1733,6.1668,6.1601,6.1579,6.1569,6.1495,6.1427,6.1362,6.131,6.1344,6.1386,6.1393,6.1515,6.1597,6.1599,6.1668,6.1701,6.1709,6.1698,6.1699,6.1699,6.1699,6.1699,6.1699,6.0937,6.0488,6.0488,5.9765,5.9375,5.9373,5.9255,5.8722,5.7787,5.6861,5.6319,5.6199,5.6202,5.5688,4.0007,0.0,4.4899,4.5367,4.4231,4.2885,0.0,4.1566,4.0746,4.0535,4.0496,4.0496,4.0496,4.1104,4.1961,4.3098,4.5223,4.7488,4.9685,5.4556,0.0,6.5,6.6718,6.8496,7.1055,7.0527,7.0039,7.0078,6.9902,6.9394,6.8535,6.8476,6.8086,6.7226,6.6562,6.6113,6.5918,6.5918,6.5566,6.4902,6.4707,6.4258,6.3594,6.3183,6.2637,0.0,0.0,0.0,6.1699,6.1699,6.1699,6.1699,6.1698,6.1693,6.1662,6.1607,6.1541,6.1466,6.1448,6.1427,6.1369,6.1431,6.1517,6.1592,6.1657,6.1686,6.1691,6.1699,6.2184,6.2684,6.2633,6.262,6.2605,6.2551,6.207,6.16,6.1539,6.147,6.1433,6.1356,6.1295,6.1259,6.1294,6.1302,6.1345,6.1386,6.1478,6.1544,6.1584,6.1654,6.1704,6.1695,6.1698,6.1699,6.1699,6.1699,6.1699,6.1699,6.1504,6.1387,6.1387,6.121,6.1111,6.1106,5.9741,5.8616,5.7728,5.6829,5.6322,5.6199,5.6202,5.5688,3.7892,3.9627,4.1418,4.1893,4.1604,4.12,4.12,4.0843,4.0496,4.0496,4.0496,4.0639,4.1058,4.1554,4.2463,4.4176,4.6055,4.8636,5.2453,5.7557,6.2066,6.5215,6.7051,6.8594,0.0,6.9726,6.9121,6.8359,6.8301,6.7754,6.6484,6.6406,6.6191,6.5723,6.5254,6.5195,6.5605,6.5195,6.4765,6.4297,6.3887,6.3457,6.2988,6.2598,6.2148,0.0,0.0,0.0,6.1699,6.1699,6.1699,6.1699,6.1699,6.1697,6.1692,6.1657,6.1593,6.154,6.1553,6.1513,6.1509,6.1533,6.1588,6.1653,6.169,6.1971,6.2305,6.2301,6.2602,6.303,6.3351,6.3441,6.3291,6.2864,6.2415,6.1985,6.1518,6.1376,6.132,6.1275,6.1217,6.121,6.1245,6.1278,6.1314,6.1394,6.1482,6.1567,6.1602,6.1666,6.1708,6.1697,6.1699,6.1699,6.1699,6.1699,6.1699,6.1699,6.1699,6.1699,6.1699,6.1697,6.1666,6.1618,5.9859,5.8717,5.8203,5.6931,5.6264,5.6151,5.6153,5.5865,3.7565,3.843,3.9169,3.9419,3.9996,4.0496,4.0496,4.0496,4.0496,4.0496,4.0516,4.08,4.1717,4.2136,4.3127,4.5613,4.7408,5.0508,5.6289,6.0493,6.3706,6.5586,6.7695,0.0,6.9277,6.9062,6.8281,6.6816,6.6582,6.5859,6.4375,6.4297,6.4297,6.4297,6.418,6.4453,6.5195,6.4473,6.4023,6.3887,6.3144,6.2793,6.2773,6.2031,6.1699,6.1699,0.0,0.0,6.1699,6.1699,6.1699,6.1699,6.1699,6.1699,6.1697,6.1693,6.1663,6.1627,6.1615,6.161,6.1612,6.1625,6.1641,6.1692,6.1697,6.2303,6.3033,6.3146,6.3221,6.3413,6.4086,6.4226,6.3949,6.3074,6.2768,6.2417,6.1489,6.1279,6.1247,6.1182,6.1174,6.1183,6.1201,6.1259,6.1306,6.1402,6.1524,6.16,6.1604,6.1657,6.1692,6.1697,6.1699,6.1699,6.1699,6.1699,6.1699,6.1699,6.1699,6.1699,6.1698,6.1669,6.1615,6.1485,5.9898,5.8968,5.8772,5.7165,5.6296,5.6087,5.6094,5.6054,3.6673,3.7546,3.8546,3.9958,4.0419,4.0496,4.0496,4.0496,4.0496,4.0496,4.0558,4.085,4.1744,4.3151,4.4801,4.6687,5.0883,5.5283,0.0,0.0,6.3921,6.6406,0.0,6.7578,6.832,6.7051,6.6094,6.582,6.5117,6.457,6.4316,6.4297,6.4297,6.4297,6.3574,6.3262,6.3398,6.3262,6.2832,6.2109,6.1953,6.1894,6.1894,6.1758,6.1699,6.1699,0.0,6.1699,6.1699,6.1699,6.1699,6.1699,6.1699,6.1699,6.1699,6.1697,6.1695,6.1674,6.1687,6.1684,6.1686,6.1673,6.1695,6.1697,6.1699,6.2317,6.3137,6.3823,6.4462,6.4948,6.5019,6.4984,6.4703,6.384,6.3075,6.2303,6.141,6.1182,6.1117,6.1041,6.1031,6.1069,6.1183,6.1214,6.1279,6.1456,6.1549,6.1611,6.1688,6.1684,6.1694,6.1699,6.1699,6.1699,6.1698,6.1698,6.1697,6.1692,6.1696,6.1671,6.162,6.1552,6.1486,6.1427,6.0365,5.9466,5.8711,5.7707,5.6831,5.6106,5.6098,5.6054,3.6481,3.7334,3.8296,3.9534,4.0189,4.0631,4.1104,4.12,4.1343,4.1809,4.1929,4.2221,4.3134,4.4759,4.6997,5.0195,5.4373,5.7941,6.01,6.2312,6.4314,0.0,0.0,6.6875,6.6797,6.6074,6.5215,6.4277,6.3828,6.3398,6.293,6.289,6.289,6.289,6.2519,6.2305,6.2305,6.2305,6.2109,6.1699,6.1699,6.1699,6.1699,6.1699,6.1699,6.1699,0.0,6.1699,6.1699,6.1699,6.1699,6.1699,6.1699,6.1699,6.1699,6.1699,6.1699,6.1698,6.1697,6.1697,6.1697,6.1698,6.1699,6.1699,6.1696,6.2287,6.311,6.3876,6.4685,6.5393,6.5795,6.5848,6.5461,6.4117,6.3488,6.284,6.149,6.1192,6.1117,6.107,6.1041,6.1109,6.1227,6.1283,6.1349,6.1475,6.1564,6.1615,6.1694,6.1708,6.1695,6.1696,6.1698,6.1698,6.1694,6.1691,6.1708,6.1704,6.1663,6.1625,6.1541,6.1481,6.1394,6.1294,6.041,5.9753,5.9342,5.8007,5.7138,5.6734,5.627,5.6046,3.6481,3.7334,3.82,3.9092,4.0054,4.1027,4.1912,4.2258,4.2632,4.3527,4.3697,4.3998,4.4943,4.704,4.9964,5.3977,5.7427,6.0009,6.1143,6.3214,6.4843,6.5527,6.6191,6.625,6.5371,6.5117,6.4433,6.3105,6.2812,6.2402,6.1738,6.1699,6.1699,6.1699,6.1504,6.1406,6.1406,6.1211,6.1308,6.1699,6.1699,6.1699,6.1699,6.1699,6.1699,6.1699,6.1699,6.1699,6.1699,6.1699,6.1699,6.1699,6.1699,6.1699,6.1699,6.1699,6.1699,6.1699,6.1699,6.1699,6.1699,6.1699,6.1699,6.1699,6.1692,6.2254,6.3045,6.3784,6.461,6.5432,6.6233,6.6256,6.5689,6.413,6.3643,6.3109,6.1555,6.1217,6.1208,6.1154,6.1116,6.1162,6.1275,6.1352,6.1428,6.1505,6.1565,6.1629,6.1696,6.1709,6.1693,6.1709,6.1694,6.1694,6.1704,6.167,6.1657,6.1629,6.1582,6.1526,6.1465,6.1376,6.1274,6.1159,6.0506,6.0054,5.9843,5.8509,5.7659,5.7262,5.6603,5.6222,3.6481,3.7334,3.82,3.9092,4.0508,4.1931,4.2816,4.3585,4.4391,4.5327,4.5502,4.5793,4.6746,5.0371,5.413,5.6957,5.9657,6.2027,6.3775,0.0,6.5526,6.5586,6.5664,6.5351,6.4473,6.3652,6.3144,6.3008,6.2246,6.1777,6.1699,6.1699,6.1699,6.1699,6.0918,6.0488,6.0488,5.9746,6.0156,6.1699,6.1699,6.1699,6.1699,6.1699,6.1699,6.1699,6.1699,6.1699,6.1699,6.1699,6.1699,6.1699,6.1699,6.1699,6.1699,6.1699,6.1699,6.1699,6.1699,6.1699,6.1699,6.1699,6.1699,6.1699,6.1705,6.2267,6.3045,6.3801,6.4544,6.5292,6.6117,6.5712,6.487,6.3921,6.3178,6.244,6.1489,6.1295,6.1287,6.1287,6.1236,6.1225,6.1289,6.1369,6.1439,6.1567,6.1604,6.1618,6.1694,6.1699,6.1702,6.1708,6.1709,6.1704,6.1703,6.1588,6.1486,6.1429,6.1412,6.1373,6.1332,6.1186,6.1079,6.1022,6.0942,6.0525,5.9715,5.9589,5.8732,5.7216,5.7204,5.6803,3.5865,3.6969,3.8084,3.8411,4.0974,4.3618,4.4459,4.5727,4.7292,4.9262,4.9705,5.0043,5.1023,5.304,5.5439,5.8079,6.1194,6.3338,6.3471,6.4705,6.539,6.4863,6.4785,6.4453,6.3574,6.3183,6.2773,6.2226,6.1387,6.0898,6.0898,6.043,6.0156,6.0156,5.9824,5.9648,5.9648,5.9355,5.9512,6.0156,6.0156,6.0156,6.0156,6.0664,6.0625,6.0195,6.125,6.1387,6.0937,6.1484,6.1699,6.1699,6.1699,6.1699,6.1699,6.1699,6.1699,6.1699,6.1699,6.1699,6.1699,6.1699,6.1699,6.1699,6.1705,6.1871,6.2247,6.2974,6.334,6.3936,6.5855,6.5672,6.4801,6.4006,6.3231,6.2434,6.159,6.1428,6.1409,6.137,6.1337,6.1344,6.1414,6.1448,6.149,6.1596,6.1641,6.166,6.1705,6.1694,6.1697,6.1694,6.1707,6.1671,6.1638,6.1547,6.1437,6.1281,6.131,6.1294,6.1189,6.1099,6.1021,6.1009,6.1008,6.0832,6.0505,5.9965,5.9397,5.88,5.8334,5.7979,3.55,3.6712,3.8072,3.8337,4.142,4.4826,4.6465,4.8186,5.0091,5.244,5.321,5.3599,5.4038,5.5321,5.692,0.0,6.1768,6.3683,6.3084,6.4258,6.4863,6.3984,6.3887,6.3555,6.2676,6.2344,6.1933,6.1328,6.0508,6.0019,6.0019,5.9492,5.9199,5.9199,5.8926,5.8789,5.8789,5.8515,5.8379,5.8379,5.8379,5.8672,5.9219,5.9765,5.9726,5.9258,6.041,6.0723,6.0449,6.1035,6.1445,6.1699,6.1699,6.1699,6.1699,6.1699,6.1699,6.1699,6.1699,6.1699,6.1699,6.1699,6.1699,6.1699,6.1705,6.1657,6.176,6.2482,6.2614,6.2997,6.5021,6.4869,6.4066,6.3565,6.2862,6.2134,6.16,6.1512,6.1528,6.148,6.1461,6.1485,6.1525,6.1524,6.1545,6.1618,6.1673,6.1705,6.1698,6.1707,6.1709,6.1701,6.1682,6.166,6.1603,6.1509,6.1356,6.1173,6.1178,6.1136,6.1051,6.0971,6.0948,6.0944,6.0944,6.0944,6.0944,6.0346,5.9954,5.9765,5.9234,5.8914,3.55,3.6719,3.8214,3.9085,4.1886,4.5324,4.8748,5.0878,5.2614,5.4396,5.5548,5.5998,5.5188,5.721,0.0,5.9102,6.1298,6.3006,6.2988,6.373,6.3965,6.3086,6.2988,6.2637,6.1777,6.0898,6.039,6.039,5.9648,5.9199,5.9199,5.918,5.918,5.918,5.834,5.789,5.789,5.7031,5.6601,5.6601,5.6601,5.75,5.918,5.918,5.918,5.918,5.9199,5.9648,6.039,6.041,6.0918,6.1699,6.1699,6.1699,6.1699,6.1699,6.1699,6.1699,6.1699,6.1699,6.1699,6.1699,6.1699,6.1699,6.1705,6.1644,6.1758,6.2472,6.2645,6.2754,6.3503,6.3032,6.2413,6.2474,6.1934,6.1415,6.1479,6.1553,6.1608,6.1591,6.1598,6.1598,6.1598,6.1598,6.1621,6.1696,6.1699,6.1705,6.1698,6.1698,6.1698,6.1698,6.1634,6.1607,6.1603,6.1428,6.1244,6.1103,6.0962,6.0911,6.0911,6.0835,6.08,6.08,6.08,6.08,6.08,6.08,6.0415,5.9714,5.9785,5.9467,3.556,3.68,3.842,3.9899,4.3323,4.7187,5.0621,5.2707,5.4779,5.7815,5.8709,5.8713,5.795,5.8503,0.0,5.9904,6.1693,6.2791,6.2168,6.2832,6.3066,6.2187,6.1543,6.1074,6.0801,6.0039,5.9551,5.9551,5.8769,5.8281,0.0,5.7695,5.7363,5.7363,5.7129,5.6992,5.6992,5.6738,5.6601,5.6601,5.6601,5.6875,5.7383,5.8008,5.7949,5.7441,5.8672,5.9336,5.9648,6.082,6.1465,6.1699,6.1699,6.1699,6.1699,6.1699,6.1699,6.1699,6.1699,6.1699,6.1699,6.1699,6.1699,6.1699,6.1691,6.1655,6.164,6.1807,6.1777,6.1747,6.2016,6.1818,6.1727,6.2409,6.1977,6.1433,6.1552,6.16,6.1615,6.1663,6.1668,6.1668,6.1668,6.1668,6.1688,6.1693,6.1693,6.1696,6.1698,6.1698,6.1698,6.1698,6.1634,6.1584,6.1524,6.1396,6.1236,6.1107,6.098,6.0869,6.0835,6.0812,6.08,6.08,6.08,6.08,6.08,6.08,6.0712,6.0547,6.0605,6.0585,3.5971,3.7315,3.9109,4.1214,4.4691,4.8752,5.3238,5.5567,5.739,5.959,6.0378,6.0325,5.924,5.9639,0.0,6.0364,6.1287,6.1777,6.1269,6.1367,6.1308,6.0762,6.0234,5.9922,5.9922,5.918,5.8535,5.8183,5.7363,5.6719,0.0,5.5859,5.5566,5.5566,5.5566,5.5566,5.5566,5.5566,5.5566,5.5566,5.5566,5.5742,5.6113,5.6992,5.7109,5.668,5.8086,5.8887,5.9297,6.0644,6.1387,6.1699,6.1699,6.1699,6.1699,6.1699,6.1699,6.1699,6.1699,6.1698,6.1698,6.1698,6.1698,6.1697,6.1708,6.1674,6.1629,6.1564,6.1465,6.1383,6.1395,6.1361,6.1463,6.1997,6.1778,6.147,6.1584,6.1591,6.1625,6.1693,6.1698,6.1698,6.1698,6.1698,6.1698,6.1698,6.1698,6.1698,6.1698,6.1698,6.1698,6.1693,6.1644,6.1564,6.1505,6.1329,6.1167,6.108,6.0938,6.0835,6.08,6.08,6.08,6.08,6.08,6.08,6.08,6.08,6.0835,6.0891,6.095,6.1051,3.6575,3.8074,4.0075,4.2832,4.6356,5.0584,5.6225,5.8817,6.0068,6.0203,6.097,6.1164,5.9628,6.0622,6.1418,6.0544,6.039,6.0371,6.0293,5.9668,5.9199,5.9199,5.9121,5.9082,5.9082,5.8223,5.7324,5.6543,5.5664,5.4844,5.4043,5.4004,5.4004,5.4004,5.4004,5.4004,5.4004,5.4004,5.4004,5.4004,5.4004,5.4414,5.5215,5.6074,5.6523,5.664,5.7519,5.8359,5.914,6.0039,6.0879,6.1582,6.168,6.1699,6.1699,6.1699,6.1698,6.1697,6.1697,6.1694,6.1709,6.1709,6.1709,6.1708,6.1701,6.169,6.1693,6.1623,6.1558,6.1509,6.1433,6.1452,6.1484,6.1421,6.1458,6.1537,6.1595,6.1604,6.1628,6.1693,6.1698,6.1698,6.1698,6.1698,6.1698,6.1698,6.1698,6.1698,6.1698,6.1698,6.1693,6.1699,6.1646,6.1573,6.1509,6.1244,6.1077,6.0993,6.0864,6.08,6.08,6.08,6.08,6.08,6.08,6.08,6.08,6.08,6.0835,6.088,6.0897,6.1011,3.6645,3.8143,4.041,4.4284,5.0357,5.5904,5.7951,5.9762,6.1038,6.1175,6.1943,6.2294,6.1315,6.1454,6.1404,6.0547,6.039,6.0176,5.9551,5.9316,5.9199,5.9199,5.8594,5.8183,5.8183,5.6777,5.5781,5.5586,5.4765,5.4199,5.4004,5.4004,5.4004,5.4004,5.4004,5.4004,5.4004,5.4004,5.4004,0.0,5.4004,5.4101,5.4316,5.5176,5.5957,5.664,5.7519,5.8008,5.8301,5.9785,6.0508,6.0742,6.1426,6.1699,6.1699,6.1698,6.1697,6.1697,6.1693,6.1691,6.1709,6.1709,6.1709,6.1708,6.1701,6.1696,6.1709,6.1679,6.1623,6.1586,6.1553,6.1529,6.1509,6.1544,6.1578,6.1595,6.166,6.167,6.1679,6.1696,6.1698,6.1698,6.1698,6.1698,6.1698,6.1698,6.1698,6.1698,6.1698,6.1698,6.1693,6.1699,6.1646,6.1573,6.1509,6.1244,6.1077,6.0993,6.0864,6.08,6.08,6.08,6.08,6.08,6.08,6.08,6.08,6.08,6.0812,6.0823,6.088,6.0908,3.7153,3.8768,4.1397,4.6864,5.2202,5.6455,5.7788,5.913,6.0136,6.024,6.0997,6.1543,6.1151,6.0757,6.0351,5.9902,5.9473,5.9062,5.8633,5.8223,5.7969,5.7969,5.7187,5.666,5.666,5.5469,5.4492,5.4082,5.3633,5.3203,5.2773,5.2754,5.2754,5.2754,5.2754,5.2754,5.2754,5.2754,5.2754,5.2754,5.2754,5.2969,5.3418,5.4706,5.5546,5.6034,5.6893,5.7517,5.7966,5.8846,5.9686,6.0447,6.0897,6.1326,6.1697,6.1695,6.1693,6.1709,6.1705,6.1701,6.1697,6.1697,6.1697,6.1696,6.1692,6.1709,6.1705,6.1705,6.1641,6.1596,6.1603,6.1567,6.1558,6.1592,6.1592,6.1615,6.1693,6.1699,6.1702,6.1696,6.1698,6.1698,6.1698,6.1698,6.1698,6.1698,6.1698,6.1698,6.1698,6.1698,6.1693,6.1651,6.1592,6.151,6.1467,6.1236,6.1079,6.101,6.0872,6.08,6.08,6.08,6.08,6.08,6.08,6.08,6.08,6.08,6.08,6.08,6.0835,6.088,3.7514,3.9625,4.2833,4.8945,5.2647,5.5216,5.6814,5.8029,5.8808,5.8892,5.9525,6.011,6.016,5.9646,5.914,5.9004,5.8379,5.7793,5.748,5.6836,5.6328,5.6172,5.5508,5.5078,5.5078,5.4141,5.3242,5.2539,5.2207,5.1738,5.1016,5.0976,5.0976,5.0976,5.0976,5.0976,5.0976,5.0976,5.0976,5.0976,5.1113,5.1562,5.2302,5.4059,5.5016,5.5348,5.6068,5.6866,5.7686,5.7843,5.8721,5.9992,6.0285,6.083,6.1494,6.1649,6.1704,6.1697,6.1696,6.1707,6.1698,6.1698,6.1698,6.1737,6.1874,6.1815,6.1735,6.188,6.1768,6.1591,6.1608,6.1595,6.1595,6.16,6.1592,6.1615,6.1696,6.1702,6.1705,6.1698,6.1698,6.1698,6.1698,6.1698,6.1698,6.1698,6.1698,6.1698,6.1698,6.1698,6.1671,6.1625,6.1564,6.1495,6.1415,6.1223,6.1061,6.0999,6.0869,6.08,6.08,6.08,6.08,6.08,6.08,6.08,6.08,6.08,6.08,6.08,6.08,6.0835,3.671,4.0456,4.4826,4.7947,5.1796,5.5062,5.6059,5.7583,5.8821,5.8888,5.9044,5.919,5.9255,5.9235,5.8945,5.8203,5.7988,5.7363,5.5859,5.5547,5.5195,5.4433,5.4238,5.418,5.418,5.2695,5.1699,5.1582,5.0234,4.9355,4.9238,4.9238,4.9238,4.9238,4.9238,4.9238,4.9238,4.9238,4.9238,4.9238,4.9999,5.0388,5.0501,5.2253,5.3875,5.5306,5.5422,5.5969,5.6827,5.7589,5.8038,5.837,5.9836,6.0461,6.0674,6.1429,6.1699,6.1696,6.1705,6.1701,6.1698,6.1698,6.1698,6.1835,6.2598,6.2306,6.1854,6.2616,6.2226,6.1591,6.1608,6.1553,6.1529,6.1592,6.1591,6.1619,6.1688,6.1696,6.1698,6.1698,6.1698,6.1698,6.1698,6.1698,6.1698,6.1698,6.1698,6.1698,6.1698,6.1698,6.1693,6.1699,6.1623,6.1568,6.1497,6.124,6.1079,6.1002,6.0864,6.08,6.08,6.08,6.08,6.08,6.08,6.08,6.08,6.08,6.08,6.08,6.08,6.0812,3.716,4.0288,4.3749,4.6303,4.9455,5.2287,5.3607,5.494,5.5892,5.5929,5.6393,5.7138,5.8189,5.8039,5.7617,5.7226,5.6758,5.6172,5.541,5.4883,5.4433,5.4043,5.3574,5.3086,5.2598,5.1445,5.0527,5.0039,4.9316,4.8906,4.8906,4.8906,4.8906,4.8906,4.8906,4.8906,4.8906,4.8906,4.8905,4.8904,4.974,5.0127,5.0143,5.1405,5.2656,5.3893,5.4885,5.5528,5.5936,5.6815,5.7439,5.7928,5.8652,5.955,6.0446,6.0833,6.128,6.1707,6.1701,6.1698,6.1698,6.1698,6.1698,6.1854,6.2735,6.2384,6.1874,6.2755,6.2326,6.1591,6.1608,6.1549,6.1519,6.1583,6.1606,6.1615,6.1679,6.1693,6.1698,6.1698,6.1698,6.1698,6.1698,6.1698,6.1698,6.1698,6.1698,6.1698,6.1698,6.1698,6.1693,6.1699,6.1646,6.1578,6.1518,6.1294,6.1141,6.1108,6.0999,6.0922,6.0922,6.0922,6.088,6.0858,6.0823,6.08,6.08,6.08,6.08,6.08,6.08,6.08,3.7353,3.9367,4.1648,4.4188,4.6631,4.8894,5.079,5.2125,5.3003,0.0,5.4055,5.516,5.6533,5.668,5.6521,5.6308,5.5722,5.5156,5.4707,5.4082,5.3594,5.3379,5.2578,5.1816,5.1152,5.0156,4.9277,4.8613,4.8359,4.8242,4.8242,4.8242,4.8242,4.8242,4.8242,4.8242,4.8242,4.8241,4.8238,4.8253,4.9283,4.9767,4.9804,5.0891,5.1749,5.2459,5.3975,5.489,5.5357,5.6001,5.6743,5.7523,5.7719,5.8597,5.9768,5.9983,6.0471,6.1074,6.1288,6.1369,6.1408,6.162,6.1698,6.1893,6.3008,6.2579,6.1932,6.3028,6.2482,6.1591,6.158,6.1539,6.1504,6.1563,6.1573,6.1608,6.1676,6.1693,6.1698,6.1698,6.1698,6.1698,6.1698,6.1698,6.1698,6.1698,6.1698,6.1698,6.1698,6.1698,6.1696,6.1705,6.1657,6.1603,6.1534,6.1363,6.124,6.1225,6.1099,6.103,6.1039,6.0999,6.0967,6.0894,6.0858,6.0823,6.08,6.08,6.08,6.08,6.08,6.08,3.6627,3.763,3.9013,4.1558,4.3537,4.5529,4.8024,4.9911,5.138,5.2201,5.3113,5.3821,5.3978,5.5438,5.6321,5.5505,5.5332,5.4726,5.3066,5.2793,5.2461,5.1621,5.082,5.0312,5.0273,4.873,4.7715,4.7676,4.6894,4.6445,4.6445,4.6445,4.6445,4.6445,4.6445,4.6444,4.6444,4.6441,4.6436,4.645,4.8089,4.8865,4.8935,5.0633,5.1414,5.1511,5.245,5.3778,5.53,5.5357,5.5884,5.6743,5.7504,5.7855,5.8031,5.887,5.92,5.9356,6.0178,6.0471,6.0607,6.1425,6.1698,6.201,6.3711,6.3047,6.2052,6.375,6.2951,6.1588,6.1524,6.1489,6.1503,6.1503,6.1514,6.1537,6.1668,6.1698,6.1698,6.1698,6.1698,6.1698,6.1698,6.1698,6.1698,6.1698,6.1698,6.1698,6.1698,6.1698,6.1698,6.1698,6.1705,6.1664,6.1603,6.147,6.135,6.1302,6.1175,6.1086,6.1089,6.1022,6.0972,6.091,6.0894,6.0858,6.08,6.08,6.08,6.08,6.08,6.08,3.5881,3.6614,3.7668,3.9187,4.0875,4.2686,4.4678,4.6039,4.7298,4.8739,4.9737,5.072,5.1906,5.3621,5.4787,5.4505,5.4003,5.3418,5.2793,5.2226,5.1562,5.0723,5.0371,4.9766,4.8633,4.7969,4.7363,4.6816,4.6484,4.6308,4.6308,4.6308,4.6308,4.6308,4.6307,4.6305,4.63,4.6297,4.6293,4.6324,4.8003,4.8802,4.8857,5.0614,5.1394,5.1414,5.1726,5.2546,5.3719,5.4832,5.5474,5.5845,5.6704,5.7348,5.7836,5.8148,5.8968,5.9983,6.0295,6.0764,6.1291,6.1601,6.1698,6.2032,6.377,6.3086,6.2052,6.3809,6.3034,6.1644,6.1584,6.1568,6.1563,6.1559,6.1552,6.1588,6.1671,6.1698,6.1698,6.1698,6.1698,6.1698,6.1698,6.1698,6.1698,6.1698,6.1698,6.1698,6.1698,6.1698,6.1698,6.1698,6.1707,6.1693,6.166,6.1529,6.1443,6.1427,6.1342,6.1295,6.1299,6.1186,6.1088,6.1022,6.0989,6.0922,6.08,6.08,6.08,6.08,6.08,6.08,3.5496,3.5939,3.6626,3.7526,3.862,3.9939,4.1641,4.2918,4.4143,4.5583,4.7043,4.8441,4.9668,5.1131,5.2468,5.3405,5.3084,5.2598,5.2305,5.1523,5.0801,5.0254,4.9687,4.8867,4.7715,4.7344,4.6914,4.6348,4.6308,0.0,4.6308,4.6308,4.6307,4.6304,4.6304,4.6301,4.6309,4.6309,4.6443,4.6749,4.8135,4.8954,4.9286,5.0731,5.1394,5.1394,5.1394,5.1882,5.2802,5.4264,5.5044,5.5396,5.6255,5.6938,5.7406,5.7406,5.8128,5.9202,5.9768,6.0334,6.0917,6.1503,6.1698,6.1971,6.3418,6.3047,6.2442,6.3887,6.345,6.2529,6.2473,6.2245,6.1934,6.1654,6.16,6.1625,6.1693,6.1698,6.1698,6.1698,6.1698,6.1698,6.1698,6.1698,6.1698,6.1698,6.1698,6.1698,6.1698,6.1698,6.1698,6.1698,6.1691,6.1705,6.1699,6.1615,6.1558,6.1539,6.1495,6.1467,6.1421,6.1298,6.1195,6.1099,6.103,6.0933,6.08,6.08,6.08,6.08,6.08,6.08,0.0,0.0,0.0,3.6657,3.6861,3.7309,3.9036,4.0681,4.2106,4.3034,4.5241,4.7048,4.7195,4.7969,4.9457,5.2126,5.2574,5.2285,5.1445,5.0644,5.0156,5.0137,4.8633,4.7598,4.7558,4.6797,4.6308,4.6308,4.6308,4.6308,4.6307,4.6307,4.6304,4.6294,4.6293,4.6309,4.63,4.63,4.6749,4.7606,4.8427,4.9267,5.0124,5.1004,5.1394,5.1394,5.1394,5.1882,5.2724,5.3639,5.4498,5.5357,5.6255,5.6606,5.6606,5.6606,5.6626,5.6879,5.8536,5.9122,5.9414,6.1132,6.1698,6.1854,6.2735,6.3008,6.3184,6.4045,6.425,6.421,6.4174,6.3482,6.2601,6.179,6.16,6.1625,6.1693,6.1698,6.1698,6.1698,6.1698,6.1698,6.1698,6.1698,6.1698,6.1698,6.1698,6.1698,6.1698,6.1698,6.1698,6.1698,6.1698,6.1693,6.1702,6.1699,6.1664,6.1608,6.1602,6.1563,6.1509,6.1361,6.1239,6.1099,6.103,6.0933,6.08,6.08,6.08,6.08,6.08,6.08,3.5481,0.0,0.0,0.0,0.0,0.0,0.0,0.0,3.8914,4.1042,4.2065,4.3156,4.5073,4.571,4.6609,4.8605,4.9509,4.9862,4.9628,4.9393,4.9039,4.8395,4.7887,4.736,4.6715,4.6442,4.6305,0.0,4.6305,4.6305,4.6303,4.6301,4.6296,4.6293,4.6308,4.6303,4.63,4.63,4.6749,4.7606,4.8427,4.9267,5.0124,5.1004,5.1394,5.1394,5.1394,5.1531,5.1882,5.3385,5.4147,5.4517,5.6001,5.6606,5.6606,5.6606,5.6977,5.7621,5.8714,5.9514,6.0217,6.1347,6.1698,6.1854,6.2735,6.3008,6.3184,6.4045,6.4297,6.4133,6.3507,6.3093,6.2668,6.1855,6.167,6.1679,6.1696,6.1698,6.1698,6.1698,6.1698,6.1698,6.1698,6.1698,6.1698,6.1698,6.1698,6.1698,6.1698,6.1698,6.1698,6.1698,6.1698,6.1698,6.1693,6.1705,6.1696,6.1667,6.1635,6.1597,6.1568,6.1395,6.1236,6.1095,6.1,6.09,6.08,6.08,6.08,6.08,6.08,6.08,3.546,3.556,3.5604,0.0,0.0,0.0,3.6284,3.6651,3.7328,0.0,3.976,4.0881,4.2772,4.3491,4.427,4.5642,4.6359,4.7246,4.8691,4.8592,4.8162,4.7654,4.7282,4.6851,4.6343,4.6302,4.6301,4.6301,4.6301,4.6301,4.6299,4.6293,4.6308,4.6308,4.6303,4.63,4.63,4.63,4.6749,4.7606,4.8427,4.9267,5.0124,5.1004,5.1394,5.1394,5.1394,5.1394,5.1511,5.2897,5.3678,5.4166,5.5923,5.6606,5.6606,5.6606,5.6899,5.7465,5.8675,5.9436,6.0061,6.1308,6.1698,6.1796,6.2306,6.2716,6.3184,6.4045,6.4548,6.452,6.3302,6.2955,6.2691,6.1891,6.1699,6.1702,6.1696,6.1698,6.1698,6.1698,6.1698,6.1698,6.1698,6.1698,6.1698,6.1698,6.1698,6.1698,6.1698,6.1698,6.1698,6.1698,6.1698,6.1698,6.1698,6.1693,6.1707,6.1707,6.1638,6.1599,6.1554,6.1395,6.1228,6.1059,6.095,6.0858,6.08,6.08,6.08,6.08,6.08,6.08,3.546,3.5547,0.0,0.0,0.0,0.0,3.5704,3.6245,3.6787,0.0,3.8191,3.9577,4.0441,4.1303,4.2156,4.3044,4.3317,4.4566,4.7851,4.7656,4.7207,4.7305,4.662,4.619,4.6286,4.6303,4.6301,4.63,4.6301,4.6299,4.6294,4.6308,4.6303,4.6303,4.6303,4.6303,4.6303,4.6302,4.6731,4.7608,4.831,4.9169,5.0124,5.0906,5.1316,5.1394,5.1394,5.1394,5.1472,5.2331,5.321,5.4166,5.5806,5.6508,5.6606,5.6606,5.6606,5.684,5.8402,5.9024,5.9375,6.1015,6.162,6.1698,6.1698,6.2306,6.3184,6.4045,6.4816,6.5,6.3399,6.2961,6.2717,6.1894,6.1702,6.1705,6.1696,6.1698,6.1701,6.1701,6.1701,6.1698,6.1698,6.1698,6.1698,6.1698,6.1698,6.1698,6.1698,6.1698,6.1698,6.1698,6.1698,6.1698,6.1698,6.1698,6.1698,6.1698,6.1634,6.1569,6.1495,6.1362,6.1195,6.1012,6.0927,6.0858,6.08,6.08,6.08,6.08,6.08,6.08,0.0,0.0,0.0,0.0,0.0,0.0,3.5704,3.582,3.611,0.0,3.7226,3.7772,3.8656,3.8999,3.9455,4.0398,4.1131,4.2327,4.4413,4.457,4.4726,4.5429,4.537,4.5524,4.6239,4.6295,4.6293,4.6306,4.6291,4.6296,4.63,4.63,4.6299,4.6299,4.6299,4.6299,4.6299,4.6294,4.6739,4.7596,4.7766,4.8621,5.0104,5.028,5.0748,5.1394,5.1394,5.1394,5.1472,5.2331,5.321,5.4108,5.5142,5.5981,5.6606,5.6606,5.6606,5.6743,5.7719,5.8519,5.928,6.0315,6.1134,6.1698,6.1698,6.2306,6.3184,6.4045,6.4414,6.4294,6.3279,6.2984,6.2767,6.1891,6.1696,6.1696,6.1698,6.1698,6.1703,6.1694,6.1707,6.1698,6.1698,6.1698,6.1698,6.1698,6.1698,6.1698,6.1698,6.1698,6.1698,6.1698,6.1698,6.1698,6.1698,6.1698,6.1698,6.1698,6.1634,6.1569,6.1495,6.1322,6.115,6.1012,6.0883,6.0812,6.08,6.08,6.08,6.08,6.08,6.08,0.0,0.0,0.0,3.6298,0.0,0.0,0.0,3.5994,3.58,3.6226,3.6331,3.6619,3.7492,3.7702,3.805,3.8955,3.9864,4.0752,4.1636,4.288,4.3863,4.4294,4.4354,4.4512,4.4959,4.5405,4.5832,4.6278,4.6301,4.6303,4.6307,4.6307,4.6307,4.6307,4.6307,4.6307,4.6307,4.6304,4.6515,4.696,4.7383,4.8041,4.8874,4.9714,5.0338,5.0789,5.1219,5.1394,5.1433,5.1863,5.2565,5.3483,5.4791,5.5825,5.6606,5.6606,5.6606,5.6723,5.7523,5.8089,5.8597,5.9475,6.0334,6.1056,6.1056,6.1954,6.3008,6.3008,6.3321,6.3457,6.2579,6.2345,6.2247,6.1796,6.1705,6.1709,6.1709,6.1694,6.1699,6.1708,6.1704,6.1696,6.169,6.1709,6.1707,6.1701,6.1698,6.1698,6.1698,6.1698,6.1698,6.1698,6.1698,6.1698,6.1698,6.1698,6.1698,6.1698,6.1634,6.1569,6.1495,6.1315,6.1106,6.0908,6.0827,6.08,6.08,6.08,6.08,6.08,6.08,6.08,0.0,0.0,0.0,0.0,0.0,3.7116,0.0,0.0,0.0,3.5723,3.5706,0.0,0.0,0.0,0.0,0.0,0.0,0.0,0.0,4.1254,0.0,4.3391,4.3442,4.3528,4.3689,4.4336,4.5038,4.5742,4.5957,4.6055,4.6054,4.619,4.6288,4.6288,4.6288,4.6288,4.6288,4.6289,4.6307,4.6305,4.7002,4.7442,4.7648,4.8993,4.9792,5.0143,5.0848,5.1238,5.1394,5.1394,5.1902,5.2841,5.4246,5.5435,5.6352,5.6352,5.6469,5.6684,5.7348,5.766,5.7914,5.8616,5.9553,6.0432,6.0607,6.1622,6.2598,6.1893,6.2208,6.2598,6.1874,6.1698,6.1701,6.1703,6.1692,6.1642,6.1488,6.1455,6.1442,6.1445,6.1443,6.1498,6.1666,6.1701,6.1696,6.1705,6.1701,6.1698,6.1698,6.1698,6.1698,6.1698,6.1698,6.1698,6.1698,6.1698,6.1698,6.1698,6.1634,6.1569,6.1495,6.1274,6.1041,6.0793,6.08,6.08,6.08,6.08,6.08,6.08,6.08,6.08,0.0,0.0,0.0,0.0,3.8057,0.0,0.0,0.0,3.6555,3.5839,0.0,0.0,0.0,0.0,0.0,0.0,0.0,0.0,3.7484,3.8371,3.9886,4.2264,4.2543,4.2848,4.3627,4.3787,4.3885,4.3981,4.472,4.5144,4.5156,4.5818,4.6209,4.6209,4.6209,4.6209,4.6209,4.6261,4.6306,4.6308,4.6403,4.6844,4.7617,4.7805,4.8699,5.0104,5.0202,5.069,5.1394,5.1394,5.1902,5.2724,5.2919,5.3992,5.5454,5.5454,5.5942,5.6606,5.6704,5.7192,5.7816,5.7914,5.9065,6.0549,6.133,6.1698,6.1835,6.1737,6.1776,6.1815,6.1737,6.1698,6.1703,6.1694,6.1702,6.1494,6.0717,6.0546,6.0546,6.0542,6.0542,6.0799,6.1561,6.1708,6.1697,6.1696,6.1707,6.1698,6.1698,6.1698,6.1698,6.1698,6.1698,6.1698,6.1698,6.1698,6.1698,6.1698,6.1634,6.1569,6.1495,6.1189,6.0951,6.0812,6.08,6.08,6.08,6.08,6.08,6.08,6.08,6.08,0.0,0.0,0.0,0.0,0.0,0.0,3.8495,0.0,3.7555,0.0,0.0,0.0,0.0,0.0,0.0,0.0,3.6538,0.0,0.0,0.0,3.8822,0.0,0.0,0.0,4.2069,4.2194,4.2605,4.3612,4.4039,4.4442,4.4918,4.5269,4.5677,4.6184,4.6204,4.6204,4.6204,4.6239,4.6252,4.6301,4.6308,4.6482,4.6864,4.7364,4.8236,4.9364,4.987,5.0592,5.1394,5.1394,5.1629,5.1941,5.1941,5.3327,5.53,5.53,5.5845,5.6606,5.6606,5.6821,5.7172,5.7641,5.8636,5.9807,6.0686,6.131,6.1698,6.1698,6.1698,6.1698,6.1698,6.1705,6.1694,6.1702,6.1695,6.1465,6.0585,6.0404,6.0391,6.0401,6.0409,6.0672,6.1557,6.1699,6.1709,6.1699,6.1707,6.1698,6.1698,6.1698,6.1698,6.1698,6.1693,6.1707,6.1707,6.166,6.1637,6.1637,6.158,6.1468,6.1289,6.1106,6.095,6.0812,6.08,6.08,6.08,6.08,6.08,6.08,6.08,6.08,3.7555,0.0,0.0,0.0,0.0,0.0,0.0,0.0,0.0,0.0,0.0,0.0,0.0,0.0,0.0,0.0,0.0,3.6724,0.0,3.7288,0.0,0.0,0.0,0.0,0.0,4.0395,4.0902,4.2182,4.2724,4.3244,4.3838,4.4521,4.5181,4.5825,4.6078,4.6195,4.6195,4.6209,4.6228,4.6267,4.6282,4.6308,4.6323,4.696,4.7694,4.8525,4.9362,5.0241,5.1063,5.1297,5.1394,5.1394,5.1394,5.2702,5.4617,5.4869,5.5493,5.6274,5.6528,5.6606,5.6723,5.7543,5.8226,5.8948,6.0061,6.0842,6.1388,6.162,6.1698,6.1701,6.1703,6.1694,6.1704,6.1694,6.1699,6.1458,6.0591,6.0395,6.0372,6.0363,6.038,6.0668,6.1555,6.1697,6.1695,6.1704,6.1709,6.1698,6.1698,6.1698,6.1698,6.1698,6.1707,6.1696,6.1673,6.1615,6.1553,6.1556,6.1487,6.1335,6.1104,6.1022,6.0929,6.0812,6.08,6.08,6.08,6.08,6.08,6.08,6.08,6.08,0.0,0.0,0.0,4.0545,0.0,0.0,0.0,0.0,3.923,0.0,0.0,0.0,0.0,0.0,0.0,3.6978,0.0,0.0,0.0,0.0,0.0,0.0,0.0,0.0,0.0,3.8585,3.8605,3.8663,4.0226,4.1188,4.1227,4.3569,4.4913,4.4933,4.5751,4.6199,4.6199,4.6196,4.6201,4.6208,4.6274,4.6307,4.6306,4.6338,4.6816,4.7684,4.8486,4.9345,5.0202,5.1043,5.1394,5.1394,5.1394,5.196,5.2899,5.3737,5.4596,5.5454,5.6313,5.6606,5.6723,5.7543,5.7816,5.8168,5.9885,6.0412,6.0627,6.1464,6.1698,6.1703,6.1694,6.1704,6.1693,6.1699,6.1691,6.146,6.0598,6.035,6.0301,6.0297,6.0301,6.0593,6.1537,6.1695,6.1695,6.1709,6.1694,6.1698,6.1698,6.1698,6.1698,6.1698,6.1707,6.1673,6.1618,6.1541,6.148,6.1408,6.1335,6.1247,6.1108,6.0972,6.0867,6.08,6.08,6.08,6.08,6.08,6.08,6.08,6.08,6.08,0.0,0.0,4.0429,4.0739,0.0,0.0,0.0,0.0,0.0,0.0,0.0,0.0,0.0,0.0,3.7356,3.6245,3.5836,0.0,0.0,0.0,0.0,0.0,0.0,0.0,0.0,0.0,0.0,3.8469,3.9048,3.9883,4.1029,4.1929,4.3156,4.4855,4.5186,4.5615,4.6199,4.6203,4.62,4.6201,4.6218,4.6261,4.6308,4.6305,4.6781,4.7625,4.7899,4.8796,5.0124,5.0416,5.0887,5.1394,5.1394,5.159,5.2019,5.3463,5.4556,5.5415,5.6294,5.6606,5.6645,5.6918,5.7367,5.7914,5.8499,5.9495,6.0451,6.0764,6.1256,6.1694,6.1704,6.1695,6.1699,6.1691,6.1668,6.14,6.0519,6.0317,6.0296,6.0296,6.0309,6.0609,6.1537,6.1709,6.1699,6.1692,6.1694,6.1698,6.1698,6.1698,6.1698,6.1698,6.166,6.1611,6.1537,6.1437,6.1322,6.1213,6.1186,6.1117,6.0972,6.0918,6.0861,6.08,6.08,6.08,6.08,6.08,6.08,6.08,6.08,6.08,3.9965,4.0371,0.0,4.0797,4.0797,0.0,4.0797,0.0,0.0,0.0,0.0,0.0,0.0,0.0,0.0,3.6228,3.5725,3.5562,0.0,3.5728,0.0,0.0,0.0,0.0,0.0,0.0,3.696,3.7525,3.7857,3.8656,0.0,4.0757,4.1987,4.3916,4.4582,4.5166,4.5732,4.6043,4.6206,4.6206,4.6204,4.6231,4.6306,4.6307,4.6611,4.7143,4.7471,4.8386,4.9655,4.9967,5.0612,5.1394,5.1394,5.1394,5.1609,5.3366,5.4752,5.5845,5.6411,5.6606,5.6606,5.6606,5.6957,5.7426,5.7719,5.8792,6.0002,6.03,6.1032,6.1705,6.1695,6.1699,6.169,6.1668,6.1634,6.1444,6.0874,6.0759,6.075,6.075,6.0764,6.0953,6.1593,6.1684,6.1679,6.1692,6.1694,6.1698,6.1698,6.1698,6.1698,6.1693,6.1644,6.1556,6.1443,6.1327,6.1223,6.1115,6.108,6.1031,6.0939,6.0903,6.0846,6.08,6.08,6.08,6.08,6.08,6.08,6.08,6.08,6.08]}]]